<?xml version="1.0" encoding="UTF-8" standalone="no" ?>
<gpx xmlns="http://www.topografix.com/GPX/1/1" xmlns:xsi="http://www.w3.org/2001/XMLSchema-instance" xsi:schemaLocation="http://www.topografix.com/GPX/1/1 http://www.topografix.com/GPX/1/1/gpx.xsd" version="1.1" creator="VisuGPX - https://www.visugpx.com">
  <metadata>
    <name>Bagnols -Pennafort -Fille d'Isnard</name>
    <desc><![CDATA[avec RA]]></desc>
  </metadata>
  <trk>
    <name><![CDATA[St Cassien Tour_du_Lac Solo 10-01-25]]></name>
    <extensions>
      <line xmlns="http://www.topografix.com/GPX/gpx_style/0/2">
        <color>0000FF</color>
        <width>3</width>
      </line>
    </extensions>
    <trkseg>
      <trkpt lat="43.55232" lon="6.79372">
        <ele>158.8</ele>
        <time>2025-01-10T11:23:45.000Z</time>
        <extensions>
          <visugpx:TrkExtension xmlns:visugpx="https://www.visugpx.com/editgpx/">
            <visugpx:node>1</visugpx:node>
            </visugpx:TrkExtension>
        </extensions>
      </trkpt>
      <trkpt lat="43.55232" lon="6.79372">
        <ele>158.8</ele>
        <time>2025-01-10T11:23:39.000Z</time>
      </trkpt>
      <trkpt lat="43.55232" lon="6.79373">
        <ele>158.8</ele>
        <time>2025-01-10T11:23:38.000Z</time>
      </trkpt>
      <trkpt lat="43.55232" lon="6.79373">
        <ele>158.8</ele>
        <time>2025-01-10T11:23:37.000Z</time>
      </trkpt>
      <trkpt lat="43.55232" lon="6.79373">
        <ele>158.8</ele>
        <time>2025-01-10T11:23:36.000Z</time>
      </trkpt>
      <trkpt lat="43.55232" lon="6.79373">
        <ele>158.8</ele>
        <time>2025-01-10T11:23:35.000Z</time>
      </trkpt>
      <trkpt lat="43.55232" lon="6.79373">
        <ele>158.8</ele>
        <time>2025-01-10T11:23:34.000Z</time>
      </trkpt>
      <trkpt lat="43.55232" lon="6.79373">
        <ele>158.8</ele>
        <time>2025-01-10T11:23:33.000Z</time>
      </trkpt>
      <trkpt lat="43.55232" lon="6.79373">
        <ele>158.8</ele>
        <time>2025-01-10T11:23:32.000Z</time>
      </trkpt>
      <trkpt lat="43.55232" lon="6.79373">
        <ele>158.8</ele>
        <time>2025-01-10T11:23:31.000Z</time>
      </trkpt>
      <trkpt lat="43.55232" lon="6.79373">
        <ele>158.8</ele>
        <time>2025-01-10T11:23:30.000Z</time>
      </trkpt>
      <trkpt lat="43.55232" lon="6.79373">
        <ele>158.8</ele>
        <time>2025-01-10T11:23:29.000Z</time>
      </trkpt>
      <trkpt lat="43.55232" lon="6.79373">
        <ele>158.8</ele>
        <time>2025-01-10T11:23:28.000Z</time>
      </trkpt>
      <trkpt lat="43.55232" lon="6.79373">
        <ele>158.8</ele>
        <time>2025-01-10T11:23:27.000Z</time>
      </trkpt>
      <trkpt lat="43.55232" lon="6.79373">
        <ele>158.8</ele>
        <time>2025-01-10T11:23:26.000Z</time>
      </trkpt>
      <trkpt lat="43.55232" lon="6.79373">
        <ele>158.8</ele>
        <time>2025-01-10T11:23:25.000Z</time>
      </trkpt>
      <trkpt lat="43.55232" lon="6.79373">
        <ele>158.8</ele>
        <time>2025-01-10T11:23:24.000Z</time>
      </trkpt>
      <trkpt lat="43.55232" lon="6.79373">
        <ele>158.8</ele>
        <time>2025-01-10T11:23:23.000Z</time>
      </trkpt>
      <trkpt lat="43.55232" lon="6.79373">
        <ele>158.8</ele>
        <time>2025-01-10T11:23:22.000Z</time>
      </trkpt>
      <trkpt lat="43.55232" lon="6.79373">
        <ele>158.8</ele>
        <time>2025-01-10T11:23:21.000Z</time>
      </trkpt>
      <trkpt lat="43.55232" lon="6.79373">
        <ele>158.8</ele>
        <time>2025-01-10T11:23:20.000Z</time>
      </trkpt>
      <trkpt lat="43.55232" lon="6.79373">
        <ele>158.8</ele>
        <time>2025-01-10T11:23:19.000Z</time>
      </trkpt>
      <trkpt lat="43.55232" lon="6.79373">
        <ele>158.8</ele>
        <time>2025-01-10T11:23:18.000Z</time>
      </trkpt>
      <trkpt lat="43.55232" lon="6.79373">
        <ele>158.8</ele>
        <time>2025-01-10T11:23:17.000Z</time>
      </trkpt>
      <trkpt lat="43.55232" lon="6.79373">
        <ele>158.8</ele>
        <time>2025-01-10T11:23:16.000Z</time>
      </trkpt>
      <trkpt lat="43.55232" lon="6.79373">
        <ele>158.8</ele>
        <time>2025-01-10T11:23:15.000Z</time>
      </trkpt>
      <trkpt lat="43.55232" lon="6.79373">
        <ele>158.8</ele>
        <time>2025-01-10T11:23:14.000Z</time>
      </trkpt>
      <trkpt lat="43.55232" lon="6.79373">
        <ele>158.8</ele>
        <time>2025-01-10T11:23:13.000Z</time>
      </trkpt>
      <trkpt lat="43.55232" lon="6.79373">
        <ele>158.8</ele>
        <time>2025-01-10T11:23:12.000Z</time>
      </trkpt>
      <trkpt lat="43.55231" lon="6.79373">
        <ele>158.8</ele>
        <time>2025-01-10T11:23:11.000Z</time>
      </trkpt>
      <trkpt lat="43.55231" lon="6.79373">
        <ele>158.8</ele>
        <time>2025-01-10T11:23:10.000Z</time>
      </trkpt>
      <trkpt lat="43.55231" lon="6.79373">
        <ele>158.8</ele>
        <time>2025-01-10T11:23:09.000Z</time>
      </trkpt>
      <trkpt lat="43.55231" lon="6.79373">
        <ele>158.8</ele>
        <time>2025-01-10T11:23:08.000Z</time>
      </trkpt>
      <trkpt lat="43.55231" lon="6.79373">
        <ele>158.8</ele>
        <time>2025-01-10T11:23:07.000Z</time>
      </trkpt>
      <trkpt lat="43.55231" lon="6.79373">
        <ele>158.8</ele>
        <time>2025-01-10T11:23:06.000Z</time>
      </trkpt>
      <trkpt lat="43.55231" lon="6.79373">
        <ele>158.8</ele>
        <time>2025-01-10T11:23:05.000Z</time>
      </trkpt>
      <trkpt lat="43.55231" lon="6.79373">
        <ele>158.8</ele>
        <time>2025-01-10T11:23:04.000Z</time>
      </trkpt>
      <trkpt lat="43.55231" lon="6.79373">
        <ele>158.8</ele>
        <time>2025-01-10T11:23:03.000Z</time>
      </trkpt>
      <trkpt lat="43.55231" lon="6.79373">
        <ele>158.8</ele>
        <time>2025-01-10T11:23:02.000Z</time>
      </trkpt>
      <trkpt lat="43.55231" lon="6.79373">
        <ele>158.8</ele>
        <time>2025-01-10T11:23:01.000Z</time>
      </trkpt>
      <trkpt lat="43.55231" lon="6.79373">
        <ele>158.8</ele>
        <time>2025-01-10T11:23:00.000Z</time>
      </trkpt>
      <trkpt lat="43.55231" lon="6.79373">
        <ele>158.8</ele>
        <time>2025-01-10T11:22:59.000Z</time>
      </trkpt>
      <trkpt lat="43.55231" lon="6.79374">
        <ele>158.8</ele>
        <time>2025-01-10T11:22:58.000Z</time>
      </trkpt>
      <trkpt lat="43.55231" lon="6.79374">
        <ele>158.8</ele>
        <time>2025-01-10T11:22:57.000Z</time>
      </trkpt>
      <trkpt lat="43.55231" lon="6.79374">
        <ele>158.8</ele>
        <time>2025-01-10T11:22:56.000Z</time>
      </trkpt>
      <trkpt lat="43.55231" lon="6.79375">
        <ele>158.9</ele>
        <time>2025-01-10T11:22:55.000Z</time>
      </trkpt>
      <trkpt lat="43.55231" lon="6.79375">
        <ele>158.9</ele>
        <time>2025-01-10T11:22:54.000Z</time>
      </trkpt>
      <trkpt lat="43.55231" lon="6.79375">
        <ele>158.9</ele>
        <time>2025-01-10T11:22:53.000Z</time>
      </trkpt>
      <trkpt lat="43.55231" lon="6.79375">
        <ele>158.9</ele>
        <time>2025-01-10T11:22:52.000Z</time>
      </trkpt>
      <trkpt lat="43.55231" lon="6.79375">
        <ele>158.9</ele>
        <time>2025-01-10T11:22:51.000Z</time>
      </trkpt>
      <trkpt lat="43.55231" lon="6.79375">
        <ele>158.9</ele>
        <time>2025-01-10T11:22:50.000Z</time>
      </trkpt>
      <trkpt lat="43.55231" lon="6.79375">
        <ele>158.9</ele>
        <time>2025-01-10T11:22:49.000Z</time>
      </trkpt>
      <trkpt lat="43.55231" lon="6.79375">
        <ele>158.9</ele>
        <time>2025-01-10T11:22:48.000Z</time>
      </trkpt>
      <trkpt lat="43.55231" lon="6.79375">
        <ele>158.9</ele>
        <time>2025-01-10T11:22:47.000Z</time>
      </trkpt>
      <trkpt lat="43.55231" lon="6.79375">
        <ele>158.9</ele>
        <time>2025-01-10T11:22:46.000Z</time>
      </trkpt>
      <trkpt lat="43.55231" lon="6.79375">
        <ele>158.9</ele>
        <time>2025-01-10T11:22:45.000Z</time>
      </trkpt>
      <trkpt lat="43.55231" lon="6.79375">
        <ele>158.9</ele>
        <time>2025-01-10T11:22:44.000Z</time>
      </trkpt>
      <trkpt lat="43.55231" lon="6.79375">
        <ele>158.9</ele>
        <time>2025-01-10T11:22:43.000Z</time>
      </trkpt>
      <trkpt lat="43.55231" lon="6.79375">
        <ele>158.9</ele>
        <time>2025-01-10T11:22:42.000Z</time>
      </trkpt>
      <trkpt lat="43.55231" lon="6.79375">
        <ele>158.9</ele>
        <time>2025-01-10T11:22:41.000Z</time>
      </trkpt>
      <trkpt lat="43.55231" lon="6.79375">
        <ele>158.9</ele>
        <time>2025-01-10T11:22:40.000Z</time>
      </trkpt>
      <trkpt lat="43.55231" lon="6.79375">
        <ele>158.9</ele>
        <time>2025-01-10T11:22:39.000Z</time>
      </trkpt>
      <trkpt lat="43.55231" lon="6.79375">
        <ele>158.9</ele>
        <time>2025-01-10T11:22:38.000Z</time>
      </trkpt>
      <trkpt lat="43.55231" lon="6.79375">
        <ele>158.9</ele>
        <time>2025-01-10T11:22:37.000Z</time>
      </trkpt>
      <trkpt lat="43.55231" lon="6.79375">
        <ele>158.9</ele>
        <time>2025-01-10T11:22:36.000Z</time>
      </trkpt>
      <trkpt lat="43.55231" lon="6.79375">
        <ele>158.9</ele>
        <time>2025-01-10T11:22:35.000Z</time>
      </trkpt>
      <trkpt lat="43.55231" lon="6.79375">
        <ele>158.9</ele>
        <time>2025-01-10T11:22:34.000Z</time>
      </trkpt>
      <trkpt lat="43.55231" lon="6.79375">
        <ele>158.9</ele>
        <time>2025-01-10T11:22:33.000Z</time>
      </trkpt>
      <trkpt lat="43.55231" lon="6.79375">
        <ele>158.9</ele>
        <time>2025-01-10T11:22:32.000Z</time>
      </trkpt>
      <trkpt lat="43.55231" lon="6.79375">
        <ele>158.9</ele>
        <time>2025-01-10T11:22:31.000Z</time>
      </trkpt>
      <trkpt lat="43.55231" lon="6.79375">
        <ele>158.9</ele>
        <time>2025-01-10T11:22:30.000Z</time>
      </trkpt>
      <trkpt lat="43.55231" lon="6.79375">
        <ele>158.9</ele>
        <time>2025-01-10T11:22:29.000Z</time>
      </trkpt>
      <trkpt lat="43.55231" lon="6.79375">
        <ele>158.9</ele>
        <time>2025-01-10T11:22:28.000Z</time>
      </trkpt>
      <trkpt lat="43.55231" lon="6.79375">
        <ele>158.9</ele>
        <time>2025-01-10T11:22:27.000Z</time>
      </trkpt>
      <trkpt lat="43.55231" lon="6.79375">
        <ele>158.9</ele>
        <time>2025-01-10T11:22:26.000Z</time>
      </trkpt>
      <trkpt lat="43.55231" lon="6.79375">
        <ele>158.9</ele>
        <time>2025-01-10T11:22:25.000Z</time>
      </trkpt>
      <trkpt lat="43.55231" lon="6.79375">
        <ele>158.9</ele>
        <time>2025-01-10T11:22:24.000Z</time>
      </trkpt>
      <trkpt lat="43.55231" lon="6.79375">
        <ele>158.9</ele>
        <time>2025-01-10T11:22:23.000Z</time>
      </trkpt>
      <trkpt lat="43.55231" lon="6.79375">
        <ele>158.9</ele>
        <time>2025-01-10T11:22:22.000Z</time>
      </trkpt>
      <trkpt lat="43.55231" lon="6.79375">
        <ele>158.9</ele>
        <time>2025-01-10T11:22:21.000Z</time>
      </trkpt>
      <trkpt lat="43.55231" lon="6.79374">
        <ele>158.9</ele>
        <time>2025-01-10T11:22:20.000Z</time>
      </trkpt>
      <trkpt lat="43.55231" lon="6.79374">
        <ele>158.9</ele>
        <time>2025-01-10T11:22:19.000Z</time>
      </trkpt>
      <trkpt lat="43.55231" lon="6.79374">
        <ele>158.9</ele>
        <time>2025-01-10T11:22:18.000Z</time>
      </trkpt>
      <trkpt lat="43.55231" lon="6.79374">
        <ele>158.9</ele>
        <time>2025-01-10T11:22:17.000Z</time>
      </trkpt>
      <trkpt lat="43.55231" lon="6.79374">
        <ele>158.9</ele>
        <time>2025-01-10T11:22:16.000Z</time>
      </trkpt>
      <trkpt lat="43.55231" lon="6.79374">
        <ele>158.9</ele>
        <time>2025-01-10T11:22:15.000Z</time>
      </trkpt>
      <trkpt lat="43.55231" lon="6.79374">
        <ele>158.9</ele>
        <time>2025-01-10T11:22:14.000Z</time>
      </trkpt>
      <trkpt lat="43.55231" lon="6.79374">
        <ele>158.9</ele>
        <time>2025-01-10T11:22:13.000Z</time>
      </trkpt>
      <trkpt lat="43.55231" lon="6.79374">
        <ele>158.9</ele>
        <time>2025-01-10T11:22:12.000Z</time>
      </trkpt>
      <trkpt lat="43.55231" lon="6.79374">
        <ele>158.9</ele>
        <time>2025-01-10T11:22:11.000Z</time>
      </trkpt>
      <trkpt lat="43.55231" lon="6.79374">
        <ele>158.9</ele>
        <time>2025-01-10T11:22:10.000Z</time>
      </trkpt>
      <trkpt lat="43.55231" lon="6.79374">
        <ele>158.9</ele>
        <time>2025-01-10T11:22:09.000Z</time>
      </trkpt>
      <trkpt lat="43.55231" lon="6.79374">
        <ele>158.9</ele>
        <time>2025-01-10T11:22:08.000Z</time>
      </trkpt>
      <trkpt lat="43.55231" lon="6.79374">
        <ele>158.9</ele>
        <time>2025-01-10T11:22:07.000Z</time>
      </trkpt>
      <trkpt lat="43.55231" lon="6.79374">
        <ele>158.9</ele>
        <time>2025-01-10T11:22:06.000Z</time>
      </trkpt>
      <trkpt lat="43.55231" lon="6.79374">
        <ele>158.9</ele>
        <time>2025-01-10T11:22:05.000Z</time>
      </trkpt>
      <trkpt lat="43.5523" lon="6.79374">
        <ele>158.9</ele>
        <time>2025-01-10T11:22:04.000Z</time>
      </trkpt>
      <trkpt lat="43.55231" lon="6.79374">
        <ele>158.9</ele>
        <time>2025-01-10T11:22:03.000Z</time>
      </trkpt>
      <trkpt lat="43.5523" lon="6.79375">
        <ele>158.9</ele>
        <time>2025-01-10T11:22:02.000Z</time>
      </trkpt>
      <trkpt lat="43.5523" lon="6.79375">
        <ele>158.9</ele>
        <time>2025-01-10T11:22:01.000Z</time>
      </trkpt>
      <trkpt lat="43.5523" lon="6.79375">
        <ele>158.9</ele>
        <time>2025-01-10T11:22:00.000Z</time>
      </trkpt>
      <trkpt lat="43.5523" lon="6.79375">
        <ele>158.9</ele>
        <time>2025-01-10T11:21:59.000Z</time>
      </trkpt>
      <trkpt lat="43.5523" lon="6.79376">
        <ele>158.9</ele>
        <time>2025-01-10T11:21:58.000Z</time>
      </trkpt>
      <trkpt lat="43.5523" lon="6.79376">
        <ele>158.9</ele>
        <time>2025-01-10T11:21:57.000Z</time>
      </trkpt>
      <trkpt lat="43.55231" lon="6.79377">
        <ele>159</ele>
        <time>2025-01-10T11:21:56.000Z</time>
      </trkpt>
      <trkpt lat="43.5523" lon="6.79377">
        <ele>159</ele>
        <time>2025-01-10T11:21:55.000Z</time>
      </trkpt>
      <trkpt lat="43.5523" lon="6.79377">
        <ele>159</ele>
        <time>2025-01-10T11:21:54.000Z</time>
      </trkpt>
      <trkpt lat="43.55231" lon="6.79377">
        <ele>159</ele>
        <time>2025-01-10T11:21:53.000Z</time>
      </trkpt>
      <trkpt lat="43.55231" lon="6.79377">
        <ele>159</ele>
        <time>2025-01-10T11:21:52.000Z</time>
      </trkpt>
      <trkpt lat="43.55231" lon="6.79376">
        <ele>159</ele>
        <time>2025-01-10T11:21:51.000Z</time>
      </trkpt>
      <trkpt lat="43.55233" lon="6.79375">
        <ele>159</ele>
        <time>2025-01-10T11:21:50.000Z</time>
      </trkpt>
      <trkpt lat="43.55235" lon="6.79373">
        <ele>159</ele>
        <time>2025-01-10T11:21:49.000Z</time>
      </trkpt>
      <trkpt lat="43.55237" lon="6.7937">
        <ele>159</ele>
        <time>2025-01-10T11:21:48.000Z</time>
      </trkpt>
      <trkpt lat="43.5524" lon="6.79367">
        <ele>159</ele>
        <time>2025-01-10T11:21:47.000Z</time>
      </trkpt>
      <trkpt lat="43.55243" lon="6.79362">
        <ele>158.9</ele>
        <time>2025-01-10T11:21:46.000Z</time>
      </trkpt>
      <trkpt lat="43.55244" lon="6.79358">
        <ele>158.7</ele>
        <time>2025-01-10T11:21:45.000Z</time>
      </trkpt>
      <trkpt lat="43.55245" lon="6.79354">
        <ele>158.6</ele>
        <time>2025-01-10T11:21:44.000Z</time>
      </trkpt>
      <trkpt lat="43.55247" lon="6.7935">
        <ele>158.5</ele>
        <time>2025-01-10T11:21:43.000Z</time>
      </trkpt>
      <trkpt lat="43.55248" lon="6.79345">
        <ele>158.2</ele>
        <time>2025-01-10T11:21:42.000Z</time>
      </trkpt>
      <trkpt lat="43.55249" lon="6.79342">
        <ele>158.1</ele>
        <time>2025-01-10T11:21:41.000Z</time>
      </trkpt>
      <trkpt lat="43.55251" lon="6.79337">
        <ele>157.9</ele>
        <time>2025-01-10T11:21:40.000Z</time>
      </trkpt>
      <trkpt lat="43.55253" lon="6.79333">
        <ele>157.7</ele>
        <time>2025-01-10T11:21:39.000Z</time>
      </trkpt>
      <trkpt lat="43.55256" lon="6.79328">
        <ele>157.5</ele>
        <time>2025-01-10T11:21:38.000Z</time>
      </trkpt>
      <trkpt lat="43.5526" lon="6.79324">
        <ele>157.2</ele>
        <time>2025-01-10T11:21:37.000Z</time>
      </trkpt>
      <trkpt lat="43.55264" lon="6.7932">
        <ele>157</ele>
        <time>2025-01-10T11:21:36.000Z</time>
      </trkpt>
      <trkpt lat="43.55268" lon="6.79317">
        <ele>156.9</ele>
        <time>2025-01-10T11:21:35.000Z</time>
      </trkpt>
      <trkpt lat="43.55271" lon="6.79314">
        <ele>156.8</ele>
        <time>2025-01-10T11:21:34.000Z</time>
      </trkpt>
      <trkpt lat="43.55276" lon="6.79309">
        <ele>156.7</ele>
        <time>2025-01-10T11:21:33.000Z</time>
      </trkpt>
      <trkpt lat="43.5528" lon="6.79305">
        <ele>156.7</ele>
        <time>2025-01-10T11:21:32.000Z</time>
      </trkpt>
      <trkpt lat="43.55284" lon="6.79302">
        <ele>156.7</ele>
        <time>2025-01-10T11:21:31.000Z</time>
      </trkpt>
      <trkpt lat="43.55288" lon="6.79299">
        <ele>156.7</ele>
        <time>2025-01-10T11:21:30.000Z</time>
      </trkpt>
      <trkpt lat="43.55293" lon="6.79296">
        <ele>156.7</ele>
        <time>2025-01-10T11:21:29.000Z</time>
      </trkpt>
      <trkpt lat="43.55299" lon="6.79292">
        <ele>156.8</ele>
        <time>2025-01-10T11:21:28.000Z</time>
      </trkpt>
      <trkpt lat="43.55305" lon="6.7929">
        <ele>156.9</ele>
        <time>2025-01-10T11:21:27.000Z</time>
      </trkpt>
      <trkpt lat="43.5531" lon="6.79288">
        <ele>157</ele>
        <time>2025-01-10T11:21:26.000Z</time>
      </trkpt>
      <trkpt lat="43.55316" lon="6.79287">
        <ele>157</ele>
        <time>2025-01-10T11:21:25.000Z</time>
      </trkpt>
      <trkpt lat="43.55321" lon="6.79286">
        <ele>157.1</ele>
        <time>2025-01-10T11:21:24.000Z</time>
      </trkpt>
      <trkpt lat="43.55327" lon="6.79286">
        <ele>157.2</ele>
        <time>2025-01-10T11:21:23.000Z</time>
      </trkpt>
      <trkpt lat="43.55332" lon="6.79287">
        <ele>157.3</ele>
        <time>2025-01-10T11:21:22.000Z</time>
      </trkpt>
      <trkpt lat="43.55337" lon="6.7929">
        <ele>157.4</ele>
        <time>2025-01-10T11:21:21.000Z</time>
      </trkpt>
      <trkpt lat="43.55341" lon="6.79293">
        <ele>157.4</ele>
        <time>2025-01-10T11:21:20.000Z</time>
      </trkpt>
      <trkpt lat="43.55345" lon="6.79299">
        <ele>157.5</ele>
        <time>2025-01-10T11:21:19.000Z</time>
      </trkpt>
      <trkpt lat="43.55349" lon="6.79304">
        <ele>157.5</ele>
        <time>2025-01-10T11:21:18.000Z</time>
      </trkpt>
      <trkpt lat="43.55353" lon="6.79308">
        <ele>157.5</ele>
        <time>2025-01-10T11:21:17.000Z</time>
      </trkpt>
      <trkpt lat="43.55357" lon="6.79311">
        <ele>157.6</ele>
        <time>2025-01-10T11:21:16.000Z</time>
      </trkpt>
      <trkpt lat="43.55362" lon="6.79313">
        <ele>157.7</ele>
        <time>2025-01-10T11:21:15.000Z</time>
      </trkpt>
      <trkpt lat="43.55369" lon="6.79313">
        <ele>157.9</ele>
        <time>2025-01-10T11:21:14.000Z</time>
      </trkpt>
      <trkpt lat="43.55373" lon="6.79312">
        <ele>158.1</ele>
        <time>2025-01-10T11:21:13.000Z</time>
      </trkpt>
      <trkpt lat="43.55379" lon="6.7931">
        <ele>158.3</ele>
        <time>2025-01-10T11:21:12.000Z</time>
      </trkpt>
      <trkpt lat="43.55383" lon="6.79308">
        <ele>158.5</ele>
        <time>2025-01-10T11:21:11.000Z</time>
      </trkpt>
      <trkpt lat="43.55387" lon="6.79305">
        <ele>158.6</ele>
        <time>2025-01-10T11:21:10.000Z</time>
      </trkpt>
      <trkpt lat="43.55391" lon="6.79301">
        <ele>158.7</ele>
        <time>2025-01-10T11:21:09.000Z</time>
      </trkpt>
      <trkpt lat="43.55393" lon="6.79296">
        <ele>158.7</ele>
        <time>2025-01-10T11:21:08.000Z</time>
      </trkpt>
      <trkpt lat="43.55395" lon="6.79293">
        <ele>158.7</ele>
        <time>2025-01-10T11:21:07.000Z</time>
      </trkpt>
      <trkpt lat="43.55397" lon="6.79288">
        <ele>158.7</ele>
        <time>2025-01-10T11:21:06.000Z</time>
      </trkpt>
      <trkpt lat="43.55399" lon="6.79283">
        <ele>158.5</ele>
        <time>2025-01-10T11:21:05.000Z</time>
      </trkpt>
      <trkpt lat="43.55401" lon="6.79279">
        <ele>158.4</ele>
        <time>2025-01-10T11:21:04.000Z</time>
      </trkpt>
      <trkpt lat="43.55404" lon="6.79273">
        <ele>158.2</ele>
        <time>2025-01-10T11:21:03.000Z</time>
      </trkpt>
      <trkpt lat="43.55405" lon="6.79269">
        <ele>158.1</ele>
        <time>2025-01-10T11:21:02.000Z</time>
      </trkpt>
      <trkpt lat="43.55407" lon="6.79263">
        <ele>158</ele>
        <time>2025-01-10T11:21:01.000Z</time>
      </trkpt>
      <trkpt lat="43.5541" lon="6.79257">
        <ele>157.9</ele>
        <time>2025-01-10T11:21:00.000Z</time>
      </trkpt>
      <trkpt lat="43.55413" lon="6.79253">
        <ele>157.8</ele>
        <time>2025-01-10T11:20:59.000Z</time>
      </trkpt>
      <trkpt lat="43.55415" lon="6.79249">
        <ele>157.7</ele>
        <time>2025-01-10T11:20:58.000Z</time>
      </trkpt>
      <trkpt lat="43.55419" lon="6.79245">
        <ele>157.5</ele>
        <time>2025-01-10T11:20:57.000Z</time>
      </trkpt>
      <trkpt lat="43.55423" lon="6.79243">
        <ele>157.4</ele>
        <time>2025-01-10T11:20:56.000Z</time>
      </trkpt>
      <trkpt lat="43.55428" lon="6.7924">
        <ele>157.3</ele>
        <time>2025-01-10T11:20:55.000Z</time>
      </trkpt>
      <trkpt lat="43.55431" lon="6.7924">
        <ele>157.2</ele>
        <time>2025-01-10T11:20:54.000Z</time>
      </trkpt>
      <trkpt lat="43.55435" lon="6.79239">
        <ele>157.1</ele>
        <time>2025-01-10T11:20:53.000Z</time>
      </trkpt>
      <trkpt lat="43.55439" lon="6.7924">
        <ele>157</ele>
        <time>2025-01-10T11:20:52.000Z</time>
      </trkpt>
      <trkpt lat="43.55444" lon="6.79241">
        <ele>156.9</ele>
        <time>2025-01-10T11:20:51.000Z</time>
      </trkpt>
      <trkpt lat="43.55449" lon="6.79243">
        <ele>156.7</ele>
        <time>2025-01-10T11:20:50.000Z</time>
      </trkpt>
      <trkpt lat="43.55452" lon="6.79243">
        <ele>156.7</ele>
        <time>2025-01-10T11:20:49.000Z</time>
      </trkpt>
      <trkpt lat="43.55457" lon="6.79244">
        <ele>156.6</ele>
        <time>2025-01-10T11:20:48.000Z</time>
      </trkpt>
      <trkpt lat="43.55461" lon="6.79244">
        <ele>156.5</ele>
        <time>2025-01-10T11:20:47.000Z</time>
      </trkpt>
      <trkpt lat="43.55466" lon="6.79242">
        <ele>156.4</ele>
        <time>2025-01-10T11:20:46.000Z</time>
      </trkpt>
      <trkpt lat="43.55471" lon="6.7924">
        <ele>156.4</ele>
        <time>2025-01-10T11:20:45.000Z</time>
      </trkpt>
      <trkpt lat="43.55474" lon="6.79239">
        <ele>156.4</ele>
        <time>2025-01-10T11:20:44.000Z</time>
      </trkpt>
      <trkpt lat="43.55478" lon="6.79236">
        <ele>156.4</ele>
        <time>2025-01-10T11:20:43.000Z</time>
      </trkpt>
      <trkpt lat="43.55482" lon="6.79234">
        <ele>156.4</ele>
        <time>2025-01-10T11:20:42.000Z</time>
      </trkpt>
      <trkpt lat="43.55486" lon="6.7923">
        <ele>156.4</ele>
        <time>2025-01-10T11:20:41.000Z</time>
      </trkpt>
      <trkpt lat="43.55488" lon="6.79227">
        <ele>156.5</ele>
        <time>2025-01-10T11:20:40.000Z</time>
      </trkpt>
      <trkpt lat="43.5549" lon="6.79224">
        <ele>156.5</ele>
        <time>2025-01-10T11:20:39.000Z</time>
      </trkpt>
      <trkpt lat="43.55491" lon="6.7922">
        <ele>156.5</ele>
        <time>2025-01-10T11:20:38.000Z</time>
      </trkpt>
      <trkpt lat="43.55492" lon="6.79217">
        <ele>156.6</ele>
        <time>2025-01-10T11:20:37.000Z</time>
      </trkpt>
      <trkpt lat="43.55493" lon="6.79214">
        <ele>156.6</ele>
        <time>2025-01-10T11:20:36.000Z</time>
      </trkpt>
      <trkpt lat="43.55494" lon="6.79213">
        <ele>156.7</ele>
        <time>2025-01-10T11:20:35.000Z</time>
      </trkpt>
      <trkpt lat="43.55495" lon="6.79211">
        <ele>156.7</ele>
        <time>2025-01-10T11:20:34.000Z</time>
      </trkpt>
      <trkpt lat="43.55496" lon="6.7921">
        <ele>156.7</ele>
        <time>2025-01-10T11:20:33.000Z</time>
      </trkpt>
      <trkpt lat="43.55497" lon="6.79209">
        <ele>156.7</ele>
        <time>2025-01-10T11:20:32.000Z</time>
      </trkpt>
      <trkpt lat="43.55499" lon="6.79209">
        <ele>156.8</ele>
        <time>2025-01-10T11:20:31.000Z</time>
      </trkpt>
      <trkpt lat="43.555" lon="6.79209">
        <ele>156.8</ele>
        <time>2025-01-10T11:20:30.000Z</time>
      </trkpt>
      <trkpt lat="43.55501" lon="6.79209">
        <ele>156.8</ele>
        <time>2025-01-10T11:20:29.000Z</time>
      </trkpt>
      <trkpt lat="43.55502" lon="6.7921">
        <ele>156.9</ele>
        <time>2025-01-10T11:20:28.000Z</time>
      </trkpt>
      <trkpt lat="43.55503" lon="6.79211">
        <ele>156.9</ele>
        <time>2025-01-10T11:20:27.000Z</time>
      </trkpt>
      <trkpt lat="43.55503" lon="6.79212">
        <ele>156.9</ele>
        <time>2025-01-10T11:20:26.000Z</time>
      </trkpt>
      <trkpt lat="43.55503" lon="6.79213">
        <ele>156.9</ele>
        <time>2025-01-10T11:20:25.000Z</time>
      </trkpt>
      <trkpt lat="43.55503" lon="6.79213">
        <ele>156.9</ele>
        <time>2025-01-10T11:20:24.000Z</time>
      </trkpt>
      <trkpt lat="43.55503" lon="6.79213">
        <ele>156.9</ele>
        <time>2025-01-10T11:20:23.000Z</time>
      </trkpt>
      <trkpt lat="43.55504" lon="6.79213">
        <ele>156.9</ele>
        <time>2025-01-10T11:20:22.000Z</time>
      </trkpt>
      <trkpt lat="43.55504" lon="6.79214">
        <ele>156.9</ele>
        <time>2025-01-10T11:20:21.000Z</time>
      </trkpt>
      <trkpt lat="43.55505" lon="6.79214">
        <ele>157</ele>
        <time>2025-01-10T11:20:20.000Z</time>
      </trkpt>
      <trkpt lat="43.55506" lon="6.79215">
        <ele>157</ele>
        <time>2025-01-10T11:20:19.000Z</time>
      </trkpt>
      <trkpt lat="43.55506" lon="6.79215">
        <ele>157</ele>
        <time>2025-01-10T11:20:18.000Z</time>
      </trkpt>
      <trkpt lat="43.55506" lon="6.79214">
        <ele>157</ele>
        <time>2025-01-10T11:20:17.000Z</time>
      </trkpt>
      <trkpt lat="43.55506" lon="6.79213">
        <ele>157</ele>
        <time>2025-01-10T11:20:16.000Z</time>
      </trkpt>
      <trkpt lat="43.55506" lon="6.79211">
        <ele>157</ele>
        <time>2025-01-10T11:20:15.000Z</time>
      </trkpt>
      <trkpt lat="43.55506" lon="6.7921">
        <ele>157.1</ele>
        <time>2025-01-10T11:20:14.000Z</time>
      </trkpt>
      <trkpt lat="43.55506" lon="6.79209">
        <ele>157.1</ele>
        <time>2025-01-10T11:20:13.000Z</time>
      </trkpt>
      <trkpt lat="43.55507" lon="6.79208">
        <ele>157.1</ele>
        <time>2025-01-10T11:20:12.000Z</time>
      </trkpt>
      <trkpt lat="43.55507" lon="6.79207">
        <ele>157.1</ele>
        <time>2025-01-10T11:20:11.000Z</time>
      </trkpt>
      <trkpt lat="43.55509" lon="6.79206">
        <ele>157.1</ele>
        <time>2025-01-10T11:20:10.000Z</time>
      </trkpt>
      <trkpt lat="43.5551" lon="6.79206">
        <ele>157.2</ele>
        <time>2025-01-10T11:20:09.000Z</time>
      </trkpt>
      <trkpt lat="43.55511" lon="6.79205">
        <ele>157.2</ele>
        <time>2025-01-10T11:20:08.000Z</time>
      </trkpt>
      <trkpt lat="43.55512" lon="6.79205">
        <ele>157.2</ele>
        <time>2025-01-10T11:20:07.000Z</time>
      </trkpt>
      <trkpt lat="43.55513" lon="6.79204">
        <ele>157.2</ele>
        <time>2025-01-10T11:20:06.000Z</time>
      </trkpt>
      <trkpt lat="43.55514" lon="6.79204">
        <ele>157.2</ele>
        <time>2025-01-10T11:20:05.000Z</time>
      </trkpt>
      <trkpt lat="43.55515" lon="6.79203">
        <ele>157.2</ele>
        <time>2025-01-10T11:20:04.000Z</time>
      </trkpt>
      <trkpt lat="43.55516" lon="6.79203">
        <ele>157.2</ele>
        <time>2025-01-10T11:20:03.000Z</time>
      </trkpt>
      <trkpt lat="43.55517" lon="6.79203">
        <ele>157.2</ele>
        <time>2025-01-10T11:20:02.000Z</time>
      </trkpt>
      <trkpt lat="43.55518" lon="6.79202">
        <ele>157.2</ele>
        <time>2025-01-10T11:20:01.000Z</time>
      </trkpt>
      <trkpt lat="43.55519" lon="6.79202">
        <ele>157.2</ele>
        <time>2025-01-10T11:20:00.000Z</time>
      </trkpt>
      <trkpt lat="43.5552" lon="6.79201">
        <ele>157.2</ele>
        <time>2025-01-10T11:19:59.000Z</time>
      </trkpt>
      <trkpt lat="43.5552" lon="6.792">
        <ele>157.1</ele>
        <time>2025-01-10T11:19:58.000Z</time>
      </trkpt>
      <trkpt lat="43.55521" lon="6.79199">
        <ele>157.1</ele>
        <time>2025-01-10T11:19:57.000Z</time>
      </trkpt>
      <trkpt lat="43.55522" lon="6.79198">
        <ele>157.1</ele>
        <time>2025-01-10T11:19:56.000Z</time>
      </trkpt>
      <trkpt lat="43.55523" lon="6.79198">
        <ele>157.1</ele>
        <time>2025-01-10T11:19:55.000Z</time>
      </trkpt>
      <trkpt lat="43.55524" lon="6.79198">
        <ele>157.1</ele>
        <time>2025-01-10T11:19:54.000Z</time>
      </trkpt>
      <trkpt lat="43.55524" lon="6.79198">
        <ele>157.1</ele>
        <time>2025-01-10T11:19:53.000Z</time>
      </trkpt>
      <trkpt lat="43.55525" lon="6.79197">
        <ele>157.1</ele>
        <time>2025-01-10T11:19:52.000Z</time>
      </trkpt>
      <trkpt lat="43.55525" lon="6.79197">
        <ele>157.1</ele>
        <time>2025-01-10T11:19:51.000Z</time>
      </trkpt>
      <trkpt lat="43.55525" lon="6.79196">
        <ele>157.1</ele>
        <time>2025-01-10T11:19:50.000Z</time>
      </trkpt>
      <trkpt lat="43.55527" lon="6.79195">
        <ele>157.1</ele>
        <time>2025-01-10T11:19:49.000Z</time>
      </trkpt>
      <trkpt lat="43.55529" lon="6.79194">
        <ele>157.1</ele>
        <time>2025-01-10T11:19:48.000Z</time>
      </trkpt>
      <trkpt lat="43.55532" lon="6.79192">
        <ele>157.2</ele>
        <time>2025-01-10T11:19:47.000Z</time>
      </trkpt>
      <trkpt lat="43.55534" lon="6.7919">
        <ele>157.2</ele>
        <time>2025-01-10T11:19:46.000Z</time>
      </trkpt>
      <trkpt lat="43.55536" lon="6.79188">
        <ele>157.2</ele>
        <time>2025-01-10T11:19:45.000Z</time>
      </trkpt>
      <trkpt lat="43.55537" lon="6.79187">
        <ele>157.3</ele>
        <time>2025-01-10T11:19:44.000Z</time>
      </trkpt>
      <trkpt lat="43.55538" lon="6.79187">
        <ele>157.3</ele>
        <time>2025-01-10T11:19:43.000Z</time>
      </trkpt>
      <trkpt lat="43.55538" lon="6.79187">
        <ele>157.3</ele>
        <time>2025-01-10T11:19:42.000Z</time>
      </trkpt>
      <trkpt lat="43.55538" lon="6.79187">
        <ele>157.3</ele>
        <time>2025-01-10T11:19:41.000Z</time>
      </trkpt>
      <trkpt lat="43.55538" lon="6.79187">
        <ele>157.3</ele>
        <time>2025-01-10T11:19:40.000Z</time>
      </trkpt>
      <trkpt lat="43.55539" lon="6.79186">
        <ele>157.3</ele>
        <time>2025-01-10T11:19:39.000Z</time>
      </trkpt>
      <trkpt lat="43.55539" lon="6.79185">
        <ele>157.4</ele>
        <time>2025-01-10T11:19:38.000Z</time>
      </trkpt>
      <trkpt lat="43.5554" lon="6.79184">
        <ele>157.4</ele>
        <time>2025-01-10T11:19:37.000Z</time>
      </trkpt>
      <trkpt lat="43.5554" lon="6.79184">
        <ele>157.4</ele>
        <time>2025-01-10T11:19:36.000Z</time>
      </trkpt>
      <trkpt lat="43.5554" lon="6.79184">
        <ele>157.4</ele>
        <time>2025-01-10T11:19:35.000Z</time>
      </trkpt>
      <trkpt lat="43.5554" lon="6.79184">
        <ele>157.4</ele>
        <time>2025-01-10T11:19:34.000Z</time>
      </trkpt>
      <trkpt lat="43.5554" lon="6.79183">
        <ele>157.5</ele>
        <time>2025-01-10T11:19:33.000Z</time>
      </trkpt>
      <trkpt lat="43.5554" lon="6.79183">
        <ele>157.5</ele>
        <time>2025-01-10T11:19:32.000Z</time>
      </trkpt>
      <trkpt lat="43.5554" lon="6.79183">
        <ele>157.5</ele>
        <time>2025-01-10T11:19:31.000Z</time>
      </trkpt>
      <trkpt lat="43.5554" lon="6.79183">
        <ele>157.5</ele>
        <time>2025-01-10T11:19:30.000Z</time>
      </trkpt>
      <trkpt lat="43.55541" lon="6.79183">
        <ele>157.5</ele>
        <time>2025-01-10T11:19:29.000Z</time>
      </trkpt>
      <trkpt lat="43.55543" lon="6.79182">
        <ele>157.6</ele>
        <time>2025-01-10T11:19:28.000Z</time>
      </trkpt>
      <trkpt lat="43.55545" lon="6.79182">
        <ele>157.7</ele>
        <time>2025-01-10T11:19:27.000Z</time>
      </trkpt>
      <trkpt lat="43.55549" lon="6.79182">
        <ele>157.9</ele>
        <time>2025-01-10T11:19:26.000Z</time>
      </trkpt>
      <trkpt lat="43.55552" lon="6.79182">
        <ele>158.2</ele>
        <time>2025-01-10T11:19:25.000Z</time>
      </trkpt>
      <trkpt lat="43.55555" lon="6.79182">
        <ele>158.3</ele>
        <time>2025-01-10T11:19:24.000Z</time>
      </trkpt>
      <trkpt lat="43.55557" lon="6.79182">
        <ele>158.5</ele>
        <time>2025-01-10T11:19:23.000Z</time>
      </trkpt>
      <trkpt lat="43.55559" lon="6.79182">
        <ele>158.6</ele>
        <time>2025-01-10T11:19:22.000Z</time>
      </trkpt>
      <trkpt lat="43.55561" lon="6.79184">
        <ele>158.6</ele>
        <time>2025-01-10T11:19:21.000Z</time>
      </trkpt>
      <trkpt lat="43.55563" lon="6.79186">
        <ele>158.6</ele>
        <time>2025-01-10T11:19:20.000Z</time>
      </trkpt>
      <trkpt lat="43.55565" lon="6.79189">
        <ele>158.5</ele>
        <time>2025-01-10T11:19:19.000Z</time>
      </trkpt>
      <trkpt lat="43.55567" lon="6.79191">
        <ele>158.5</ele>
        <time>2025-01-10T11:19:18.000Z</time>
      </trkpt>
      <trkpt lat="43.55568" lon="6.79193">
        <ele>158.5</ele>
        <time>2025-01-10T11:19:17.000Z</time>
      </trkpt>
      <trkpt lat="43.55569" lon="6.79196">
        <ele>158.4</ele>
        <time>2025-01-10T11:19:16.000Z</time>
      </trkpt>
      <trkpt lat="43.55568" lon="6.79198">
        <ele>158.4</ele>
        <time>2025-01-10T11:19:15.000Z</time>
      </trkpt>
      <trkpt lat="43.55567" lon="6.79199">
        <ele>158.4</ele>
        <time>2025-01-10T11:19:14.000Z</time>
      </trkpt>
      <trkpt lat="43.55566" lon="6.79199">
        <ele>158.4</ele>
        <time>2025-01-10T11:19:13.000Z</time>
      </trkpt>
      <trkpt lat="43.55564" lon="6.79197">
        <ele>158.4</ele>
        <time>2025-01-10T11:19:12.000Z</time>
      </trkpt>
      <trkpt lat="43.55562" lon="6.79194">
        <ele>158.4</ele>
        <time>2025-01-10T11:19:11.000Z</time>
      </trkpt>
      <trkpt lat="43.55561" lon="6.79192">
        <ele>158.5</ele>
        <time>2025-01-10T11:19:10.000Z</time>
      </trkpt>
      <trkpt lat="43.55559" lon="6.7919">
        <ele>158.5</ele>
        <time>2025-01-10T11:19:09.000Z</time>
      </trkpt>
      <trkpt lat="43.55558" lon="6.79188">
        <ele>158.5</ele>
        <time>2025-01-10T11:19:08.000Z</time>
      </trkpt>
      <trkpt lat="43.55556" lon="6.79185">
        <ele>158.5</ele>
        <time>2025-01-10T11:19:07.000Z</time>
      </trkpt>
      <trkpt lat="43.55555" lon="6.79181">
        <ele>158.5</ele>
        <time>2025-01-10T11:19:06.000Z</time>
      </trkpt>
      <trkpt lat="43.55555" lon="6.79178">
        <ele>158.6</ele>
        <time>2025-01-10T11:19:05.000Z</time>
      </trkpt>
      <trkpt lat="43.55554" lon="6.79175">
        <ele>158.6</ele>
        <time>2025-01-10T11:19:04.000Z</time>
      </trkpt>
      <trkpt lat="43.55553" lon="6.7917">
        <ele>158.6</ele>
        <time>2025-01-10T11:19:03.000Z</time>
      </trkpt>
      <trkpt lat="43.55552" lon="6.79165">
        <ele>158.6</ele>
        <time>2025-01-10T11:19:02.000Z</time>
      </trkpt>
      <trkpt lat="43.55551" lon="6.7916">
        <ele>158.6</ele>
        <time>2025-01-10T11:19:01.000Z</time>
      </trkpt>
      <trkpt lat="43.5555" lon="6.79155">
        <ele>158.6</ele>
        <time>2025-01-10T11:19:00.000Z</time>
      </trkpt>
      <trkpt lat="43.5555" lon="6.79149">
        <ele>158.7</ele>
        <time>2025-01-10T11:18:59.000Z</time>
      </trkpt>
      <trkpt lat="43.5555" lon="6.79144">
        <ele>159</ele>
        <time>2025-01-10T11:18:58.000Z</time>
      </trkpt>
      <trkpt lat="43.55551" lon="6.79138">
        <ele>159.1</ele>
        <time>2025-01-10T11:18:57.000Z</time>
      </trkpt>
      <trkpt lat="43.55552" lon="6.79131">
        <ele>159.3</ele>
        <time>2025-01-10T11:18:56.000Z</time>
      </trkpt>
      <trkpt lat="43.55552" lon="6.79125">
        <ele>159.4</ele>
        <time>2025-01-10T11:18:55.000Z</time>
      </trkpt>
      <trkpt lat="43.55553" lon="6.79119">
        <ele>159.5</ele>
        <time>2025-01-10T11:18:54.000Z</time>
      </trkpt>
      <trkpt lat="43.55554" lon="6.79113">
        <ele>159.5</ele>
        <time>2025-01-10T11:18:53.000Z</time>
      </trkpt>
      <trkpt lat="43.55555" lon="6.79107">
        <ele>159.6</ele>
        <time>2025-01-10T11:18:52.000Z</time>
      </trkpt>
      <trkpt lat="43.55556" lon="6.791">
        <ele>159.6</ele>
        <time>2025-01-10T11:18:51.000Z</time>
      </trkpt>
      <trkpt lat="43.55558" lon="6.79094">
        <ele>159.5</ele>
        <time>2025-01-10T11:18:50.000Z</time>
      </trkpt>
      <trkpt lat="43.55559" lon="6.79089">
        <ele>159.5</ele>
        <time>2025-01-10T11:18:49.000Z</time>
      </trkpt>
      <trkpt lat="43.5556" lon="6.79082">
        <ele>159.3</ele>
        <time>2025-01-10T11:18:48.000Z</time>
      </trkpt>
      <trkpt lat="43.55562" lon="6.79076">
        <ele>159.2</ele>
        <time>2025-01-10T11:18:47.000Z</time>
      </trkpt>
      <trkpt lat="43.55563" lon="6.79069">
        <ele>159.1</ele>
        <time>2025-01-10T11:18:46.000Z</time>
      </trkpt>
      <trkpt lat="43.55564" lon="6.79063">
        <ele>159</ele>
        <time>2025-01-10T11:18:45.000Z</time>
      </trkpt>
      <trkpt lat="43.55565" lon="6.79057">
        <ele>158.9</ele>
        <time>2025-01-10T11:18:44.000Z</time>
      </trkpt>
      <trkpt lat="43.55566" lon="6.7905">
        <ele>158.8</ele>
        <time>2025-01-10T11:18:43.000Z</time>
      </trkpt>
      <trkpt lat="43.55567" lon="6.79044">
        <ele>158.7</ele>
        <time>2025-01-10T11:18:42.000Z</time>
      </trkpt>
      <trkpt lat="43.55567" lon="6.79037">
        <ele>158.7</ele>
        <time>2025-01-10T11:18:41.000Z</time>
      </trkpt>
      <trkpt lat="43.55568" lon="6.79031">
        <ele>158.7</ele>
        <time>2025-01-10T11:18:40.000Z</time>
      </trkpt>
      <trkpt lat="43.55569" lon="6.79025">
        <ele>158.6</ele>
        <time>2025-01-10T11:18:39.000Z</time>
      </trkpt>
      <trkpt lat="43.55571" lon="6.79019">
        <ele>158.6</ele>
        <time>2025-01-10T11:18:38.000Z</time>
      </trkpt>
      <trkpt lat="43.55573" lon="6.79014">
        <ele>158.6</ele>
        <time>2025-01-10T11:18:37.000Z</time>
      </trkpt>
      <trkpt lat="43.55576" lon="6.79008">
        <ele>158.6</ele>
        <time>2025-01-10T11:18:36.000Z</time>
      </trkpt>
      <trkpt lat="43.55579" lon="6.79003">
        <ele>158.7</ele>
        <time>2025-01-10T11:18:35.000Z</time>
      </trkpt>
      <trkpt lat="43.55583" lon="6.78998">
        <ele>158.7</ele>
        <time>2025-01-10T11:18:34.000Z</time>
      </trkpt>
      <trkpt lat="43.55587" lon="6.78992">
        <ele>158.7</ele>
        <time>2025-01-10T11:18:33.000Z</time>
      </trkpt>
      <trkpt lat="43.5559" lon="6.78987">
        <ele>158.8</ele>
        <time>2025-01-10T11:18:32.000Z</time>
      </trkpt>
      <trkpt lat="43.55593" lon="6.78981">
        <ele>158.8</ele>
        <time>2025-01-10T11:18:31.000Z</time>
      </trkpt>
      <trkpt lat="43.55596" lon="6.78975">
        <ele>158.9</ele>
        <time>2025-01-10T11:18:30.000Z</time>
      </trkpt>
      <trkpt lat="43.55599" lon="6.7897">
        <ele>158.9</ele>
        <time>2025-01-10T11:18:29.000Z</time>
      </trkpt>
      <trkpt lat="43.55603" lon="6.78964">
        <ele>158.8</ele>
        <time>2025-01-10T11:18:28.000Z</time>
      </trkpt>
      <trkpt lat="43.55606" lon="6.78958">
        <ele>158.8</ele>
        <time>2025-01-10T11:18:27.000Z</time>
      </trkpt>
      <trkpt lat="43.55609" lon="6.78952">
        <ele>158.7</ele>
        <time>2025-01-10T11:18:26.000Z</time>
      </trkpt>
      <trkpt lat="43.55611" lon="6.78948">
        <ele>158.6</ele>
        <time>2025-01-10T11:18:25.000Z</time>
      </trkpt>
      <trkpt lat="43.55615" lon="6.78941">
        <ele>158.5</ele>
        <time>2025-01-10T11:18:24.000Z</time>
      </trkpt>
      <trkpt lat="43.55619" lon="6.78936">
        <ele>158.5</ele>
        <time>2025-01-10T11:18:23.000Z</time>
      </trkpt>
      <trkpt lat="43.55622" lon="6.7893">
        <ele>158.4</ele>
        <time>2025-01-10T11:18:22.000Z</time>
      </trkpt>
      <trkpt lat="43.55626" lon="6.78925">
        <ele>158.4</ele>
        <time>2025-01-10T11:18:21.000Z</time>
      </trkpt>
      <trkpt lat="43.55629" lon="6.7892">
        <ele>158.4</ele>
        <time>2025-01-10T11:18:20.000Z</time>
      </trkpt>
      <trkpt lat="43.55633" lon="6.78915">
        <ele>158.4</ele>
        <time>2025-01-10T11:18:19.000Z</time>
      </trkpt>
      <trkpt lat="43.55636" lon="6.78911">
        <ele>158.4</ele>
        <time>2025-01-10T11:18:18.000Z</time>
      </trkpt>
      <trkpt lat="43.5564" lon="6.78907">
        <ele>158.4</ele>
        <time>2025-01-10T11:18:17.000Z</time>
      </trkpt>
      <trkpt lat="43.55643" lon="6.78904">
        <ele>158.4</ele>
        <time>2025-01-10T11:18:16.000Z</time>
      </trkpt>
      <trkpt lat="43.55647" lon="6.78902">
        <ele>158.4</ele>
        <time>2025-01-10T11:18:15.000Z</time>
      </trkpt>
      <trkpt lat="43.55652" lon="6.78899">
        <ele>158.4</ele>
        <time>2025-01-10T11:18:14.000Z</time>
      </trkpt>
      <trkpt lat="43.55656" lon="6.78897">
        <ele>158.4</ele>
        <time>2025-01-10T11:18:13.000Z</time>
      </trkpt>
      <trkpt lat="43.5566" lon="6.78895">
        <ele>158.4</ele>
        <time>2025-01-10T11:18:12.000Z</time>
      </trkpt>
      <trkpt lat="43.55664" lon="6.78892">
        <ele>158.3</ele>
        <time>2025-01-10T11:18:11.000Z</time>
      </trkpt>
      <trkpt lat="43.55668" lon="6.78889">
        <ele>158.3</ele>
        <time>2025-01-10T11:18:10.000Z</time>
      </trkpt>
      <trkpt lat="43.55672" lon="6.78886">
        <ele>158.3</ele>
        <time>2025-01-10T11:18:09.000Z</time>
      </trkpt>
      <trkpt lat="43.55676" lon="6.78883">
        <ele>158.4</ele>
        <time>2025-01-10T11:18:08.000Z</time>
      </trkpt>
      <trkpt lat="43.55681" lon="6.7888">
        <ele>158.4</ele>
        <time>2025-01-10T11:18:07.000Z</time>
      </trkpt>
      <trkpt lat="43.55685" lon="6.78877">
        <ele>158.5</ele>
        <time>2025-01-10T11:18:06.000Z</time>
      </trkpt>
      <trkpt lat="43.55689" lon="6.78873">
        <ele>158.7</ele>
        <time>2025-01-10T11:18:05.000Z</time>
      </trkpt>
      <trkpt lat="43.55693" lon="6.78869">
        <ele>158.9</ele>
        <time>2025-01-10T11:18:04.000Z</time>
      </trkpt>
      <trkpt lat="43.55696" lon="6.78865">
        <ele>159.1</ele>
        <time>2025-01-10T11:18:03.000Z</time>
      </trkpt>
      <trkpt lat="43.55699" lon="6.78861">
        <ele>159.2</ele>
        <time>2025-01-10T11:18:02.000Z</time>
      </trkpt>
      <trkpt lat="43.55701" lon="6.78856">
        <ele>159.4</ele>
        <time>2025-01-10T11:18:01.000Z</time>
      </trkpt>
      <trkpt lat="43.55702" lon="6.78853">
        <ele>159.5</ele>
        <time>2025-01-10T11:18:00.000Z</time>
      </trkpt>
      <trkpt lat="43.55703" lon="6.78849">
        <ele>159.6</ele>
        <time>2025-01-10T11:17:59.000Z</time>
      </trkpt>
      <trkpt lat="43.55705" lon="6.78846">
        <ele>159.7</ele>
        <time>2025-01-10T11:17:58.000Z</time>
      </trkpt>
      <trkpt lat="43.55706" lon="6.78842">
        <ele>159.8</ele>
        <time>2025-01-10T11:17:57.000Z</time>
      </trkpt>
      <trkpt lat="43.55708" lon="6.78837">
        <ele>159.9</ele>
        <time>2025-01-10T11:17:56.000Z</time>
      </trkpt>
      <trkpt lat="43.55711" lon="6.78832">
        <ele>160.1</ele>
        <time>2025-01-10T11:17:55.000Z</time>
      </trkpt>
      <trkpt lat="43.55714" lon="6.78826">
        <ele>160.2</ele>
        <time>2025-01-10T11:17:54.000Z</time>
      </trkpt>
      <trkpt lat="43.55716" lon="6.78822">
        <ele>160.3</ele>
        <time>2025-01-10T11:17:53.000Z</time>
      </trkpt>
      <trkpt lat="43.5572" lon="6.78818">
        <ele>160.5</ele>
        <time>2025-01-10T11:17:52.000Z</time>
      </trkpt>
      <trkpt lat="43.55724" lon="6.78813">
        <ele>160.7</ele>
        <time>2025-01-10T11:17:51.000Z</time>
      </trkpt>
      <trkpt lat="43.55728" lon="6.78808">
        <ele>161</ele>
        <time>2025-01-10T11:17:50.000Z</time>
      </trkpt>
      <trkpt lat="43.55731" lon="6.78804">
        <ele>161.3</ele>
        <time>2025-01-10T11:17:49.000Z</time>
      </trkpt>
      <trkpt lat="43.55733" lon="6.78799">
        <ele>161.5</ele>
        <time>2025-01-10T11:17:48.000Z</time>
      </trkpt>
      <trkpt lat="43.55735" lon="6.78795">
        <ele>161.7</ele>
        <time>2025-01-10T11:17:47.000Z</time>
      </trkpt>
      <trkpt lat="43.55736" lon="6.7879">
        <ele>161.9</ele>
        <time>2025-01-10T11:17:46.000Z</time>
      </trkpt>
      <trkpt lat="43.55738" lon="6.78787">
        <ele>162.1</ele>
        <time>2025-01-10T11:17:45.000Z</time>
      </trkpt>
      <trkpt lat="43.55739" lon="6.78784">
        <ele>162.3</ele>
        <time>2025-01-10T11:17:44.000Z</time>
      </trkpt>
      <trkpt lat="43.5574" lon="6.78782">
        <ele>162.4</ele>
        <time>2025-01-10T11:17:43.000Z</time>
      </trkpt>
      <trkpt lat="43.55741" lon="6.78781">
        <ele>162.4</ele>
        <time>2025-01-10T11:17:42.000Z</time>
      </trkpt>
      <trkpt lat="43.55741" lon="6.78781">
        <ele>162.4</ele>
        <time>2025-01-10T11:17:41.000Z</time>
      </trkpt>
      <trkpt lat="43.5574" lon="6.78781">
        <ele>162.5</ele>
        <time>2025-01-10T11:17:40.000Z</time>
      </trkpt>
      <trkpt lat="43.5574" lon="6.78782">
        <ele>162.5</ele>
        <time>2025-01-10T11:17:39.000Z</time>
      </trkpt>
      <trkpt lat="43.5574" lon="6.78781">
        <ele>162.5</ele>
        <time>2025-01-10T11:17:38.000Z</time>
      </trkpt>
      <trkpt lat="43.55741" lon="6.78781">
        <ele>162.5</ele>
        <time>2025-01-10T11:17:37.000Z</time>
      </trkpt>
      <trkpt lat="43.55741" lon="6.78781">
        <ele>162.5</ele>
        <time>2025-01-10T11:17:36.000Z</time>
      </trkpt>
      <trkpt lat="43.55742" lon="6.78781">
        <ele>162.6</ele>
        <time>2025-01-10T11:17:35.000Z</time>
      </trkpt>
      <trkpt lat="43.55744" lon="6.78781">
        <ele>162.7</ele>
        <time>2025-01-10T11:17:34.000Z</time>
      </trkpt>
      <trkpt lat="43.55748" lon="6.7878">
        <ele>162.9</ele>
        <time>2025-01-10T11:17:33.000Z</time>
      </trkpt>
      <trkpt lat="43.55751" lon="6.7878">
        <ele>163</ele>
        <time>2025-01-10T11:17:32.000Z</time>
      </trkpt>
      <trkpt lat="43.55756" lon="6.78779">
        <ele>163.2</ele>
        <time>2025-01-10T11:17:31.000Z</time>
      </trkpt>
      <trkpt lat="43.5576" lon="6.78778">
        <ele>163.2</ele>
        <time>2025-01-10T11:17:30.000Z</time>
      </trkpt>
      <trkpt lat="43.55764" lon="6.78777">
        <ele>163.3</ele>
        <time>2025-01-10T11:17:29.000Z</time>
      </trkpt>
      <trkpt lat="43.55768" lon="6.78776">
        <ele>163.3</ele>
        <time>2025-01-10T11:17:28.000Z</time>
      </trkpt>
      <trkpt lat="43.55773" lon="6.78774">
        <ele>163.3</ele>
        <time>2025-01-10T11:17:27.000Z</time>
      </trkpt>
      <trkpt lat="43.55778" lon="6.78772">
        <ele>163.3</ele>
        <time>2025-01-10T11:17:26.000Z</time>
      </trkpt>
      <trkpt lat="43.55783" lon="6.78771">
        <ele>163.3</ele>
        <time>2025-01-10T11:17:25.000Z</time>
      </trkpt>
      <trkpt lat="43.55787" lon="6.78769">
        <ele>163.4</ele>
        <time>2025-01-10T11:17:24.000Z</time>
      </trkpt>
      <trkpt lat="43.55791" lon="6.78767">
        <ele>163.4</ele>
        <time>2025-01-10T11:17:23.000Z</time>
      </trkpt>
      <trkpt lat="43.55797" lon="6.78766">
        <ele>163.5</ele>
        <time>2025-01-10T11:17:22.000Z</time>
      </trkpt>
      <trkpt lat="43.55802" lon="6.78766">
        <ele>163.5</ele>
        <time>2025-01-10T11:17:21.000Z</time>
      </trkpt>
      <trkpt lat="43.55806" lon="6.78766">
        <ele>163.5</ele>
        <time>2025-01-10T11:17:20.000Z</time>
      </trkpt>
      <trkpt lat="43.55811" lon="6.78767">
        <ele>163.5</ele>
        <time>2025-01-10T11:17:19.000Z</time>
      </trkpt>
      <trkpt lat="43.55815" lon="6.78768">
        <ele>163.5</ele>
        <time>2025-01-10T11:17:18.000Z</time>
      </trkpt>
      <trkpt lat="43.5582" lon="6.78771">
        <ele>163.6</ele>
        <time>2025-01-10T11:17:17.000Z</time>
      </trkpt>
      <trkpt lat="43.55824" lon="6.78774">
        <ele>163.6</ele>
        <time>2025-01-10T11:17:16.000Z</time>
      </trkpt>
      <trkpt lat="43.55828" lon="6.78778">
        <ele>163.7</ele>
        <time>2025-01-10T11:17:15.000Z</time>
      </trkpt>
      <trkpt lat="43.55833" lon="6.78781">
        <ele>163.8</ele>
        <time>2025-01-10T11:17:14.000Z</time>
      </trkpt>
      <trkpt lat="43.55838" lon="6.78784">
        <ele>164</ele>
        <time>2025-01-10T11:17:13.000Z</time>
      </trkpt>
      <trkpt lat="43.55843" lon="6.78787">
        <ele>164.2</ele>
        <time>2025-01-10T11:17:12.000Z</time>
      </trkpt>
      <trkpt lat="43.55847" lon="6.7879">
        <ele>164.4</ele>
        <time>2025-01-10T11:17:11.000Z</time>
      </trkpt>
      <trkpt lat="43.55851" lon="6.78794">
        <ele>164.5</ele>
        <time>2025-01-10T11:17:10.000Z</time>
      </trkpt>
      <trkpt lat="43.55855" lon="6.78798">
        <ele>164.5</ele>
        <time>2025-01-10T11:17:09.000Z</time>
      </trkpt>
      <trkpt lat="43.55857" lon="6.78803">
        <ele>164.5</ele>
        <time>2025-01-10T11:17:08.000Z</time>
      </trkpt>
      <trkpt lat="43.5586" lon="6.78808">
        <ele>164.4</ele>
        <time>2025-01-10T11:17:07.000Z</time>
      </trkpt>
      <trkpt lat="43.55863" lon="6.78813">
        <ele>164.3</ele>
        <time>2025-01-10T11:17:06.000Z</time>
      </trkpt>
      <trkpt lat="43.55865" lon="6.78818">
        <ele>164.1</ele>
        <time>2025-01-10T11:17:05.000Z</time>
      </trkpt>
      <trkpt lat="43.55868" lon="6.78823">
        <ele>163.9</ele>
        <time>2025-01-10T11:17:04.000Z</time>
      </trkpt>
      <trkpt lat="43.5587" lon="6.78828">
        <ele>163.6</ele>
        <time>2025-01-10T11:17:03.000Z</time>
      </trkpt>
      <trkpt lat="43.55873" lon="6.78832">
        <ele>163.3</ele>
        <time>2025-01-10T11:17:02.000Z</time>
      </trkpt>
      <trkpt lat="43.55875" lon="6.78837">
        <ele>163.1</ele>
        <time>2025-01-10T11:17:01.000Z</time>
      </trkpt>
      <trkpt lat="43.55878" lon="6.78841">
        <ele>162.8</ele>
        <time>2025-01-10T11:17:00.000Z</time>
      </trkpt>
      <trkpt lat="43.55881" lon="6.78845">
        <ele>162.4</ele>
        <time>2025-01-10T11:16:59.000Z</time>
      </trkpt>
      <trkpt lat="43.55884" lon="6.78849">
        <ele>162.1</ele>
        <time>2025-01-10T11:16:58.000Z</time>
      </trkpt>
      <trkpt lat="43.55887" lon="6.78852">
        <ele>161.7</ele>
        <time>2025-01-10T11:16:57.000Z</time>
      </trkpt>
      <trkpt lat="43.5589" lon="6.78855">
        <ele>161.3</ele>
        <time>2025-01-10T11:16:56.000Z</time>
      </trkpt>
      <trkpt lat="43.55893" lon="6.78858">
        <ele>160.9</ele>
        <time>2025-01-10T11:16:55.000Z</time>
      </trkpt>
      <trkpt lat="43.55896" lon="6.78859">
        <ele>160.5</ele>
        <time>2025-01-10T11:16:54.000Z</time>
      </trkpt>
      <trkpt lat="43.55899" lon="6.78859">
        <ele>160.1</ele>
        <time>2025-01-10T11:16:53.000Z</time>
      </trkpt>
      <trkpt lat="43.55903" lon="6.78859">
        <ele>159.6</ele>
        <time>2025-01-10T11:16:52.000Z</time>
      </trkpt>
      <trkpt lat="43.55907" lon="6.78858">
        <ele>159.1</ele>
        <time>2025-01-10T11:16:51.000Z</time>
      </trkpt>
      <trkpt lat="43.55911" lon="6.78856">
        <ele>158.5</ele>
        <time>2025-01-10T11:16:50.000Z</time>
      </trkpt>
      <trkpt lat="43.55916" lon="6.78854">
        <ele>158.1</ele>
        <time>2025-01-10T11:16:49.000Z</time>
      </trkpt>
      <trkpt lat="43.5592" lon="6.78852">
        <ele>157.8</ele>
        <time>2025-01-10T11:16:48.000Z</time>
      </trkpt>
      <trkpt lat="43.55925" lon="6.7885">
        <ele>157.6</ele>
        <time>2025-01-10T11:16:47.000Z</time>
      </trkpt>
      <trkpt lat="43.55929" lon="6.7885">
        <ele>157.5</ele>
        <time>2025-01-10T11:16:46.000Z</time>
      </trkpt>
      <trkpt lat="43.55933" lon="6.7885">
        <ele>157.5</ele>
        <time>2025-01-10T11:16:45.000Z</time>
      </trkpt>
      <trkpt lat="43.55937" lon="6.78852">
        <ele>157.7</ele>
        <time>2025-01-10T11:16:44.000Z</time>
      </trkpt>
      <trkpt lat="43.5594" lon="6.78854">
        <ele>157.8</ele>
        <time>2025-01-10T11:16:43.000Z</time>
      </trkpt>
      <trkpt lat="43.55942" lon="6.78856">
        <ele>158</ele>
        <time>2025-01-10T11:16:42.000Z</time>
      </trkpt>
      <trkpt lat="43.55945" lon="6.78858">
        <ele>158.2</ele>
        <time>2025-01-10T11:16:41.000Z</time>
      </trkpt>
      <trkpt lat="43.55947" lon="6.7886">
        <ele>158.5</ele>
        <time>2025-01-10T11:16:40.000Z</time>
      </trkpt>
      <trkpt lat="43.55951" lon="6.78863">
        <ele>158.8</ele>
        <time>2025-01-10T11:16:39.000Z</time>
      </trkpt>
      <trkpt lat="43.55955" lon="6.78865">
        <ele>159.2</ele>
        <time>2025-01-10T11:16:38.000Z</time>
      </trkpt>
      <trkpt lat="43.55959" lon="6.78867">
        <ele>159.7</ele>
        <time>2025-01-10T11:16:37.000Z</time>
      </trkpt>
      <trkpt lat="43.55964" lon="6.78868">
        <ele>160.1</ele>
        <time>2025-01-10T11:16:36.000Z</time>
      </trkpt>
      <trkpt lat="43.55969" lon="6.78869">
        <ele>160.5</ele>
        <time>2025-01-10T11:16:35.000Z</time>
      </trkpt>
      <trkpt lat="43.55974" lon="6.7887">
        <ele>161</ele>
        <time>2025-01-10T11:16:34.000Z</time>
      </trkpt>
      <trkpt lat="43.55979" lon="6.78871">
        <ele>161.4</ele>
        <time>2025-01-10T11:16:33.000Z</time>
      </trkpt>
      <trkpt lat="43.55984" lon="6.78873">
        <ele>161.7</ele>
        <time>2025-01-10T11:16:32.000Z</time>
      </trkpt>
      <trkpt lat="43.55988" lon="6.78875">
        <ele>162</ele>
        <time>2025-01-10T11:16:31.000Z</time>
      </trkpt>
      <trkpt lat="43.55993" lon="6.78878">
        <ele>162.3</ele>
        <time>2025-01-10T11:16:30.000Z</time>
      </trkpt>
      <trkpt lat="43.55997" lon="6.78881">
        <ele>162.6</ele>
        <time>2025-01-10T11:16:29.000Z</time>
      </trkpt>
      <trkpt lat="43.56001" lon="6.78884">
        <ele>162.8</ele>
        <time>2025-01-10T11:16:28.000Z</time>
      </trkpt>
      <trkpt lat="43.56004" lon="6.78887">
        <ele>163</ele>
        <time>2025-01-10T11:16:27.000Z</time>
      </trkpt>
      <trkpt lat="43.56008" lon="6.7889">
        <ele>163.3</ele>
        <time>2025-01-10T11:16:26.000Z</time>
      </trkpt>
      <trkpt lat="43.56012" lon="6.78893">
        <ele>163.5</ele>
        <time>2025-01-10T11:16:25.000Z</time>
      </trkpt>
      <trkpt lat="43.56016" lon="6.78896">
        <ele>163.7</ele>
        <time>2025-01-10T11:16:24.000Z</time>
      </trkpt>
      <trkpt lat="43.56019" lon="6.78898">
        <ele>163.9</ele>
        <time>2025-01-10T11:16:23.000Z</time>
      </trkpt>
      <trkpt lat="43.56023" lon="6.789">
        <ele>164</ele>
        <time>2025-01-10T11:16:22.000Z</time>
      </trkpt>
      <trkpt lat="43.56027" lon="6.78901">
        <ele>164.2</ele>
        <time>2025-01-10T11:16:21.000Z</time>
      </trkpt>
      <trkpt lat="43.56031" lon="6.78901">
        <ele>164.3</ele>
        <time>2025-01-10T11:16:20.000Z</time>
      </trkpt>
      <trkpt lat="43.56035" lon="6.78901">
        <ele>164.3</ele>
        <time>2025-01-10T11:16:19.000Z</time>
      </trkpt>
      <trkpt lat="43.56039" lon="6.789">
        <ele>164.2</ele>
        <time>2025-01-10T11:16:18.000Z</time>
      </trkpt>
      <trkpt lat="43.56043" lon="6.78898">
        <ele>164.1</ele>
        <time>2025-01-10T11:16:17.000Z</time>
      </trkpt>
      <trkpt lat="43.56048" lon="6.78896">
        <ele>163.9</ele>
        <time>2025-01-10T11:16:16.000Z</time>
      </trkpt>
      <trkpt lat="43.56052" lon="6.78894">
        <ele>163.7</ele>
        <time>2025-01-10T11:16:15.000Z</time>
      </trkpt>
      <trkpt lat="43.56057" lon="6.78891">
        <ele>163.5</ele>
        <time>2025-01-10T11:16:14.000Z</time>
      </trkpt>
      <trkpt lat="43.56061" lon="6.78888">
        <ele>163.3</ele>
        <time>2025-01-10T11:16:13.000Z</time>
      </trkpt>
      <trkpt lat="43.56065" lon="6.78886">
        <ele>163.1</ele>
        <time>2025-01-10T11:16:12.000Z</time>
      </trkpt>
      <trkpt lat="43.5607" lon="6.78885">
        <ele>162.9</ele>
        <time>2025-01-10T11:16:11.000Z</time>
      </trkpt>
      <trkpt lat="43.56074" lon="6.78887">
        <ele>162.7</ele>
        <time>2025-01-10T11:16:10.000Z</time>
      </trkpt>
      <trkpt lat="43.56078" lon="6.7889">
        <ele>162.5</ele>
        <time>2025-01-10T11:16:09.000Z</time>
      </trkpt>
      <trkpt lat="43.56082" lon="6.78894">
        <ele>162.3</ele>
        <time>2025-01-10T11:16:08.000Z</time>
      </trkpt>
      <trkpt lat="43.56084" lon="6.789">
        <ele>162.1</ele>
        <time>2025-01-10T11:16:07.000Z</time>
      </trkpt>
      <trkpt lat="43.56086" lon="6.78906">
        <ele>162.1</ele>
        <time>2025-01-10T11:16:06.000Z</time>
      </trkpt>
      <trkpt lat="43.56089" lon="6.78913">
        <ele>162</ele>
        <time>2025-01-10T11:16:05.000Z</time>
      </trkpt>
      <trkpt lat="43.56091" lon="6.78919">
        <ele>162</ele>
        <time>2025-01-10T11:16:04.000Z</time>
      </trkpt>
      <trkpt lat="43.56094" lon="6.78925">
        <ele>162.1</ele>
        <time>2025-01-10T11:16:03.000Z</time>
      </trkpt>
      <trkpt lat="43.56098" lon="6.7893">
        <ele>162.1</ele>
        <time>2025-01-10T11:16:02.000Z</time>
      </trkpt>
      <trkpt lat="43.56101" lon="6.78936">
        <ele>162.1</ele>
        <time>2025-01-10T11:16:01.000Z</time>
      </trkpt>
      <trkpt lat="43.56104" lon="6.78941">
        <ele>162.2</ele>
        <time>2025-01-10T11:16:00.000Z</time>
      </trkpt>
      <trkpt lat="43.56107" lon="6.78946">
        <ele>162.2</ele>
        <time>2025-01-10T11:15:59.000Z</time>
      </trkpt>
      <trkpt lat="43.56111" lon="6.78952">
        <ele>162.2</ele>
        <time>2025-01-10T11:15:58.000Z</time>
      </trkpt>
      <trkpt lat="43.56114" lon="6.78957">
        <ele>162.2</ele>
        <time>2025-01-10T11:15:57.000Z</time>
      </trkpt>
      <trkpt lat="43.56118" lon="6.78962">
        <ele>162.1</ele>
        <time>2025-01-10T11:15:56.000Z</time>
      </trkpt>
      <trkpt lat="43.56121" lon="6.78967">
        <ele>162.1</ele>
        <time>2025-01-10T11:15:55.000Z</time>
      </trkpt>
      <trkpt lat="43.56124" lon="6.78973">
        <ele>162</ele>
        <time>2025-01-10T11:15:54.000Z</time>
      </trkpt>
      <trkpt lat="43.56127" lon="6.78978">
        <ele>162</ele>
        <time>2025-01-10T11:15:53.000Z</time>
      </trkpt>
      <trkpt lat="43.56129" lon="6.78983">
        <ele>161.9</ele>
        <time>2025-01-10T11:15:52.000Z</time>
      </trkpt>
      <trkpt lat="43.56132" lon="6.78988">
        <ele>161.7</ele>
        <time>2025-01-10T11:15:51.000Z</time>
      </trkpt>
      <trkpt lat="43.56134" lon="6.78993">
        <ele>161.6</ele>
        <time>2025-01-10T11:15:50.000Z</time>
      </trkpt>
      <trkpt lat="43.56135" lon="6.78999">
        <ele>161.4</ele>
        <time>2025-01-10T11:15:49.000Z</time>
      </trkpt>
      <trkpt lat="43.56136" lon="6.79005">
        <ele>161.2</ele>
        <time>2025-01-10T11:15:48.000Z</time>
      </trkpt>
      <trkpt lat="43.56137" lon="6.7901">
        <ele>161</ele>
        <time>2025-01-10T11:15:47.000Z</time>
      </trkpt>
      <trkpt lat="43.56137" lon="6.79015">
        <ele>160.7</ele>
        <time>2025-01-10T11:15:46.000Z</time>
      </trkpt>
      <trkpt lat="43.56138" lon="6.79021">
        <ele>160.4</ele>
        <time>2025-01-10T11:15:45.000Z</time>
      </trkpt>
      <trkpt lat="43.56139" lon="6.79026">
        <ele>160.1</ele>
        <time>2025-01-10T11:15:44.000Z</time>
      </trkpt>
      <trkpt lat="43.56139" lon="6.79032">
        <ele>159.7</ele>
        <time>2025-01-10T11:15:43.000Z</time>
      </trkpt>
      <trkpt lat="43.56139" lon="6.79038">
        <ele>159.3</ele>
        <time>2025-01-10T11:15:42.000Z</time>
      </trkpt>
      <trkpt lat="43.5614" lon="6.79044">
        <ele>158.9</ele>
        <time>2025-01-10T11:15:41.000Z</time>
      </trkpt>
      <trkpt lat="43.56141" lon="6.7905">
        <ele>158.5</ele>
        <time>2025-01-10T11:15:40.000Z</time>
      </trkpt>
      <trkpt lat="43.56142" lon="6.79055">
        <ele>158.2</ele>
        <time>2025-01-10T11:15:39.000Z</time>
      </trkpt>
      <trkpt lat="43.56143" lon="6.79059">
        <ele>158</ele>
        <time>2025-01-10T11:15:38.000Z</time>
      </trkpt>
      <trkpt lat="43.56146" lon="6.79064">
        <ele>157.7</ele>
        <time>2025-01-10T11:15:37.000Z</time>
      </trkpt>
      <trkpt lat="43.56148" lon="6.79068">
        <ele>157.5</ele>
        <time>2025-01-10T11:15:36.000Z</time>
      </trkpt>
      <trkpt lat="43.5615" lon="6.79073">
        <ele>157.3</ele>
        <time>2025-01-10T11:15:35.000Z</time>
      </trkpt>
      <trkpt lat="43.56153" lon="6.79077">
        <ele>157.1</ele>
        <time>2025-01-10T11:15:34.000Z</time>
      </trkpt>
      <trkpt lat="43.56157" lon="6.7908">
        <ele>157</ele>
        <time>2025-01-10T11:15:33.000Z</time>
      </trkpt>
      <trkpt lat="43.56161" lon="6.79082">
        <ele>156.9</ele>
        <time>2025-01-10T11:15:32.000Z</time>
      </trkpt>
      <trkpt lat="43.56165" lon="6.79084">
        <ele>156.9</ele>
        <time>2025-01-10T11:15:31.000Z</time>
      </trkpt>
      <trkpt lat="43.56168" lon="6.79087">
        <ele>156.9</ele>
        <time>2025-01-10T11:15:30.000Z</time>
      </trkpt>
      <trkpt lat="43.56171" lon="6.79089">
        <ele>156.9</ele>
        <time>2025-01-10T11:15:29.000Z</time>
      </trkpt>
      <trkpt lat="43.56174" lon="6.79091">
        <ele>156.9</ele>
        <time>2025-01-10T11:15:28.000Z</time>
      </trkpt>
      <trkpt lat="43.56174" lon="6.79092">
        <ele>156.9</ele>
        <time>2025-01-10T11:15:27.000Z</time>
      </trkpt>
      <trkpt lat="43.56174" lon="6.79092">
        <ele>156.9</ele>
        <time>2025-01-10T11:15:26.000Z</time>
      </trkpt>
      <trkpt lat="43.56174" lon="6.79092">
        <ele>156.9</ele>
        <time>2025-01-10T11:15:25.000Z</time>
      </trkpt>
      <trkpt lat="43.56174" lon="6.79092">
        <ele>156.9</ele>
        <time>2025-01-10T11:15:24.000Z</time>
      </trkpt>
      <trkpt lat="43.56174" lon="6.79092">
        <ele>156.9</ele>
        <time>2025-01-10T11:15:23.000Z</time>
      </trkpt>
      <trkpt lat="43.56174" lon="6.79092">
        <ele>156.9</ele>
        <time>2025-01-10T11:15:22.000Z</time>
      </trkpt>
      <trkpt lat="43.56174" lon="6.79092">
        <ele>156.9</ele>
        <time>2025-01-10T11:15:21.000Z</time>
      </trkpt>
      <trkpt lat="43.56174" lon="6.79092">
        <ele>156.9</ele>
        <time>2025-01-10T11:15:20.000Z</time>
      </trkpt>
      <trkpt lat="43.56174" lon="6.79092">
        <ele>156.9</ele>
        <time>2025-01-10T11:15:19.000Z</time>
      </trkpt>
      <trkpt lat="43.56174" lon="6.79092">
        <ele>156.9</ele>
        <time>2025-01-10T11:15:18.000Z</time>
      </trkpt>
      <trkpt lat="43.56174" lon="6.79092">
        <ele>156.9</ele>
        <time>2025-01-10T11:15:17.000Z</time>
      </trkpt>
      <trkpt lat="43.56174" lon="6.79092">
        <ele>156.9</ele>
        <time>2025-01-10T11:15:16.000Z</time>
      </trkpt>
      <trkpt lat="43.56174" lon="6.79093">
        <ele>156.9</ele>
        <time>2025-01-10T11:15:15.000Z</time>
      </trkpt>
      <trkpt lat="43.56174" lon="6.79093">
        <ele>156.9</ele>
        <time>2025-01-10T11:15:14.000Z</time>
      </trkpt>
      <trkpt lat="43.56173" lon="6.79093">
        <ele>156.9</ele>
        <time>2025-01-10T11:15:13.000Z</time>
      </trkpt>
      <trkpt lat="43.56172" lon="6.79093">
        <ele>156.9</ele>
        <time>2025-01-10T11:15:12.000Z</time>
      </trkpt>
      <trkpt lat="43.56171" lon="6.79093">
        <ele>156.9</ele>
        <time>2025-01-10T11:15:11.000Z</time>
      </trkpt>
      <trkpt lat="43.56172" lon="6.79094">
        <ele>156.9</ele>
        <time>2025-01-10T11:15:10.000Z</time>
      </trkpt>
      <trkpt lat="43.56173" lon="6.79096">
        <ele>156.9</ele>
        <time>2025-01-10T11:15:09.000Z</time>
      </trkpt>
      <trkpt lat="43.56173" lon="6.79096">
        <ele>156.9</ele>
        <time>2025-01-10T11:15:08.000Z</time>
      </trkpt>
      <trkpt lat="43.56174" lon="6.79096">
        <ele>156.9</ele>
        <time>2025-01-10T11:15:07.000Z</time>
      </trkpt>
      <trkpt lat="43.56174" lon="6.79097">
        <ele>156.9</ele>
        <time>2025-01-10T11:15:06.000Z</time>
      </trkpt>
      <trkpt lat="43.56174" lon="6.79097">
        <ele>156.9</ele>
        <time>2025-01-10T11:15:05.000Z</time>
      </trkpt>
      <trkpt lat="43.56175" lon="6.79097">
        <ele>156.9</ele>
        <time>2025-01-10T11:15:04.000Z</time>
      </trkpt>
      <trkpt lat="43.56175" lon="6.79098">
        <ele>156.9</ele>
        <time>2025-01-10T11:15:03.000Z</time>
      </trkpt>
      <trkpt lat="43.56176" lon="6.79097">
        <ele>156.9</ele>
        <time>2025-01-10T11:15:02.000Z</time>
      </trkpt>
      <trkpt lat="43.56177" lon="6.79096">
        <ele>157</ele>
        <time>2025-01-10T11:15:01.000Z</time>
      </trkpt>
      <trkpt lat="43.56178" lon="6.79094">
        <ele>157.1</ele>
        <time>2025-01-10T11:15:00.000Z</time>
      </trkpt>
      <trkpt lat="43.56178" lon="6.79091">
        <ele>157.2</ele>
        <time>2025-01-10T11:14:59.000Z</time>
      </trkpt>
      <trkpt lat="43.56179" lon="6.79088">
        <ele>157.4</ele>
        <time>2025-01-10T11:14:58.000Z</time>
      </trkpt>
      <trkpt lat="43.5618" lon="6.79084">
        <ele>157.5</ele>
        <time>2025-01-10T11:14:57.000Z</time>
      </trkpt>
      <trkpt lat="43.56181" lon="6.79078">
        <ele>157.7</ele>
        <time>2025-01-10T11:14:56.000Z</time>
      </trkpt>
      <trkpt lat="43.56182" lon="6.79072">
        <ele>158</ele>
        <time>2025-01-10T11:14:55.000Z</time>
      </trkpt>
      <trkpt lat="43.56184" lon="6.79066">
        <ele>158.3</ele>
        <time>2025-01-10T11:14:54.000Z</time>
      </trkpt>
      <trkpt lat="43.56186" lon="6.7906">
        <ele>158.6</ele>
        <time>2025-01-10T11:14:53.000Z</time>
      </trkpt>
      <trkpt lat="43.56188" lon="6.79054">
        <ele>158.8</ele>
        <time>2025-01-10T11:14:52.000Z</time>
      </trkpt>
      <trkpt lat="43.5619" lon="6.79048">
        <ele>159.1</ele>
        <time>2025-01-10T11:14:51.000Z</time>
      </trkpt>
      <trkpt lat="43.56192" lon="6.79041">
        <ele>159.4</ele>
        <time>2025-01-10T11:14:50.000Z</time>
      </trkpt>
      <trkpt lat="43.56194" lon="6.79034">
        <ele>159.8</ele>
        <time>2025-01-10T11:14:49.000Z</time>
      </trkpt>
      <trkpt lat="43.56195" lon="6.79027">
        <ele>160.2</ele>
        <time>2025-01-10T11:14:48.000Z</time>
      </trkpt>
      <trkpt lat="43.56196" lon="6.7902">
        <ele>160.6</ele>
        <time>2025-01-10T11:14:47.000Z</time>
      </trkpt>
      <trkpt lat="43.56196" lon="6.79012">
        <ele>161</ele>
        <time>2025-01-10T11:14:46.000Z</time>
      </trkpt>
      <trkpt lat="43.56196" lon="6.79005">
        <ele>161.5</ele>
        <time>2025-01-10T11:14:45.000Z</time>
      </trkpt>
      <trkpt lat="43.56196" lon="6.78999">
        <ele>162</ele>
        <time>2025-01-10T11:14:44.000Z</time>
      </trkpt>
      <trkpt lat="43.56197" lon="6.78992">
        <ele>162.5</ele>
        <time>2025-01-10T11:14:43.000Z</time>
      </trkpt>
      <trkpt lat="43.56197" lon="6.78986">
        <ele>162.9</ele>
        <time>2025-01-10T11:14:42.000Z</time>
      </trkpt>
      <trkpt lat="43.56195" lon="6.78978">
        <ele>163.6</ele>
        <time>2025-01-10T11:14:41.000Z</time>
      </trkpt>
      <trkpt lat="43.56194" lon="6.78969">
        <ele>164.2</ele>
        <time>2025-01-10T11:14:40.000Z</time>
      </trkpt>
      <trkpt lat="43.56193" lon="6.7896">
        <ele>164.9</ele>
        <time>2025-01-10T11:14:39.000Z</time>
      </trkpt>
      <trkpt lat="43.56192" lon="6.78951">
        <ele>165.5</ele>
        <time>2025-01-10T11:14:38.000Z</time>
      </trkpt>
      <trkpt lat="43.5619" lon="6.78941">
        <ele>166.1</ele>
        <time>2025-01-10T11:14:37.000Z</time>
      </trkpt>
      <trkpt lat="43.56189" lon="6.78932">
        <ele>166.6</ele>
        <time>2025-01-10T11:14:36.000Z</time>
      </trkpt>
      <trkpt lat="43.56187" lon="6.78922">
        <ele>167</ele>
        <time>2025-01-10T11:14:35.000Z</time>
      </trkpt>
      <trkpt lat="43.56187" lon="6.78912">
        <ele>167.5</ele>
        <time>2025-01-10T11:14:34.000Z</time>
      </trkpt>
      <trkpt lat="43.56186" lon="6.78903">
        <ele>167.9</ele>
        <time>2025-01-10T11:14:33.000Z</time>
      </trkpt>
      <trkpt lat="43.56186" lon="6.78893">
        <ele>168.3</ele>
        <time>2025-01-10T11:14:32.000Z</time>
      </trkpt>
      <trkpt lat="43.56186" lon="6.78884">
        <ele>168.7</ele>
        <time>2025-01-10T11:14:31.000Z</time>
      </trkpt>
      <trkpt lat="43.56186" lon="6.78874">
        <ele>169.2</ele>
        <time>2025-01-10T11:14:30.000Z</time>
      </trkpt>
      <trkpt lat="43.56185" lon="6.78865">
        <ele>169.7</ele>
        <time>2025-01-10T11:14:29.000Z</time>
      </trkpt>
      <trkpt lat="43.56185" lon="6.78855">
        <ele>170.1</ele>
        <time>2025-01-10T11:14:28.000Z</time>
      </trkpt>
      <trkpt lat="43.56186" lon="6.78847">
        <ele>170.6</ele>
        <time>2025-01-10T11:14:27.000Z</time>
      </trkpt>
      <trkpt lat="43.56187" lon="6.78837">
        <ele>171</ele>
        <time>2025-01-10T11:14:26.000Z</time>
      </trkpt>
      <trkpt lat="43.56189" lon="6.78828">
        <ele>171.3</ele>
        <time>2025-01-10T11:14:25.000Z</time>
      </trkpt>
      <trkpt lat="43.56191" lon="6.78819">
        <ele>171.7</ele>
        <time>2025-01-10T11:14:24.000Z</time>
      </trkpt>
      <trkpt lat="43.56193" lon="6.7881">
        <ele>172</ele>
        <time>2025-01-10T11:14:23.000Z</time>
      </trkpt>
      <trkpt lat="43.56196" lon="6.78801">
        <ele>172.3</ele>
        <time>2025-01-10T11:14:22.000Z</time>
      </trkpt>
      <trkpt lat="43.56198" lon="6.78792">
        <ele>172.6</ele>
        <time>2025-01-10T11:14:21.000Z</time>
      </trkpt>
      <trkpt lat="43.56201" lon="6.78784">
        <ele>172.9</ele>
        <time>2025-01-10T11:14:20.000Z</time>
      </trkpt>
      <trkpt lat="43.56204" lon="6.78775">
        <ele>173.2</ele>
        <time>2025-01-10T11:14:19.000Z</time>
      </trkpt>
      <trkpt lat="43.56207" lon="6.78766">
        <ele>173.5</ele>
        <time>2025-01-10T11:14:18.000Z</time>
      </trkpt>
      <trkpt lat="43.56211" lon="6.78757">
        <ele>173.9</ele>
        <time>2025-01-10T11:14:17.000Z</time>
      </trkpt>
      <trkpt lat="43.56214" lon="6.78748">
        <ele>174.2</ele>
        <time>2025-01-10T11:14:16.000Z</time>
      </trkpt>
      <trkpt lat="43.56217" lon="6.78738">
        <ele>174.6</ele>
        <time>2025-01-10T11:14:15.000Z</time>
      </trkpt>
      <trkpt lat="43.5622" lon="6.78729">
        <ele>175.1</ele>
        <time>2025-01-10T11:14:14.000Z</time>
      </trkpt>
      <trkpt lat="43.56221" lon="6.78719">
        <ele>175.5</ele>
        <time>2025-01-10T11:14:13.000Z</time>
      </trkpt>
      <trkpt lat="43.56223" lon="6.78709">
        <ele>176</ele>
        <time>2025-01-10T11:14:12.000Z</time>
      </trkpt>
      <trkpt lat="43.56224" lon="6.78699">
        <ele>176.5</ele>
        <time>2025-01-10T11:14:11.000Z</time>
      </trkpt>
      <trkpt lat="43.56226" lon="6.78689">
        <ele>177</ele>
        <time>2025-01-10T11:14:10.000Z</time>
      </trkpt>
      <trkpt lat="43.56228" lon="6.7868">
        <ele>177.6</ele>
        <time>2025-01-10T11:14:09.000Z</time>
      </trkpt>
      <trkpt lat="43.56231" lon="6.78671">
        <ele>178.1</ele>
        <time>2025-01-10T11:14:08.000Z</time>
      </trkpt>
      <trkpt lat="43.56234" lon="6.78663">
        <ele>178.6</ele>
        <time>2025-01-10T11:14:07.000Z</time>
      </trkpt>
      <trkpt lat="43.56236" lon="6.78654">
        <ele>179.1</ele>
        <time>2025-01-10T11:14:06.000Z</time>
      </trkpt>
      <trkpt lat="43.56239" lon="6.78645">
        <ele>179.7</ele>
        <time>2025-01-10T11:14:05.000Z</time>
      </trkpt>
      <trkpt lat="43.56242" lon="6.78635">
        <ele>180.3</ele>
        <time>2025-01-10T11:14:04.000Z</time>
      </trkpt>
      <trkpt lat="43.56245" lon="6.78624">
        <ele>180.9</ele>
        <time>2025-01-10T11:14:03.000Z</time>
      </trkpt>
      <trkpt lat="43.56247" lon="6.78614">
        <ele>181.5</ele>
        <time>2025-01-10T11:14:02.000Z</time>
      </trkpt>
      <trkpt lat="43.5625" lon="6.78604">
        <ele>182.1</ele>
        <time>2025-01-10T11:14:01.000Z</time>
      </trkpt>
      <trkpt lat="43.56251" lon="6.78594">
        <ele>182.7</ele>
        <time>2025-01-10T11:14:00.000Z</time>
      </trkpt>
      <trkpt lat="43.56253" lon="6.78584">
        <ele>183.3</ele>
        <time>2025-01-10T11:13:59.000Z</time>
      </trkpt>
      <trkpt lat="43.56254" lon="6.78574">
        <ele>184</ele>
        <time>2025-01-10T11:13:58.000Z</time>
      </trkpt>
      <trkpt lat="43.56256" lon="6.78565">
        <ele>184.7</ele>
        <time>2025-01-10T11:13:57.000Z</time>
      </trkpt>
      <trkpt lat="43.56258" lon="6.78556">
        <ele>185.4</ele>
        <time>2025-01-10T11:13:56.000Z</time>
      </trkpt>
      <trkpt lat="43.5626" lon="6.78549">
        <ele>186</ele>
        <time>2025-01-10T11:13:55.000Z</time>
      </trkpt>
      <trkpt lat="43.56262" lon="6.7854">
        <ele>186.7</ele>
        <time>2025-01-10T11:13:54.000Z</time>
      </trkpt>
      <trkpt lat="43.56263" lon="6.78532">
        <ele>187.1</ele>
        <time>2025-01-10T11:13:53.000Z</time>
      </trkpt>
      <trkpt lat="43.56264" lon="6.78524">
        <ele>187.5</ele>
        <time>2025-01-10T11:13:52.000Z</time>
      </trkpt>
      <trkpt lat="43.56265" lon="6.78517">
        <ele>187.7</ele>
        <time>2025-01-10T11:13:51.000Z</time>
      </trkpt>
      <trkpt lat="43.56267" lon="6.78511">
        <ele>187.9</ele>
        <time>2025-01-10T11:13:50.000Z</time>
      </trkpt>
      <trkpt lat="43.56269" lon="6.78505">
        <ele>188</ele>
        <time>2025-01-10T11:13:49.000Z</time>
      </trkpt>
      <trkpt lat="43.56272" lon="6.78499">
        <ele>188.1</ele>
        <time>2025-01-10T11:13:48.000Z</time>
      </trkpt>
      <trkpt lat="43.56275" lon="6.78493">
        <ele>188.1</ele>
        <time>2025-01-10T11:13:47.000Z</time>
      </trkpt>
      <trkpt lat="43.56279" lon="6.78486">
        <ele>188</ele>
        <time>2025-01-10T11:13:46.000Z</time>
      </trkpt>
      <trkpt lat="43.56282" lon="6.7848">
        <ele>188</ele>
        <time>2025-01-10T11:13:45.000Z</time>
      </trkpt>
      <trkpt lat="43.56286" lon="6.78473">
        <ele>188</ele>
        <time>2025-01-10T11:13:44.000Z</time>
      </trkpt>
      <trkpt lat="43.56291" lon="6.78467">
        <ele>188.1</ele>
        <time>2025-01-10T11:13:43.000Z</time>
      </trkpt>
      <trkpt lat="43.56297" lon="6.78461">
        <ele>188.2</ele>
        <time>2025-01-10T11:13:42.000Z</time>
      </trkpt>
      <trkpt lat="43.56304" lon="6.78457">
        <ele>188.5</ele>
        <time>2025-01-10T11:13:41.000Z</time>
      </trkpt>
      <trkpt lat="43.56311" lon="6.78454">
        <ele>189</ele>
        <time>2025-01-10T11:13:40.000Z</time>
      </trkpt>
      <trkpt lat="43.56319" lon="6.78452">
        <ele>189.7</ele>
        <time>2025-01-10T11:13:39.000Z</time>
      </trkpt>
      <trkpt lat="43.56325" lon="6.78449">
        <ele>190.4</ele>
        <time>2025-01-10T11:13:38.000Z</time>
      </trkpt>
      <trkpt lat="43.56331" lon="6.78445">
        <ele>191.2</ele>
        <time>2025-01-10T11:13:37.000Z</time>
      </trkpt>
      <trkpt lat="43.56336" lon="6.78441">
        <ele>191.8</ele>
        <time>2025-01-10T11:13:36.000Z</time>
      </trkpt>
      <trkpt lat="43.56341" lon="6.78433">
        <ele>192.6</ele>
        <time>2025-01-10T11:13:35.000Z</time>
      </trkpt>
      <trkpt lat="43.56344" lon="6.78425">
        <ele>193.1</ele>
        <time>2025-01-10T11:13:34.000Z</time>
      </trkpt>
      <trkpt lat="43.56347" lon="6.78418">
        <ele>193.5</ele>
        <time>2025-01-10T11:13:33.000Z</time>
      </trkpt>
      <trkpt lat="43.5635" lon="6.7841">
        <ele>193.8</ele>
        <time>2025-01-10T11:13:32.000Z</time>
      </trkpt>
      <trkpt lat="43.56352" lon="6.78404">
        <ele>194.1</ele>
        <time>2025-01-10T11:13:31.000Z</time>
      </trkpt>
      <trkpt lat="43.56357" lon="6.78397">
        <ele>194.4</ele>
        <time>2025-01-10T11:13:30.000Z</time>
      </trkpt>
      <trkpt lat="43.56363" lon="6.7839">
        <ele>194.8</ele>
        <time>2025-01-10T11:13:29.000Z</time>
      </trkpt>
      <trkpt lat="43.56369" lon="6.78384">
        <ele>195.1</ele>
        <time>2025-01-10T11:13:28.000Z</time>
      </trkpt>
      <trkpt lat="43.56374" lon="6.78376">
        <ele>195.4</ele>
        <time>2025-01-10T11:13:27.000Z</time>
      </trkpt>
      <trkpt lat="43.56378" lon="6.78369">
        <ele>195.6</ele>
        <time>2025-01-10T11:13:26.000Z</time>
      </trkpt>
      <trkpt lat="43.56383" lon="6.7836">
        <ele>196</ele>
        <time>2025-01-10T11:13:25.000Z</time>
      </trkpt>
      <trkpt lat="43.56389" lon="6.78349">
        <ele>196.5</ele>
        <time>2025-01-10T11:13:24.000Z</time>
      </trkpt>
      <trkpt lat="43.56394" lon="6.7834">
        <ele>197.1</ele>
        <time>2025-01-10T11:13:23.000Z</time>
      </trkpt>
      <trkpt lat="43.564" lon="6.78331">
        <ele>197.7</ele>
        <time>2025-01-10T11:13:22.000Z</time>
      </trkpt>
      <trkpt lat="43.56405" lon="6.78325">
        <ele>198.3</ele>
        <time>2025-01-10T11:13:21.000Z</time>
      </trkpt>
      <trkpt lat="43.56411" lon="6.78315">
        <ele>199.2</ele>
        <time>2025-01-10T11:13:20.000Z</time>
      </trkpt>
      <trkpt lat="43.56415" lon="6.78309">
        <ele>199.7</ele>
        <time>2025-01-10T11:13:19.000Z</time>
      </trkpt>
      <trkpt lat="43.56421" lon="6.78301">
        <ele>200.4</ele>
        <time>2025-01-10T11:13:18.000Z</time>
      </trkpt>
      <trkpt lat="43.56426" lon="6.78293">
        <ele>200.9</ele>
        <time>2025-01-10T11:13:17.000Z</time>
      </trkpt>
      <trkpt lat="43.5643" lon="6.78288">
        <ele>201.4</ele>
        <time>2025-01-10T11:13:16.000Z</time>
      </trkpt>
      <trkpt lat="43.56434" lon="6.78281">
        <ele>201.9</ele>
        <time>2025-01-10T11:13:15.000Z</time>
      </trkpt>
      <trkpt lat="43.56438" lon="6.78272">
        <ele>202.6</ele>
        <time>2025-01-10T11:13:14.000Z</time>
      </trkpt>
      <trkpt lat="43.56442" lon="6.78265">
        <ele>203.1</ele>
        <time>2025-01-10T11:13:13.000Z</time>
      </trkpt>
      <trkpt lat="43.56445" lon="6.78258">
        <ele>203.6</ele>
        <time>2025-01-10T11:13:12.000Z</time>
      </trkpt>
      <trkpt lat="43.56447" lon="6.78253">
        <ele>204</ele>
        <time>2025-01-10T11:13:11.000Z</time>
      </trkpt>
      <trkpt lat="43.5645" lon="6.78246">
        <ele>204.4</ele>
        <time>2025-01-10T11:13:10.000Z</time>
      </trkpt>
      <trkpt lat="43.56452" lon="6.78239">
        <ele>204.8</ele>
        <time>2025-01-10T11:13:09.000Z</time>
      </trkpt>
      <trkpt lat="43.56452" lon="6.78233">
        <ele>205</ele>
        <time>2025-01-10T11:13:08.000Z</time>
      </trkpt>
      <trkpt lat="43.56452" lon="6.78227">
        <ele>205.3</ele>
        <time>2025-01-10T11:13:07.000Z</time>
      </trkpt>
      <trkpt lat="43.56452" lon="6.78222">
        <ele>205.4</ele>
        <time>2025-01-10T11:13:06.000Z</time>
      </trkpt>
      <trkpt lat="43.56451" lon="6.78217">
        <ele>205.5</ele>
        <time>2025-01-10T11:13:05.000Z</time>
      </trkpt>
      <trkpt lat="43.5645" lon="6.78212">
        <ele>205.6</ele>
        <time>2025-01-10T11:13:04.000Z</time>
      </trkpt>
      <trkpt lat="43.56449" lon="6.78206">
        <ele>205.7</ele>
        <time>2025-01-10T11:13:03.000Z</time>
      </trkpt>
      <trkpt lat="43.56448" lon="6.78201">
        <ele>205.8</ele>
        <time>2025-01-10T11:13:02.000Z</time>
      </trkpt>
      <trkpt lat="43.56446" lon="6.78196">
        <ele>205.9</ele>
        <time>2025-01-10T11:13:01.000Z</time>
      </trkpt>
      <trkpt lat="43.56444" lon="6.78189">
        <ele>206.1</ele>
        <time>2025-01-10T11:13:00.000Z</time>
      </trkpt>
      <trkpt lat="43.56442" lon="6.78182">
        <ele>206.3</ele>
        <time>2025-01-10T11:12:59.000Z</time>
      </trkpt>
      <trkpt lat="43.56439" lon="6.78175">
        <ele>206.7</ele>
        <time>2025-01-10T11:12:58.000Z</time>
      </trkpt>
      <trkpt lat="43.56438" lon="6.7817">
        <ele>207</ele>
        <time>2025-01-10T11:12:57.000Z</time>
      </trkpt>
      <trkpt lat="43.56437" lon="6.78165">
        <ele>207.2</ele>
        <time>2025-01-10T11:12:56.000Z</time>
      </trkpt>
      <trkpt lat="43.56438" lon="6.78159">
        <ele>207.5</ele>
        <time>2025-01-10T11:12:55.000Z</time>
      </trkpt>
      <trkpt lat="43.56438" lon="6.78154">
        <ele>207.8</ele>
        <time>2025-01-10T11:12:54.000Z</time>
      </trkpt>
      <trkpt lat="43.56439" lon="6.78148">
        <ele>208.1</ele>
        <time>2025-01-10T11:12:53.000Z</time>
      </trkpt>
      <trkpt lat="43.56439" lon="6.78144">
        <ele>208.4</ele>
        <time>2025-01-10T11:12:52.000Z</time>
      </trkpt>
      <trkpt lat="43.5644" lon="6.7814">
        <ele>208.6</ele>
        <time>2025-01-10T11:12:51.000Z</time>
      </trkpt>
      <trkpt lat="43.56438" lon="6.78137">
        <ele>208.9</ele>
        <time>2025-01-10T11:12:50.000Z</time>
      </trkpt>
      <trkpt lat="43.56437" lon="6.78135">
        <ele>209.1</ele>
        <time>2025-01-10T11:12:49.000Z</time>
      </trkpt>
      <trkpt lat="43.56433" lon="6.78133">
        <ele>209.5</ele>
        <time>2025-01-10T11:12:48.000Z</time>
      </trkpt>
      <trkpt lat="43.5643" lon="6.78132">
        <ele>209.9</ele>
        <time>2025-01-10T11:12:47.000Z</time>
      </trkpt>
      <trkpt lat="43.56426" lon="6.78134">
        <ele>210.3</ele>
        <time>2025-01-10T11:12:46.000Z</time>
      </trkpt>
      <trkpt lat="43.56423" lon="6.78136">
        <ele>210.8</ele>
        <time>2025-01-10T11:12:45.000Z</time>
      </trkpt>
      <trkpt lat="43.56418" lon="6.7814">
        <ele>211.3</ele>
        <time>2025-01-10T11:12:44.000Z</time>
      </trkpt>
      <trkpt lat="43.56414" lon="6.78143">
        <ele>211.8</ele>
        <time>2025-01-10T11:12:43.000Z</time>
      </trkpt>
      <trkpt lat="43.5641" lon="6.78146">
        <ele>212.3</ele>
        <time>2025-01-10T11:12:42.000Z</time>
      </trkpt>
      <trkpt lat="43.56405" lon="6.7815">
        <ele>212.9</ele>
        <time>2025-01-10T11:12:41.000Z</time>
      </trkpt>
      <trkpt lat="43.56402" lon="6.78151">
        <ele>213.4</ele>
        <time>2025-01-10T11:12:40.000Z</time>
      </trkpt>
      <trkpt lat="43.56398" lon="6.78153">
        <ele>213.9</ele>
        <time>2025-01-10T11:12:39.000Z</time>
      </trkpt>
      <trkpt lat="43.56393" lon="6.78154">
        <ele>214.5</ele>
        <time>2025-01-10T11:12:38.000Z</time>
      </trkpt>
      <trkpt lat="43.5639" lon="6.78155">
        <ele>215.1</ele>
        <time>2025-01-10T11:12:37.000Z</time>
      </trkpt>
      <trkpt lat="43.56386" lon="6.78153">
        <ele>215.7</ele>
        <time>2025-01-10T11:12:36.000Z</time>
      </trkpt>
      <trkpt lat="43.56384" lon="6.78151">
        <ele>216.3</ele>
        <time>2025-01-10T11:12:35.000Z</time>
      </trkpt>
      <trkpt lat="43.56382" lon="6.78146">
        <ele>217.1</ele>
        <time>2025-01-10T11:12:34.000Z</time>
      </trkpt>
      <trkpt lat="43.56381" lon="6.78138">
        <ele>218.2</ele>
        <time>2025-01-10T11:12:33.000Z</time>
      </trkpt>
      <trkpt lat="43.56381" lon="6.78133">
        <ele>219</ele>
        <time>2025-01-10T11:12:32.000Z</time>
      </trkpt>
      <trkpt lat="43.56382" lon="6.78128">
        <ele>219.7</ele>
        <time>2025-01-10T11:12:31.000Z</time>
      </trkpt>
      <trkpt lat="43.56382" lon="6.78125">
        <ele>220.1</ele>
        <time>2025-01-10T11:12:30.000Z</time>
      </trkpt>
      <trkpt lat="43.56382" lon="6.7812">
        <ele>220.9</ele>
        <time>2025-01-10T11:12:29.000Z</time>
      </trkpt>
      <trkpt lat="43.56383" lon="6.78115">
        <ele>221.7</ele>
        <time>2025-01-10T11:12:28.000Z</time>
      </trkpt>
      <trkpt lat="43.56384" lon="6.78109">
        <ele>222.7</ele>
        <time>2025-01-10T11:12:27.000Z</time>
      </trkpt>
      <trkpt lat="43.56385" lon="6.78102">
        <ele>223.7</ele>
        <time>2025-01-10T11:12:26.000Z</time>
      </trkpt>
      <trkpt lat="43.56386" lon="6.78096">
        <ele>224.6</ele>
        <time>2025-01-10T11:12:25.000Z</time>
      </trkpt>
      <trkpt lat="43.56388" lon="6.7809">
        <ele>225.6</ele>
        <time>2025-01-10T11:12:24.000Z</time>
      </trkpt>
      <trkpt lat="43.56389" lon="6.78084">
        <ele>226.5</ele>
        <time>2025-01-10T11:12:23.000Z</time>
      </trkpt>
      <trkpt lat="43.56391" lon="6.78079">
        <ele>227.4</ele>
        <time>2025-01-10T11:12:22.000Z</time>
      </trkpt>
      <trkpt lat="43.56393" lon="6.78073">
        <ele>228.3</ele>
        <time>2025-01-10T11:12:21.000Z</time>
      </trkpt>
      <trkpt lat="43.56395" lon="6.78069">
        <ele>229</ele>
        <time>2025-01-10T11:12:20.000Z</time>
      </trkpt>
      <trkpt lat="43.56396" lon="6.78064">
        <ele>229.7</ele>
        <time>2025-01-10T11:12:19.000Z</time>
      </trkpt>
      <trkpt lat="43.56398" lon="6.78058">
        <ele>230.5</ele>
        <time>2025-01-10T11:12:18.000Z</time>
      </trkpt>
      <trkpt lat="43.56398" lon="6.78054">
        <ele>231</ele>
        <time>2025-01-10T11:12:17.000Z</time>
      </trkpt>
      <trkpt lat="43.56398" lon="6.7805">
        <ele>231.5</ele>
        <time>2025-01-10T11:12:16.000Z</time>
      </trkpt>
      <trkpt lat="43.56398" lon="6.7805">
        <ele>231.5</ele>
        <time>2025-01-10T11:12:15.000Z</time>
      </trkpt>
      <trkpt lat="43.56398" lon="6.7805">
        <ele>231.5</ele>
        <time>2025-01-10T11:12:14.000Z</time>
      </trkpt>
      <trkpt lat="43.56398" lon="6.7805">
        <ele>231.5</ele>
        <time>2025-01-10T11:12:13.000Z</time>
      </trkpt>
      <trkpt lat="43.56398" lon="6.7805">
        <ele>231.5</ele>
        <time>2025-01-10T11:12:12.000Z</time>
      </trkpt>
      <trkpt lat="43.56398" lon="6.7805">
        <ele>231.5</ele>
        <time>2025-01-10T11:12:11.000Z</time>
      </trkpt>
      <trkpt lat="43.56398" lon="6.7805">
        <ele>231.5</ele>
        <time>2025-01-10T11:12:10.000Z</time>
      </trkpt>
      <trkpt lat="43.56398" lon="6.7805">
        <ele>231.5</ele>
        <time>2025-01-10T11:12:09.000Z</time>
      </trkpt>
      <trkpt lat="43.56398" lon="6.7805">
        <ele>231.5</ele>
        <time>2025-01-10T11:12:08.000Z</time>
      </trkpt>
      <trkpt lat="43.56398" lon="6.7805">
        <ele>231.5</ele>
        <time>2025-01-10T11:12:07.000Z</time>
      </trkpt>
      <trkpt lat="43.56398" lon="6.7805">
        <ele>231.5</ele>
        <time>2025-01-10T11:12:06.000Z</time>
      </trkpt>
      <trkpt lat="43.56398" lon="6.7805">
        <ele>231.5</ele>
        <time>2025-01-10T11:12:05.000Z</time>
      </trkpt>
      <trkpt lat="43.56398" lon="6.7805">
        <ele>231.5</ele>
        <time>2025-01-10T11:12:04.000Z</time>
      </trkpt>
      <trkpt lat="43.56398" lon="6.7805">
        <ele>231.5</ele>
        <time>2025-01-10T11:12:03.000Z</time>
      </trkpt>
      <trkpt lat="43.56398" lon="6.7805">
        <ele>231.5</ele>
        <time>2025-01-10T11:12:02.000Z</time>
      </trkpt>
      <trkpt lat="43.56398" lon="6.7805">
        <ele>231.5</ele>
        <time>2025-01-10T11:12:01.000Z</time>
      </trkpt>
      <trkpt lat="43.56398" lon="6.7805">
        <ele>231.5</ele>
        <time>2025-01-10T11:12:00.000Z</time>
      </trkpt>
      <trkpt lat="43.56398" lon="6.7805">
        <ele>231.6</ele>
        <time>2025-01-10T11:11:59.000Z</time>
      </trkpt>
      <trkpt lat="43.56398" lon="6.7805">
        <ele>231.6</ele>
        <time>2025-01-10T11:11:58.000Z</time>
      </trkpt>
      <trkpt lat="43.56398" lon="6.7805">
        <ele>231.6</ele>
        <time>2025-01-10T11:11:57.000Z</time>
      </trkpt>
      <trkpt lat="43.56398" lon="6.7805">
        <ele>231.6</ele>
        <time>2025-01-10T11:11:56.000Z</time>
      </trkpt>
      <trkpt lat="43.56398" lon="6.7805">
        <ele>231.6</ele>
        <time>2025-01-10T11:11:55.000Z</time>
      </trkpt>
      <trkpt lat="43.56398" lon="6.7805">
        <ele>231.6</ele>
        <time>2025-01-10T11:11:54.000Z</time>
      </trkpt>
      <trkpt lat="43.56398" lon="6.7805">
        <ele>231.6</ele>
        <time>2025-01-10T11:11:53.000Z</time>
      </trkpt>
      <trkpt lat="43.56398" lon="6.78051">
        <ele>231.7</ele>
        <time>2025-01-10T11:11:52.000Z</time>
      </trkpt>
      <trkpt lat="43.56398" lon="6.78051">
        <ele>231.7</ele>
        <time>2025-01-10T11:11:51.000Z</time>
      </trkpt>
      <trkpt lat="43.56398" lon="6.78051">
        <ele>231.7</ele>
        <time>2025-01-10T11:11:50.000Z</time>
      </trkpt>
      <trkpt lat="43.56398" lon="6.78051">
        <ele>231.8</ele>
        <time>2025-01-10T11:11:49.000Z</time>
      </trkpt>
      <trkpt lat="43.56398" lon="6.78052">
        <ele>231.8</ele>
        <time>2025-01-10T11:11:48.000Z</time>
      </trkpt>
      <trkpt lat="43.56398" lon="6.78052">
        <ele>231.8</ele>
        <time>2025-01-10T11:11:47.000Z</time>
      </trkpt>
      <trkpt lat="43.56398" lon="6.78052">
        <ele>231.8</ele>
        <time>2025-01-10T11:11:46.000Z</time>
      </trkpt>
      <trkpt lat="43.56398" lon="6.78052">
        <ele>231.9</ele>
        <time>2025-01-10T11:11:45.000Z</time>
      </trkpt>
      <trkpt lat="43.56397" lon="6.78052">
        <ele>231.9</ele>
        <time>2025-01-10T11:11:44.000Z</time>
      </trkpt>
      <trkpt lat="43.56397" lon="6.78052">
        <ele>231.9</ele>
        <time>2025-01-10T11:11:43.000Z</time>
      </trkpt>
      <trkpt lat="43.56397" lon="6.78052">
        <ele>231.9</ele>
        <time>2025-01-10T11:11:42.000Z</time>
      </trkpt>
      <trkpt lat="43.56397" lon="6.78052">
        <ele>231.9</ele>
        <time>2025-01-10T11:11:41.000Z</time>
      </trkpt>
      <trkpt lat="43.56397" lon="6.78052">
        <ele>232</ele>
        <time>2025-01-10T11:11:40.000Z</time>
      </trkpt>
      <trkpt lat="43.56397" lon="6.78053">
        <ele>232</ele>
        <time>2025-01-10T11:11:39.000Z</time>
      </trkpt>
      <trkpt lat="43.56397" lon="6.78053">
        <ele>232.1</ele>
        <time>2025-01-10T11:11:38.000Z</time>
      </trkpt>
      <trkpt lat="43.56396" lon="6.78053">
        <ele>232.1</ele>
        <time>2025-01-10T11:11:37.000Z</time>
      </trkpt>
      <trkpt lat="43.56396" lon="6.78053">
        <ele>232.1</ele>
        <time>2025-01-10T11:11:36.000Z</time>
      </trkpt>
      <trkpt lat="43.56396" lon="6.78053">
        <ele>232.1</ele>
        <time>2025-01-10T11:11:35.000Z</time>
      </trkpt>
      <trkpt lat="43.56396" lon="6.78053">
        <ele>232.1</ele>
        <time>2025-01-10T11:11:34.000Z</time>
      </trkpt>
      <trkpt lat="43.56396" lon="6.78053">
        <ele>232.1</ele>
        <time>2025-01-10T11:11:33.000Z</time>
      </trkpt>
      <trkpt lat="43.56396" lon="6.78053">
        <ele>232.1</ele>
        <time>2025-01-10T11:11:32.000Z</time>
      </trkpt>
      <trkpt lat="43.56396" lon="6.78053">
        <ele>232.1</ele>
        <time>2025-01-10T11:11:31.000Z</time>
      </trkpt>
      <trkpt lat="43.56396" lon="6.78053">
        <ele>232.1</ele>
        <time>2025-01-10T11:11:30.000Z</time>
      </trkpt>
      <trkpt lat="43.56396" lon="6.78053">
        <ele>232.1</ele>
        <time>2025-01-10T11:11:29.000Z</time>
      </trkpt>
      <trkpt lat="43.56396" lon="6.78053">
        <ele>232.1</ele>
        <time>2025-01-10T11:11:28.000Z</time>
      </trkpt>
      <trkpt lat="43.56396" lon="6.78053">
        <ele>232.1</ele>
        <time>2025-01-10T11:11:27.000Z</time>
      </trkpt>
      <trkpt lat="43.56396" lon="6.78053">
        <ele>232.1</ele>
        <time>2025-01-10T11:11:26.000Z</time>
      </trkpt>
      <trkpt lat="43.56396" lon="6.78053">
        <ele>232.1</ele>
        <time>2025-01-10T11:11:25.000Z</time>
      </trkpt>
      <trkpt lat="43.56396" lon="6.78053">
        <ele>232.1</ele>
        <time>2025-01-10T11:11:24.000Z</time>
      </trkpt>
      <trkpt lat="43.56396" lon="6.78053">
        <ele>232.1</ele>
        <time>2025-01-10T11:11:23.000Z</time>
      </trkpt>
      <trkpt lat="43.56396" lon="6.78053">
        <ele>232.1</ele>
        <time>2025-01-10T11:11:22.000Z</time>
      </trkpt>
      <trkpt lat="43.56396" lon="6.78054">
        <ele>232.2</ele>
        <time>2025-01-10T11:11:21.000Z</time>
      </trkpt>
      <trkpt lat="43.56396" lon="6.78054">
        <ele>232.2</ele>
        <time>2025-01-10T11:11:20.000Z</time>
      </trkpt>
      <trkpt lat="43.56396" lon="6.78054">
        <ele>232.3</ele>
        <time>2025-01-10T11:11:19.000Z</time>
      </trkpt>
      <trkpt lat="43.56396" lon="6.78054">
        <ele>232.3</ele>
        <time>2025-01-10T11:11:18.000Z</time>
      </trkpt>
      <trkpt lat="43.56396" lon="6.78054">
        <ele>232.3</ele>
        <time>2025-01-10T11:11:17.000Z</time>
      </trkpt>
      <trkpt lat="43.56396" lon="6.78054">
        <ele>232.3</ele>
        <time>2025-01-10T11:11:16.000Z</time>
      </trkpt>
      <trkpt lat="43.56396" lon="6.78054">
        <ele>232.4</ele>
        <time>2025-01-10T11:11:15.000Z</time>
      </trkpt>
      <trkpt lat="43.56396" lon="6.78054">
        <ele>232.5</ele>
        <time>2025-01-10T11:11:14.000Z</time>
      </trkpt>
      <trkpt lat="43.56396" lon="6.78054">
        <ele>232.5</ele>
        <time>2025-01-10T11:11:13.000Z</time>
      </trkpt>
      <trkpt lat="43.56396" lon="6.78054">
        <ele>232.5</ele>
        <time>2025-01-10T11:11:12.000Z</time>
      </trkpt>
      <trkpt lat="43.56396" lon="6.78054">
        <ele>232.5</ele>
        <time>2025-01-10T11:11:11.000Z</time>
      </trkpt>
      <trkpt lat="43.56396" lon="6.78054">
        <ele>232.5</ele>
        <time>2025-01-10T11:11:10.000Z</time>
      </trkpt>
      <trkpt lat="43.56396" lon="6.78053">
        <ele>232.6</ele>
        <time>2025-01-10T11:11:09.000Z</time>
      </trkpt>
      <trkpt lat="43.56397" lon="6.78052">
        <ele>232.8</ele>
        <time>2025-01-10T11:11:08.000Z</time>
      </trkpt>
      <trkpt lat="43.56398" lon="6.78049">
        <ele>233.1</ele>
        <time>2025-01-10T11:11:07.000Z</time>
      </trkpt>
      <trkpt lat="43.56399" lon="6.78047">
        <ele>233.4</ele>
        <time>2025-01-10T11:11:06.000Z</time>
      </trkpt>
      <trkpt lat="43.564" lon="6.78043">
        <ele>233.8</ele>
        <time>2025-01-10T11:11:05.000Z</time>
      </trkpt>
      <trkpt lat="43.56401" lon="6.7804">
        <ele>234.1</ele>
        <time>2025-01-10T11:11:04.000Z</time>
      </trkpt>
      <trkpt lat="43.56402" lon="6.78036">
        <ele>234.5</ele>
        <time>2025-01-10T11:11:03.000Z</time>
      </trkpt>
      <trkpt lat="43.56403" lon="6.78032">
        <ele>235</ele>
        <time>2025-01-10T11:11:02.000Z</time>
      </trkpt>
      <trkpt lat="43.56404" lon="6.78025">
        <ele>235.6</ele>
        <time>2025-01-10T11:11:01.000Z</time>
      </trkpt>
      <trkpt lat="43.56405" lon="6.78019">
        <ele>236.3</ele>
        <time>2025-01-10T11:11:00.000Z</time>
      </trkpt>
      <trkpt lat="43.56406" lon="6.78013">
        <ele>237</ele>
        <time>2025-01-10T11:10:59.000Z</time>
      </trkpt>
      <trkpt lat="43.56407" lon="6.78005">
        <ele>237.9</ele>
        <time>2025-01-10T11:10:58.000Z</time>
      </trkpt>
      <trkpt lat="43.56409" lon="6.77996">
        <ele>239.1</ele>
        <time>2025-01-10T11:10:57.000Z</time>
      </trkpt>
      <trkpt lat="43.5641" lon="6.77989">
        <ele>240.2</ele>
        <time>2025-01-10T11:10:56.000Z</time>
      </trkpt>
      <trkpt lat="43.56412" lon="6.77982">
        <ele>241.3</ele>
        <time>2025-01-10T11:10:55.000Z</time>
      </trkpt>
      <trkpt lat="43.56413" lon="6.77977">
        <ele>242.2</ele>
        <time>2025-01-10T11:10:54.000Z</time>
      </trkpt>
      <trkpt lat="43.56414" lon="6.7797">
        <ele>243.4</ele>
        <time>2025-01-10T11:10:53.000Z</time>
      </trkpt>
      <trkpt lat="43.56415" lon="6.77966">
        <ele>244.1</ele>
        <time>2025-01-10T11:10:52.000Z</time>
      </trkpt>
      <trkpt lat="43.56417" lon="6.77961">
        <ele>245.1</ele>
        <time>2025-01-10T11:10:51.000Z</time>
      </trkpt>
      <trkpt lat="43.56419" lon="6.77957">
        <ele>246</ele>
        <time>2025-01-10T11:10:50.000Z</time>
      </trkpt>
      <trkpt lat="43.56421" lon="6.77953">
        <ele>246.7</ele>
        <time>2025-01-10T11:10:49.000Z</time>
      </trkpt>
      <trkpt lat="43.56423" lon="6.77949">
        <ele>247.5</ele>
        <time>2025-01-10T11:10:48.000Z</time>
      </trkpt>
      <trkpt lat="43.56426" lon="6.77945">
        <ele>248.4</ele>
        <time>2025-01-10T11:10:47.000Z</time>
      </trkpt>
      <trkpt lat="43.56429" lon="6.7794">
        <ele>249.6</ele>
        <time>2025-01-10T11:10:46.000Z</time>
      </trkpt>
      <trkpt lat="43.56432" lon="6.77936">
        <ele>250.6</ele>
        <time>2025-01-10T11:10:45.000Z</time>
      </trkpt>
      <trkpt lat="43.56434" lon="6.77933">
        <ele>251.3</ele>
        <time>2025-01-10T11:10:44.000Z</time>
      </trkpt>
      <trkpt lat="43.56437" lon="6.7793">
        <ele>252.1</ele>
        <time>2025-01-10T11:10:43.000Z</time>
      </trkpt>
      <trkpt lat="43.56439" lon="6.77926">
        <ele>252.9</ele>
        <time>2025-01-10T11:10:42.000Z</time>
      </trkpt>
      <trkpt lat="43.56441" lon="6.77924">
        <ele>253.6</ele>
        <time>2025-01-10T11:10:41.000Z</time>
      </trkpt>
      <trkpt lat="43.56442" lon="6.77923">
        <ele>253.9</ele>
        <time>2025-01-10T11:10:40.000Z</time>
      </trkpt>
      <trkpt lat="43.56443" lon="6.77922">
        <ele>254.1</ele>
        <time>2025-01-10T11:10:39.000Z</time>
      </trkpt>
      <trkpt lat="43.56443" lon="6.77922">
        <ele>254.1</ele>
        <time>2025-01-10T11:10:38.000Z</time>
      </trkpt>
      <trkpt lat="43.56443" lon="6.77922">
        <ele>254.1</ele>
        <time>2025-01-10T11:10:37.000Z</time>
      </trkpt>
      <trkpt lat="43.56443" lon="6.77922">
        <ele>254.2</ele>
        <time>2025-01-10T11:10:36.000Z</time>
      </trkpt>
      <trkpt lat="43.56443" lon="6.77922">
        <ele>254.2</ele>
        <time>2025-01-10T11:10:35.000Z</time>
      </trkpt>
      <trkpt lat="43.56443" lon="6.77922">
        <ele>254.3</ele>
        <time>2025-01-10T11:10:34.000Z</time>
      </trkpt>
      <trkpt lat="43.56443" lon="6.77923">
        <ele>254.4</ele>
        <time>2025-01-10T11:10:33.000Z</time>
      </trkpt>
      <trkpt lat="43.56443" lon="6.77923">
        <ele>254.4</ele>
        <time>2025-01-10T11:10:32.000Z</time>
      </trkpt>
      <trkpt lat="43.56443" lon="6.77923">
        <ele>254.5</ele>
        <time>2025-01-10T11:10:31.000Z</time>
      </trkpt>
      <trkpt lat="43.56443" lon="6.77924">
        <ele>254.5</ele>
        <time>2025-01-10T11:10:30.000Z</time>
      </trkpt>
      <trkpt lat="43.56443" lon="6.77924">
        <ele>254.5</ele>
        <time>2025-01-10T11:10:29.000Z</time>
      </trkpt>
      <trkpt lat="43.56443" lon="6.77924">
        <ele>254.6</ele>
        <time>2025-01-10T11:10:28.000Z</time>
      </trkpt>
      <trkpt lat="43.56443" lon="6.77923">
        <ele>254.7</ele>
        <time>2025-01-10T11:10:27.000Z</time>
      </trkpt>
      <trkpt lat="43.56443" lon="6.7792">
        <ele>255.2</ele>
        <time>2025-01-10T11:10:26.000Z</time>
      </trkpt>
      <trkpt lat="43.56444" lon="6.77917">
        <ele>255.7</ele>
        <time>2025-01-10T11:10:25.000Z</time>
      </trkpt>
      <trkpt lat="43.56445" lon="6.77913">
        <ele>256.4</ele>
        <time>2025-01-10T11:10:24.000Z</time>
      </trkpt>
      <trkpt lat="43.56446" lon="6.77908">
        <ele>257.2</ele>
        <time>2025-01-10T11:10:23.000Z</time>
      </trkpt>
      <trkpt lat="43.56447" lon="6.77904">
        <ele>258</ele>
        <time>2025-01-10T11:10:22.000Z</time>
      </trkpt>
      <trkpt lat="43.56449" lon="6.77899">
        <ele>259</ele>
        <time>2025-01-10T11:10:21.000Z</time>
      </trkpt>
      <trkpt lat="43.56451" lon="6.77894">
        <ele>259.8</ele>
        <time>2025-01-10T11:10:20.000Z</time>
      </trkpt>
      <trkpt lat="43.56452" lon="6.77891">
        <ele>260.4</ele>
        <time>2025-01-10T11:10:19.000Z</time>
      </trkpt>
      <trkpt lat="43.56454" lon="6.77887">
        <ele>261.1</ele>
        <time>2025-01-10T11:10:18.000Z</time>
      </trkpt>
      <trkpt lat="43.56456" lon="6.77884">
        <ele>261.7</ele>
        <time>2025-01-10T11:10:17.000Z</time>
      </trkpt>
      <trkpt lat="43.56458" lon="6.7788">
        <ele>262.2</ele>
        <time>2025-01-10T11:10:16.000Z</time>
      </trkpt>
      <trkpt lat="43.56459" lon="6.77877">
        <ele>262.7</ele>
        <time>2025-01-10T11:10:15.000Z</time>
      </trkpt>
      <trkpt lat="43.5646" lon="6.77873">
        <ele>263.2</ele>
        <time>2025-01-10T11:10:14.000Z</time>
      </trkpt>
      <trkpt lat="43.56461" lon="6.77868">
        <ele>263.8</ele>
        <time>2025-01-10T11:10:13.000Z</time>
      </trkpt>
      <trkpt lat="43.56461" lon="6.77862">
        <ele>264.5</ele>
        <time>2025-01-10T11:10:12.000Z</time>
      </trkpt>
      <trkpt lat="43.56462" lon="6.77856">
        <ele>265.3</ele>
        <time>2025-01-10T11:10:11.000Z</time>
      </trkpt>
      <trkpt lat="43.56462" lon="6.7785">
        <ele>265.9</ele>
        <time>2025-01-10T11:10:10.000Z</time>
      </trkpt>
      <trkpt lat="43.56462" lon="6.77846">
        <ele>266.4</ele>
        <time>2025-01-10T11:10:09.000Z</time>
      </trkpt>
      <trkpt lat="43.56463" lon="6.77841">
        <ele>267</ele>
        <time>2025-01-10T11:10:08.000Z</time>
      </trkpt>
      <trkpt lat="43.56464" lon="6.77836">
        <ele>267.6</ele>
        <time>2025-01-10T11:10:07.000Z</time>
      </trkpt>
      <trkpt lat="43.56465" lon="6.7783">
        <ele>268.3</ele>
        <time>2025-01-10T11:10:06.000Z</time>
      </trkpt>
      <trkpt lat="43.56467" lon="6.77826">
        <ele>268.8</ele>
        <time>2025-01-10T11:10:05.000Z</time>
      </trkpt>
      <trkpt lat="43.56468" lon="6.77822">
        <ele>269.2</ele>
        <time>2025-01-10T11:10:04.000Z</time>
      </trkpt>
      <trkpt lat="43.5647" lon="6.77818">
        <ele>269.6</ele>
        <time>2025-01-10T11:10:03.000Z</time>
      </trkpt>
      <trkpt lat="43.56473" lon="6.77814">
        <ele>270.2</ele>
        <time>2025-01-10T11:10:02.000Z</time>
      </trkpt>
      <trkpt lat="43.56476" lon="6.77809">
        <ele>270.8</ele>
        <time>2025-01-10T11:10:01.000Z</time>
      </trkpt>
      <trkpt lat="43.56479" lon="6.77805">
        <ele>271.4</ele>
        <time>2025-01-10T11:10:00.000Z</time>
      </trkpt>
      <trkpt lat="43.56482" lon="6.77801">
        <ele>271.9</ele>
        <time>2025-01-10T11:09:59.000Z</time>
      </trkpt>
      <trkpt lat="43.56485" lon="6.77799">
        <ele>272.4</ele>
        <time>2025-01-10T11:09:58.000Z</time>
      </trkpt>
      <trkpt lat="43.56489" lon="6.77796">
        <ele>273</ele>
        <time>2025-01-10T11:09:57.000Z</time>
      </trkpt>
      <trkpt lat="43.56494" lon="6.77795">
        <ele>273.6</ele>
        <time>2025-01-10T11:09:56.000Z</time>
      </trkpt>
      <trkpt lat="43.56498" lon="6.77794">
        <ele>274.2</ele>
        <time>2025-01-10T11:09:55.000Z</time>
      </trkpt>
      <trkpt lat="43.56502" lon="6.77794">
        <ele>274.7</ele>
        <time>2025-01-10T11:09:54.000Z</time>
      </trkpt>
      <trkpt lat="43.56506" lon="6.77794">
        <ele>275.3</ele>
        <time>2025-01-10T11:09:53.000Z</time>
      </trkpt>
      <trkpt lat="43.5651" lon="6.77794">
        <ele>275.8</ele>
        <time>2025-01-10T11:09:52.000Z</time>
      </trkpt>
      <trkpt lat="43.56515" lon="6.77795">
        <ele>276.4</ele>
        <time>2025-01-10T11:09:51.000Z</time>
      </trkpt>
      <trkpt lat="43.56521" lon="6.77795">
        <ele>277.1</ele>
        <time>2025-01-10T11:09:50.000Z</time>
      </trkpt>
      <trkpt lat="43.56527" lon="6.77794">
        <ele>277.8</ele>
        <time>2025-01-10T11:09:49.000Z</time>
      </trkpt>
      <trkpt lat="43.56531" lon="6.77793">
        <ele>278.4</ele>
        <time>2025-01-10T11:09:48.000Z</time>
      </trkpt>
      <trkpt lat="43.56536" lon="6.77791">
        <ele>279.1</ele>
        <time>2025-01-10T11:09:47.000Z</time>
      </trkpt>
      <trkpt lat="43.5654" lon="6.77788">
        <ele>279.8</ele>
        <time>2025-01-10T11:09:46.000Z</time>
      </trkpt>
      <trkpt lat="43.56546" lon="6.77784">
        <ele>280.7</ele>
        <time>2025-01-10T11:09:45.000Z</time>
      </trkpt>
      <trkpt lat="43.56551" lon="6.77781">
        <ele>281.6</ele>
        <time>2025-01-10T11:09:44.000Z</time>
      </trkpt>
      <trkpt lat="43.56555" lon="6.77779">
        <ele>282.3</ele>
        <time>2025-01-10T11:09:43.000Z</time>
      </trkpt>
      <trkpt lat="43.5656" lon="6.77774">
        <ele>283.2</ele>
        <time>2025-01-10T11:09:42.000Z</time>
      </trkpt>
      <trkpt lat="43.56564" lon="6.77769">
        <ele>284</ele>
        <time>2025-01-10T11:09:41.000Z</time>
      </trkpt>
      <trkpt lat="43.56568" lon="6.77763">
        <ele>284.8</ele>
        <time>2025-01-10T11:09:40.000Z</time>
      </trkpt>
      <trkpt lat="43.56571" lon="6.77757">
        <ele>285.8</ele>
        <time>2025-01-10T11:09:39.000Z</time>
      </trkpt>
      <trkpt lat="43.56574" lon="6.7775">
        <ele>286.8</ele>
        <time>2025-01-10T11:09:38.000Z</time>
      </trkpt>
      <trkpt lat="43.56577" lon="6.77743">
        <ele>287.7</ele>
        <time>2025-01-10T11:09:37.000Z</time>
      </trkpt>
      <trkpt lat="43.56579" lon="6.77737">
        <ele>288.6</ele>
        <time>2025-01-10T11:09:36.000Z</time>
      </trkpt>
      <trkpt lat="43.56581" lon="6.7773">
        <ele>289.4</ele>
        <time>2025-01-10T11:09:35.000Z</time>
      </trkpt>
      <trkpt lat="43.56581" lon="6.77729">
        <ele>289.6</ele>
        <time>2025-01-10T11:09:34.000Z</time>
      </trkpt>
      <trkpt lat="43.56581" lon="6.77727">
        <ele>289.8</ele>
        <time>2025-01-10T11:09:33.000Z</time>
      </trkpt>
      <trkpt lat="43.56582" lon="6.77726">
        <ele>290</ele>
        <time>2025-01-10T11:09:32.000Z</time>
      </trkpt>
      <trkpt lat="43.56582" lon="6.77725">
        <ele>290.2</ele>
        <time>2025-01-10T11:09:31.000Z</time>
      </trkpt>
      <trkpt lat="43.56583" lon="6.77723">
        <ele>290.4</ele>
        <time>2025-01-10T11:09:30.000Z</time>
      </trkpt>
      <trkpt lat="43.56583" lon="6.77722">
        <ele>290.6</ele>
        <time>2025-01-10T11:09:29.000Z</time>
      </trkpt>
      <trkpt lat="43.56584" lon="6.7772">
        <ele>290.8</ele>
        <time>2025-01-10T11:09:28.000Z</time>
      </trkpt>
      <trkpt lat="43.56584" lon="6.77719">
        <ele>291</ele>
        <time>2025-01-10T11:09:27.000Z</time>
      </trkpt>
      <trkpt lat="43.56585" lon="6.77718">
        <ele>291.2</ele>
        <time>2025-01-10T11:09:26.000Z</time>
      </trkpt>
      <trkpt lat="43.56585" lon="6.77716">
        <ele>291.4</ele>
        <time>2025-01-10T11:09:25.000Z</time>
      </trkpt>
      <trkpt lat="43.56586" lon="6.77715">
        <ele>291.6</ele>
        <time>2025-01-10T11:09:24.000Z</time>
      </trkpt>
      <trkpt lat="43.56586" lon="6.77713">
        <ele>291.8</ele>
        <time>2025-01-10T11:09:23.000Z</time>
      </trkpt>
      <trkpt lat="43.56586" lon="6.77712">
        <ele>292</ele>
        <time>2025-01-10T11:09:22.000Z</time>
      </trkpt>
      <trkpt lat="43.56587" lon="6.77711">
        <ele>292.2</ele>
        <time>2025-01-10T11:09:21.000Z</time>
      </trkpt>
      <trkpt lat="43.56587" lon="6.77709">
        <ele>292.4</ele>
        <time>2025-01-10T11:09:20.000Z</time>
      </trkpt>
      <trkpt lat="43.56588" lon="6.77708">
        <ele>292.6</ele>
        <time>2025-01-10T11:09:19.000Z</time>
      </trkpt>
      <trkpt lat="43.56588" lon="6.77706">
        <ele>292.8</ele>
        <time>2025-01-10T11:09:18.000Z</time>
      </trkpt>
      <trkpt lat="43.56589" lon="6.77705">
        <ele>293</ele>
        <time>2025-01-10T11:09:17.000Z</time>
      </trkpt>
      <trkpt lat="43.56589" lon="6.77704">
        <ele>293.2</ele>
        <time>2025-01-10T11:09:16.000Z</time>
      </trkpt>
      <trkpt lat="43.5659" lon="6.77702">
        <ele>293.4</ele>
        <time>2025-01-10T11:09:15.000Z</time>
      </trkpt>
      <trkpt lat="43.5659" lon="6.77701">
        <ele>293.6</ele>
        <time>2025-01-10T11:09:14.000Z</time>
      </trkpt>
      <trkpt lat="43.5659" lon="6.77699">
        <ele>293.8</ele>
        <time>2025-01-10T11:09:13.000Z</time>
      </trkpt>
      <trkpt lat="43.56591" lon="6.77698">
        <ele>294</ele>
        <time>2025-01-10T11:09:12.000Z</time>
      </trkpt>
      <trkpt lat="43.56591" lon="6.77697">
        <ele>294.1</ele>
        <time>2025-01-10T11:09:11.000Z</time>
      </trkpt>
      <trkpt lat="43.56592" lon="6.77695">
        <ele>294.3</ele>
        <time>2025-01-10T11:09:10.000Z</time>
      </trkpt>
      <trkpt lat="43.56592" lon="6.77694">
        <ele>294.5</ele>
        <time>2025-01-10T11:09:09.000Z</time>
      </trkpt>
      <trkpt lat="43.56593" lon="6.77692">
        <ele>294.7</ele>
        <time>2025-01-10T11:09:08.000Z</time>
      </trkpt>
      <trkpt lat="43.56593" lon="6.77692">
        <ele>294.8</ele>
        <time>2025-01-10T11:09:07.000Z</time>
      </trkpt>
      <trkpt lat="43.56593" lon="6.77693">
        <ele>294.8</ele>
        <time>2025-01-10T11:09:06.000Z</time>
      </trkpt>
      <trkpt lat="43.56594" lon="6.77693">
        <ele>294.8</ele>
        <time>2025-01-10T11:09:05.000Z</time>
      </trkpt>
      <trkpt lat="43.56596" lon="6.77694">
        <ele>295.1</ele>
        <time>2025-01-10T11:09:04.000Z</time>
      </trkpt>
      <trkpt lat="43.56598" lon="6.77694">
        <ele>295.3</ele>
        <time>2025-01-10T11:09:03.000Z</time>
      </trkpt>
      <trkpt lat="43.56601" lon="6.77695">
        <ele>295.6</ele>
        <time>2025-01-10T11:09:02.000Z</time>
      </trkpt>
      <trkpt lat="43.56605" lon="6.77696">
        <ele>295.9</ele>
        <time>2025-01-10T11:09:01.000Z</time>
      </trkpt>
      <trkpt lat="43.56608" lon="6.77696">
        <ele>296.1</ele>
        <time>2025-01-10T11:09:00.000Z</time>
      </trkpt>
      <trkpt lat="43.56612" lon="6.77697">
        <ele>296.2</ele>
        <time>2025-01-10T11:08:59.000Z</time>
      </trkpt>
      <trkpt lat="43.56615" lon="6.77697">
        <ele>296.3</ele>
        <time>2025-01-10T11:08:58.000Z</time>
      </trkpt>
      <trkpt lat="43.56619" lon="6.77697">
        <ele>296.3</ele>
        <time>2025-01-10T11:08:57.000Z</time>
      </trkpt>
      <trkpt lat="43.56622" lon="6.77697">
        <ele>296.3</ele>
        <time>2025-01-10T11:08:56.000Z</time>
      </trkpt>
      <trkpt lat="43.56627" lon="6.77697">
        <ele>296.3</ele>
        <time>2025-01-10T11:08:55.000Z</time>
      </trkpt>
      <trkpt lat="43.56631" lon="6.77696">
        <ele>296.2</ele>
        <time>2025-01-10T11:08:54.000Z</time>
      </trkpt>
      <trkpt lat="43.56635" lon="6.77696">
        <ele>296.1</ele>
        <time>2025-01-10T11:08:53.000Z</time>
      </trkpt>
      <trkpt lat="43.5664" lon="6.77696">
        <ele>296</ele>
        <time>2025-01-10T11:08:52.000Z</time>
      </trkpt>
      <trkpt lat="43.56644" lon="6.77696">
        <ele>296</ele>
        <time>2025-01-10T11:08:51.000Z</time>
      </trkpt>
      <trkpt lat="43.56647" lon="6.77695">
        <ele>295.9</ele>
        <time>2025-01-10T11:08:50.000Z</time>
      </trkpt>
      <trkpt lat="43.56652" lon="6.77695">
        <ele>295.8</ele>
        <time>2025-01-10T11:08:49.000Z</time>
      </trkpt>
      <trkpt lat="43.56657" lon="6.77695">
        <ele>295.8</ele>
        <time>2025-01-10T11:08:48.000Z</time>
      </trkpt>
      <trkpt lat="43.56661" lon="6.77695">
        <ele>295.7</ele>
        <time>2025-01-10T11:08:47.000Z</time>
      </trkpt>
      <trkpt lat="43.56664" lon="6.77695">
        <ele>295.6</ele>
        <time>2025-01-10T11:08:46.000Z</time>
      </trkpt>
      <trkpt lat="43.56667" lon="6.77694">
        <ele>295.5</ele>
        <time>2025-01-10T11:08:45.000Z</time>
      </trkpt>
      <trkpt lat="43.5667" lon="6.77694">
        <ele>295.4</ele>
        <time>2025-01-10T11:08:44.000Z</time>
      </trkpt>
      <trkpt lat="43.56674" lon="6.77694">
        <ele>295.3</ele>
        <time>2025-01-10T11:08:43.000Z</time>
      </trkpt>
      <trkpt lat="43.56677" lon="6.77693">
        <ele>295.2</ele>
        <time>2025-01-10T11:08:42.000Z</time>
      </trkpt>
      <trkpt lat="43.5668" lon="6.77693">
        <ele>295.1</ele>
        <time>2025-01-10T11:08:41.000Z</time>
      </trkpt>
      <trkpt lat="43.56683" lon="6.77692">
        <ele>295</ele>
        <time>2025-01-10T11:08:40.000Z</time>
      </trkpt>
      <trkpt lat="43.56687" lon="6.7769">
        <ele>294.9</ele>
        <time>2025-01-10T11:08:39.000Z</time>
      </trkpt>
      <trkpt lat="43.56691" lon="6.77688">
        <ele>294.8</ele>
        <time>2025-01-10T11:08:38.000Z</time>
      </trkpt>
      <trkpt lat="43.56695" lon="6.77686">
        <ele>294.9</ele>
        <time>2025-01-10T11:08:37.000Z</time>
      </trkpt>
      <trkpt lat="43.56698" lon="6.77684">
        <ele>294.9</ele>
        <time>2025-01-10T11:08:36.000Z</time>
      </trkpt>
      <trkpt lat="43.56703" lon="6.7768">
        <ele>295.1</ele>
        <time>2025-01-10T11:08:35.000Z</time>
      </trkpt>
      <trkpt lat="43.56706" lon="6.77677">
        <ele>295.3</ele>
        <time>2025-01-10T11:08:34.000Z</time>
      </trkpt>
      <trkpt lat="43.56709" lon="6.77673">
        <ele>295.6</ele>
        <time>2025-01-10T11:08:33.000Z</time>
      </trkpt>
      <trkpt lat="43.56712" lon="6.77668">
        <ele>295.8</ele>
        <time>2025-01-10T11:08:32.000Z</time>
      </trkpt>
      <trkpt lat="43.56715" lon="6.77664">
        <ele>296.1</ele>
        <time>2025-01-10T11:08:31.000Z</time>
      </trkpt>
      <trkpt lat="43.56717" lon="6.77659">
        <ele>296.4</ele>
        <time>2025-01-10T11:08:30.000Z</time>
      </trkpt>
      <trkpt lat="43.56719" lon="6.77654">
        <ele>296.6</ele>
        <time>2025-01-10T11:08:29.000Z</time>
      </trkpt>
      <trkpt lat="43.56721" lon="6.7765">
        <ele>296.9</ele>
        <time>2025-01-10T11:08:28.000Z</time>
      </trkpt>
      <trkpt lat="43.56723" lon="6.77647">
        <ele>297.1</ele>
        <time>2025-01-10T11:08:27.000Z</time>
      </trkpt>
      <trkpt lat="43.56725" lon="6.77643">
        <ele>297.4</ele>
        <time>2025-01-10T11:08:26.000Z</time>
      </trkpt>
      <trkpt lat="43.56727" lon="6.7764">
        <ele>297.7</ele>
        <time>2025-01-10T11:08:25.000Z</time>
      </trkpt>
      <trkpt lat="43.56728" lon="6.77636">
        <ele>297.9</ele>
        <time>2025-01-10T11:08:24.000Z</time>
      </trkpt>
      <trkpt lat="43.5673" lon="6.77633">
        <ele>298.1</ele>
        <time>2025-01-10T11:08:23.000Z</time>
      </trkpt>
      <trkpt lat="43.56732" lon="6.77632">
        <ele>298.4</ele>
        <time>2025-01-10T11:08:22.000Z</time>
      </trkpt>
      <trkpt lat="43.56734" lon="6.77631">
        <ele>298.6</ele>
        <time>2025-01-10T11:08:21.000Z</time>
      </trkpt>
      <trkpt lat="43.56736" lon="6.77633">
        <ele>298.8</ele>
        <time>2025-01-10T11:08:20.000Z</time>
      </trkpt>
      <trkpt lat="43.56737" lon="6.77637">
        <ele>299.2</ele>
        <time>2025-01-10T11:08:19.000Z</time>
      </trkpt>
      <trkpt lat="43.56738" lon="6.77643">
        <ele>299.7</ele>
        <time>2025-01-10T11:08:18.000Z</time>
      </trkpt>
      <trkpt lat="43.56737" lon="6.77651">
        <ele>300.6</ele>
        <time>2025-01-10T11:08:17.000Z</time>
      </trkpt>
      <trkpt lat="43.56737" lon="6.77658">
        <ele>301.5</ele>
        <time>2025-01-10T11:08:16.000Z</time>
      </trkpt>
      <trkpt lat="43.56736" lon="6.77671">
        <ele>303.3</ele>
        <time>2025-01-10T11:08:15.000Z</time>
      </trkpt>
      <trkpt lat="43.56736" lon="6.77682">
        <ele>305</ele>
        <time>2025-01-10T11:08:14.000Z</time>
      </trkpt>
      <trkpt lat="43.56737" lon="6.77692">
        <ele>306.6</ele>
        <time>2025-01-10T11:08:13.000Z</time>
      </trkpt>
      <trkpt lat="43.56737" lon="6.77702">
        <ele>308</ele>
        <time>2025-01-10T11:08:12.000Z</time>
      </trkpt>
      <trkpt lat="43.56737" lon="6.77712">
        <ele>309.3</ele>
        <time>2025-01-10T11:08:11.000Z</time>
      </trkpt>
      <trkpt lat="43.56737" lon="6.7772">
        <ele>310.3</ele>
        <time>2025-01-10T11:08:10.000Z</time>
      </trkpt>
      <trkpt lat="43.56738" lon="6.77728">
        <ele>311.1</ele>
        <time>2025-01-10T11:08:09.000Z</time>
      </trkpt>
      <trkpt lat="43.56738" lon="6.77735">
        <ele>311.7</ele>
        <time>2025-01-10T11:08:08.000Z</time>
      </trkpt>
      <trkpt lat="43.56739" lon="6.77741">
        <ele>312.1</ele>
        <time>2025-01-10T11:08:07.000Z</time>
      </trkpt>
      <trkpt lat="43.5674" lon="6.77746">
        <ele>312.4</ele>
        <time>2025-01-10T11:08:06.000Z</time>
      </trkpt>
      <trkpt lat="43.56741" lon="6.77751">
        <ele>312.6</ele>
        <time>2025-01-10T11:08:05.000Z</time>
      </trkpt>
      <trkpt lat="43.56743" lon="6.77756">
        <ele>312.7</ele>
        <time>2025-01-10T11:08:04.000Z</time>
      </trkpt>
      <trkpt lat="43.56744" lon="6.7776">
        <ele>312.8</ele>
        <time>2025-01-10T11:08:03.000Z</time>
      </trkpt>
      <trkpt lat="43.56748" lon="6.77768">
        <ele>313</ele>
        <time>2025-01-10T11:08:02.000Z</time>
      </trkpt>
      <trkpt lat="43.56752" lon="6.77775">
        <ele>313.1</ele>
        <time>2025-01-10T11:08:01.000Z</time>
      </trkpt>
      <trkpt lat="43.56756" lon="6.77783">
        <ele>313.3</ele>
        <time>2025-01-10T11:08:00.000Z</time>
      </trkpt>
      <trkpt lat="43.5676" lon="6.77791">
        <ele>313.6</ele>
        <time>2025-01-10T11:07:59.000Z</time>
      </trkpt>
      <trkpt lat="43.56763" lon="6.77798">
        <ele>313.8</ele>
        <time>2025-01-10T11:07:58.000Z</time>
      </trkpt>
      <trkpt lat="43.56767" lon="6.77807">
        <ele>314.2</ele>
        <time>2025-01-10T11:07:57.000Z</time>
      </trkpt>
      <trkpt lat="43.56772" lon="6.77818">
        <ele>314.8</ele>
        <time>2025-01-10T11:07:56.000Z</time>
      </trkpt>
      <trkpt lat="43.56777" lon="6.77826">
        <ele>315.5</ele>
        <time>2025-01-10T11:07:55.000Z</time>
      </trkpt>
      <trkpt lat="43.56782" lon="6.77832">
        <ele>316.1</ele>
        <time>2025-01-10T11:07:54.000Z</time>
      </trkpt>
      <trkpt lat="43.56788" lon="6.7784">
        <ele>317</ele>
        <time>2025-01-10T11:07:53.000Z</time>
      </trkpt>
      <trkpt lat="43.56794" lon="6.77846">
        <ele>317.9</ele>
        <time>2025-01-10T11:07:52.000Z</time>
      </trkpt>
      <trkpt lat="43.56799" lon="6.77852">
        <ele>318.7</ele>
        <time>2025-01-10T11:07:51.000Z</time>
      </trkpt>
      <trkpt lat="43.56804" lon="6.77858">
        <ele>319.8</ele>
        <time>2025-01-10T11:07:50.000Z</time>
      </trkpt>
      <trkpt lat="43.56808" lon="6.77864">
        <ele>320.8</ele>
        <time>2025-01-10T11:07:49.000Z</time>
      </trkpt>
      <trkpt lat="43.56812" lon="6.77869">
        <ele>321.7</ele>
        <time>2025-01-10T11:07:48.000Z</time>
      </trkpt>
      <trkpt lat="43.56816" lon="6.77875">
        <ele>322.7</ele>
        <time>2025-01-10T11:07:47.000Z</time>
      </trkpt>
      <trkpt lat="43.56818" lon="6.7788">
        <ele>323.5</ele>
        <time>2025-01-10T11:07:46.000Z</time>
      </trkpt>
      <trkpt lat="43.5682" lon="6.77885">
        <ele>324.2</ele>
        <time>2025-01-10T11:07:45.000Z</time>
      </trkpt>
      <trkpt lat="43.56821" lon="6.77889">
        <ele>324.7</ele>
        <time>2025-01-10T11:07:44.000Z</time>
      </trkpt>
      <trkpt lat="43.56824" lon="6.77895">
        <ele>325.4</ele>
        <time>2025-01-10T11:07:43.000Z</time>
      </trkpt>
      <trkpt lat="43.56826" lon="6.779">
        <ele>326.1</ele>
        <time>2025-01-10T11:07:42.000Z</time>
      </trkpt>
      <trkpt lat="43.56829" lon="6.77904">
        <ele>326.9</ele>
        <time>2025-01-10T11:07:41.000Z</time>
      </trkpt>
      <trkpt lat="43.56832" lon="6.77909">
        <ele>327.7</ele>
        <time>2025-01-10T11:07:40.000Z</time>
      </trkpt>
      <trkpt lat="43.56835" lon="6.77913">
        <ele>328.4</ele>
        <time>2025-01-10T11:07:39.000Z</time>
      </trkpt>
      <trkpt lat="43.56839" lon="6.77919">
        <ele>329.4</ele>
        <time>2025-01-10T11:07:38.000Z</time>
      </trkpt>
      <trkpt lat="43.56842" lon="6.77924">
        <ele>330.1</ele>
        <time>2025-01-10T11:07:37.000Z</time>
      </trkpt>
      <trkpt lat="43.56844" lon="6.7793">
        <ele>330.8</ele>
        <time>2025-01-10T11:07:36.000Z</time>
      </trkpt>
      <trkpt lat="43.56845" lon="6.77937">
        <ele>331.5</ele>
        <time>2025-01-10T11:07:35.000Z</time>
      </trkpt>
      <trkpt lat="43.56846" lon="6.77944">
        <ele>332</ele>
        <time>2025-01-10T11:07:34.000Z</time>
      </trkpt>
      <trkpt lat="43.56847" lon="6.77952">
        <ele>332.6</ele>
        <time>2025-01-10T11:07:33.000Z</time>
      </trkpt>
      <trkpt lat="43.56848" lon="6.7796">
        <ele>333.2</ele>
        <time>2025-01-10T11:07:32.000Z</time>
      </trkpt>
      <trkpt lat="43.56849" lon="6.7797">
        <ele>333.9</ele>
        <time>2025-01-10T11:07:31.000Z</time>
      </trkpt>
      <trkpt lat="43.56851" lon="6.7798">
        <ele>334.7</ele>
        <time>2025-01-10T11:07:30.000Z</time>
      </trkpt>
      <trkpt lat="43.56852" lon="6.77989">
        <ele>335.5</ele>
        <time>2025-01-10T11:07:29.000Z</time>
      </trkpt>
      <trkpt lat="43.56852" lon="6.7799">
        <ele>335.5</ele>
        <time>2025-01-10T11:07:28.000Z</time>
      </trkpt>
      <trkpt lat="43.56852" lon="6.7799">
        <ele>335.6</ele>
        <time>2025-01-10T11:07:27.000Z</time>
      </trkpt>
      <trkpt lat="43.56852" lon="6.7799">
        <ele>335.6</ele>
        <time>2025-01-10T11:07:26.000Z</time>
      </trkpt>
      <trkpt lat="43.56852" lon="6.7799">
        <ele>335.6</ele>
        <time>2025-01-10T11:07:25.000Z</time>
      </trkpt>
      <trkpt lat="43.56852" lon="6.77991">
        <ele>335.6</ele>
        <time>2025-01-10T11:07:24.000Z</time>
      </trkpt>
      <trkpt lat="43.56852" lon="6.77991">
        <ele>335.7</ele>
        <time>2025-01-10T11:07:23.000Z</time>
      </trkpt>
      <trkpt lat="43.56852" lon="6.77991">
        <ele>335.7</ele>
        <time>2025-01-10T11:07:22.000Z</time>
      </trkpt>
      <trkpt lat="43.56852" lon="6.77991">
        <ele>335.7</ele>
        <time>2025-01-10T11:07:21.000Z</time>
      </trkpt>
      <trkpt lat="43.56853" lon="6.77992">
        <ele>335.7</ele>
        <time>2025-01-10T11:07:20.000Z</time>
      </trkpt>
      <trkpt lat="43.56853" lon="6.77992">
        <ele>335.7</ele>
        <time>2025-01-10T11:07:19.000Z</time>
      </trkpt>
      <trkpt lat="43.56853" lon="6.77992">
        <ele>335.8</ele>
        <time>2025-01-10T11:07:18.000Z</time>
      </trkpt>
      <trkpt lat="43.56853" lon="6.77992">
        <ele>335.8</ele>
        <time>2025-01-10T11:07:17.000Z</time>
      </trkpt>
      <trkpt lat="43.56853" lon="6.77993">
        <ele>335.8</ele>
        <time>2025-01-10T11:07:16.000Z</time>
      </trkpt>
      <trkpt lat="43.56853" lon="6.77993">
        <ele>335.8</ele>
        <time>2025-01-10T11:07:15.000Z</time>
      </trkpt>
      <trkpt lat="43.56853" lon="6.77993">
        <ele>335.9</ele>
        <time>2025-01-10T11:07:14.000Z</time>
      </trkpt>
      <trkpt lat="43.56853" lon="6.77993">
        <ele>335.9</ele>
        <time>2025-01-10T11:07:13.000Z</time>
      </trkpt>
      <trkpt lat="43.56853" lon="6.77994">
        <ele>335.9</ele>
        <time>2025-01-10T11:07:12.000Z</time>
      </trkpt>
      <trkpt lat="43.56853" lon="6.77994">
        <ele>335.9</ele>
        <time>2025-01-10T11:07:11.000Z</time>
      </trkpt>
      <trkpt lat="43.56853" lon="6.77994">
        <ele>335.9</ele>
        <time>2025-01-10T11:07:10.000Z</time>
      </trkpt>
      <trkpt lat="43.56853" lon="6.77994">
        <ele>336</ele>
        <time>2025-01-10T11:07:09.000Z</time>
      </trkpt>
      <trkpt lat="43.56853" lon="6.77995">
        <ele>336</ele>
        <time>2025-01-10T11:07:08.000Z</time>
      </trkpt>
      <trkpt lat="43.56853" lon="6.77995">
        <ele>336</ele>
        <time>2025-01-10T11:07:07.000Z</time>
      </trkpt>
      <trkpt lat="43.56853" lon="6.77995">
        <ele>336</ele>
        <time>2025-01-10T11:07:06.000Z</time>
      </trkpt>
      <trkpt lat="43.56853" lon="6.77995">
        <ele>336.1</ele>
        <time>2025-01-10T11:07:05.000Z</time>
      </trkpt>
      <trkpt lat="43.56853" lon="6.77996">
        <ele>336.1</ele>
        <time>2025-01-10T11:07:04.000Z</time>
      </trkpt>
      <trkpt lat="43.56853" lon="6.77996">
        <ele>336.1</ele>
        <time>2025-01-10T11:07:03.000Z</time>
      </trkpt>
      <trkpt lat="43.56854" lon="6.77996">
        <ele>336.1</ele>
        <time>2025-01-10T11:07:02.000Z</time>
      </trkpt>
      <trkpt lat="43.56854" lon="6.77996">
        <ele>336.1</ele>
        <time>2025-01-10T11:07:01.000Z</time>
      </trkpt>
      <trkpt lat="43.56854" lon="6.77997">
        <ele>336.2</ele>
        <time>2025-01-10T11:07:00.000Z</time>
      </trkpt>
      <trkpt lat="43.56854" lon="6.77997">
        <ele>336.2</ele>
        <time>2025-01-10T11:06:59.000Z</time>
      </trkpt>
      <trkpt lat="43.56854" lon="6.77997">
        <ele>336.2</ele>
        <time>2025-01-10T11:06:58.000Z</time>
      </trkpt>
      <trkpt lat="43.56854" lon="6.77997">
        <ele>336.2</ele>
        <time>2025-01-10T11:06:57.000Z</time>
      </trkpt>
      <trkpt lat="43.56854" lon="6.77998">
        <ele>336.3</ele>
        <time>2025-01-10T11:06:56.000Z</time>
      </trkpt>
      <trkpt lat="43.56854" lon="6.77998">
        <ele>336.3</ele>
        <time>2025-01-10T11:06:55.000Z</time>
      </trkpt>
      <trkpt lat="43.56854" lon="6.77998">
        <ele>336.3</ele>
        <time>2025-01-10T11:06:54.000Z</time>
      </trkpt>
      <trkpt lat="43.56854" lon="6.77999">
        <ele>336.3</ele>
        <time>2025-01-10T11:06:53.000Z</time>
      </trkpt>
      <trkpt lat="43.56854" lon="6.77999">
        <ele>336.4</ele>
        <time>2025-01-10T11:06:52.000Z</time>
      </trkpt>
      <trkpt lat="43.56854" lon="6.77999">
        <ele>336.4</ele>
        <time>2025-01-10T11:06:51.000Z</time>
      </trkpt>
      <trkpt lat="43.56854" lon="6.77999">
        <ele>336.4</ele>
        <time>2025-01-10T11:06:50.000Z</time>
      </trkpt>
      <trkpt lat="43.56854" lon="6.78">
        <ele>336.4</ele>
        <time>2025-01-10T11:06:49.000Z</time>
      </trkpt>
      <trkpt lat="43.56854" lon="6.78">
        <ele>336.5</ele>
        <time>2025-01-10T11:06:48.000Z</time>
      </trkpt>
      <trkpt lat="43.56854" lon="6.78">
        <ele>336.5</ele>
        <time>2025-01-10T11:06:47.000Z</time>
      </trkpt>
      <trkpt lat="43.56854" lon="6.78">
        <ele>336.5</ele>
        <time>2025-01-10T11:06:46.000Z</time>
      </trkpt>
      <trkpt lat="43.56854" lon="6.78001">
        <ele>336.5</ele>
        <time>2025-01-10T11:06:45.000Z</time>
      </trkpt>
      <trkpt lat="43.56855" lon="6.78001">
        <ele>336.6</ele>
        <time>2025-01-10T11:06:44.000Z</time>
      </trkpt>
      <trkpt lat="43.56855" lon="6.78001">
        <ele>336.6</ele>
        <time>2025-01-10T11:06:43.000Z</time>
      </trkpt>
      <trkpt lat="43.56855" lon="6.78001">
        <ele>336.6</ele>
        <time>2025-01-10T11:06:42.000Z</time>
      </trkpt>
      <trkpt lat="43.56855" lon="6.78002">
        <ele>336.6</ele>
        <time>2025-01-10T11:06:41.000Z</time>
      </trkpt>
      <trkpt lat="43.56855" lon="6.78002">
        <ele>336.7</ele>
        <time>2025-01-10T11:06:40.000Z</time>
      </trkpt>
      <trkpt lat="43.56855" lon="6.78002">
        <ele>336.7</ele>
        <time>2025-01-10T11:06:39.000Z</time>
      </trkpt>
      <trkpt lat="43.56855" lon="6.78002">
        <ele>336.7</ele>
        <time>2025-01-10T11:06:38.000Z</time>
      </trkpt>
      <trkpt lat="43.56855" lon="6.78003">
        <ele>336.7</ele>
        <time>2025-01-10T11:06:37.000Z</time>
      </trkpt>
      <trkpt lat="43.56855" lon="6.78003">
        <ele>336.8</ele>
        <time>2025-01-10T11:06:36.000Z</time>
      </trkpt>
      <trkpt lat="43.56855" lon="6.78003">
        <ele>336.8</ele>
        <time>2025-01-10T11:06:35.000Z</time>
      </trkpt>
      <trkpt lat="43.56855" lon="6.78003">
        <ele>336.8</ele>
        <time>2025-01-10T11:06:34.000Z</time>
      </trkpt>
      <trkpt lat="43.56855" lon="6.78004">
        <ele>336.8</ele>
        <time>2025-01-10T11:06:33.000Z</time>
      </trkpt>
      <trkpt lat="43.56855" lon="6.78004">
        <ele>336.9</ele>
        <time>2025-01-10T11:06:32.000Z</time>
      </trkpt>
      <trkpt lat="43.56855" lon="6.78004">
        <ele>336.9</ele>
        <time>2025-01-10T11:06:31.000Z</time>
      </trkpt>
      <trkpt lat="43.56855" lon="6.78004">
        <ele>336.9</ele>
        <time>2025-01-10T11:06:30.000Z</time>
      </trkpt>
      <trkpt lat="43.56855" lon="6.78005">
        <ele>336.9</ele>
        <time>2025-01-10T11:06:29.000Z</time>
      </trkpt>
      <trkpt lat="43.56855" lon="6.78005">
        <ele>336.9</ele>
        <time>2025-01-10T11:06:28.000Z</time>
      </trkpt>
      <trkpt lat="43.56855" lon="6.78005">
        <ele>337</ele>
        <time>2025-01-10T11:06:27.000Z</time>
      </trkpt>
      <trkpt lat="43.56855" lon="6.78005">
        <ele>337</ele>
        <time>2025-01-10T11:06:26.000Z</time>
      </trkpt>
      <trkpt lat="43.56856" lon="6.78006">
        <ele>337</ele>
        <time>2025-01-10T11:06:25.000Z</time>
      </trkpt>
      <trkpt lat="43.56856" lon="6.78006">
        <ele>337</ele>
        <time>2025-01-10T11:06:24.000Z</time>
      </trkpt>
      <trkpt lat="43.56856" lon="6.78006">
        <ele>337.1</ele>
        <time>2025-01-10T11:06:23.000Z</time>
      </trkpt>
      <trkpt lat="43.56856" lon="6.78006">
        <ele>337.1</ele>
        <time>2025-01-10T11:06:22.000Z</time>
      </trkpt>
      <trkpt lat="43.56856" lon="6.78007">
        <ele>337.1</ele>
        <time>2025-01-10T11:06:21.000Z</time>
      </trkpt>
      <trkpt lat="43.56856" lon="6.78007">
        <ele>337.1</ele>
        <time>2025-01-10T11:06:20.000Z</time>
      </trkpt>
      <trkpt lat="43.56856" lon="6.78007">
        <ele>337.2</ele>
        <time>2025-01-10T11:06:19.000Z</time>
      </trkpt>
      <trkpt lat="43.56856" lon="6.78007">
        <ele>337.2</ele>
        <time>2025-01-10T11:06:18.000Z</time>
      </trkpt>
      <trkpt lat="43.56856" lon="6.78008">
        <ele>337.2</ele>
        <time>2025-01-10T11:06:17.000Z</time>
      </trkpt>
      <trkpt lat="43.56856" lon="6.78008">
        <ele>337.2</ele>
        <time>2025-01-10T11:06:16.000Z</time>
      </trkpt>
      <trkpt lat="43.56856" lon="6.78008">
        <ele>337.3</ele>
        <time>2025-01-10T11:06:15.000Z</time>
      </trkpt>
      <trkpt lat="43.56856" lon="6.78008">
        <ele>337.3</ele>
        <time>2025-01-10T11:06:14.000Z</time>
      </trkpt>
      <trkpt lat="43.56856" lon="6.78009">
        <ele>337.3</ele>
        <time>2025-01-10T11:06:13.000Z</time>
      </trkpt>
      <trkpt lat="43.56856" lon="6.78009">
        <ele>337.3</ele>
        <time>2025-01-10T11:06:12.000Z</time>
      </trkpt>
      <trkpt lat="43.56856" lon="6.78009">
        <ele>337.4</ele>
        <time>2025-01-10T11:06:11.000Z</time>
      </trkpt>
      <trkpt lat="43.56856" lon="6.78009">
        <ele>337.4</ele>
        <time>2025-01-10T11:06:10.000Z</time>
      </trkpt>
      <trkpt lat="43.56856" lon="6.7801">
        <ele>337.4</ele>
        <time>2025-01-10T11:06:09.000Z</time>
      </trkpt>
      <trkpt lat="43.56856" lon="6.7801">
        <ele>337.4</ele>
        <time>2025-01-10T11:06:08.000Z</time>
      </trkpt>
      <trkpt lat="43.56857" lon="6.7801">
        <ele>337.5</ele>
        <time>2025-01-10T11:06:07.000Z</time>
      </trkpt>
      <trkpt lat="43.56857" lon="6.7801">
        <ele>337.5</ele>
        <time>2025-01-10T11:06:06.000Z</time>
      </trkpt>
      <trkpt lat="43.56857" lon="6.78011">
        <ele>337.5</ele>
        <time>2025-01-10T11:06:05.000Z</time>
      </trkpt>
      <trkpt lat="43.56857" lon="6.78011">
        <ele>337.5</ele>
        <time>2025-01-10T11:06:04.000Z</time>
      </trkpt>
      <trkpt lat="43.56857" lon="6.78011">
        <ele>337.6</ele>
        <time>2025-01-10T11:06:03.000Z</time>
      </trkpt>
      <trkpt lat="43.56857" lon="6.78011">
        <ele>337.6</ele>
        <time>2025-01-10T11:06:02.000Z</time>
      </trkpt>
      <trkpt lat="43.56857" lon="6.78012">
        <ele>337.6</ele>
        <time>2025-01-10T11:06:01.000Z</time>
      </trkpt>
      <trkpt lat="43.56857" lon="6.78012">
        <ele>337.6</ele>
        <time>2025-01-10T11:06:00.000Z</time>
      </trkpt>
      <trkpt lat="43.56857" lon="6.78012">
        <ele>337.7</ele>
        <time>2025-01-10T11:05:59.000Z</time>
      </trkpt>
      <trkpt lat="43.56857" lon="6.78013">
        <ele>337.7</ele>
        <time>2025-01-10T11:05:58.000Z</time>
      </trkpt>
      <trkpt lat="43.56857" lon="6.78013">
        <ele>337.7</ele>
        <time>2025-01-10T11:05:57.000Z</time>
      </trkpt>
      <trkpt lat="43.56857" lon="6.78013">
        <ele>337.7</ele>
        <time>2025-01-10T11:05:56.000Z</time>
      </trkpt>
      <trkpt lat="43.56857" lon="6.78013">
        <ele>337.8</ele>
        <time>2025-01-10T11:05:55.000Z</time>
      </trkpt>
      <trkpt lat="43.56857" lon="6.78014">
        <ele>337.8</ele>
        <time>2025-01-10T11:05:54.000Z</time>
      </trkpt>
      <trkpt lat="43.56857" lon="6.78014">
        <ele>337.8</ele>
        <time>2025-01-10T11:05:53.000Z</time>
      </trkpt>
      <trkpt lat="43.56857" lon="6.78014">
        <ele>337.8</ele>
        <time>2025-01-10T11:05:52.000Z</time>
      </trkpt>
      <trkpt lat="43.56857" lon="6.78014">
        <ele>337.8</ele>
        <time>2025-01-10T11:05:51.000Z</time>
      </trkpt>
      <trkpt lat="43.56857" lon="6.78015">
        <ele>337.9</ele>
        <time>2025-01-10T11:05:50.000Z</time>
      </trkpt>
      <trkpt lat="43.56857" lon="6.78015">
        <ele>337.9</ele>
        <time>2025-01-10T11:05:49.000Z</time>
      </trkpt>
      <trkpt lat="43.56858" lon="6.78015">
        <ele>337.9</ele>
        <time>2025-01-10T11:05:48.000Z</time>
      </trkpt>
      <trkpt lat="43.56858" lon="6.78015">
        <ele>338</ele>
        <time>2025-01-10T11:05:47.000Z</time>
      </trkpt>
      <trkpt lat="43.56858" lon="6.78016">
        <ele>338</ele>
        <time>2025-01-10T11:05:46.000Z</time>
      </trkpt>
      <trkpt lat="43.56858" lon="6.78016">
        <ele>338</ele>
        <time>2025-01-10T11:05:45.000Z</time>
      </trkpt>
      <trkpt lat="43.56858" lon="6.78016">
        <ele>338</ele>
        <time>2025-01-10T11:05:44.000Z</time>
      </trkpt>
      <trkpt lat="43.56858" lon="6.78016">
        <ele>338</ele>
        <time>2025-01-10T11:05:43.000Z</time>
      </trkpt>
      <trkpt lat="43.56858" lon="6.78017">
        <ele>338.1</ele>
        <time>2025-01-10T11:05:42.000Z</time>
      </trkpt>
      <trkpt lat="43.56858" lon="6.78017">
        <ele>338.1</ele>
        <time>2025-01-10T11:05:41.000Z</time>
      </trkpt>
      <trkpt lat="43.56858" lon="6.78017">
        <ele>338.1</ele>
        <time>2025-01-10T11:05:40.000Z</time>
      </trkpt>
      <trkpt lat="43.56858" lon="6.78017">
        <ele>338.1</ele>
        <time>2025-01-10T11:05:39.000Z</time>
      </trkpt>
      <trkpt lat="43.56858" lon="6.78018">
        <ele>338.2</ele>
        <time>2025-01-10T11:05:38.000Z</time>
      </trkpt>
      <trkpt lat="43.56858" lon="6.78018">
        <ele>338.2</ele>
        <time>2025-01-10T11:05:37.000Z</time>
      </trkpt>
      <trkpt lat="43.56858" lon="6.78018">
        <ele>338.2</ele>
        <time>2025-01-10T11:05:36.000Z</time>
      </trkpt>
      <trkpt lat="43.56858" lon="6.78018">
        <ele>338.2</ele>
        <time>2025-01-10T11:05:35.000Z</time>
      </trkpt>
      <trkpt lat="43.56858" lon="6.78019">
        <ele>338.3</ele>
        <time>2025-01-10T11:05:34.000Z</time>
      </trkpt>
      <trkpt lat="43.56858" lon="6.78019">
        <ele>338.3</ele>
        <time>2025-01-10T11:05:33.000Z</time>
      </trkpt>
      <trkpt lat="43.56858" lon="6.78019">
        <ele>338.3</ele>
        <time>2025-01-10T11:05:32.000Z</time>
      </trkpt>
      <trkpt lat="43.56858" lon="6.78019">
        <ele>338.3</ele>
        <time>2025-01-10T11:05:31.000Z</time>
      </trkpt>
      <trkpt lat="43.56859" lon="6.7802">
        <ele>338.3</ele>
        <time>2025-01-10T11:05:30.000Z</time>
      </trkpt>
      <trkpt lat="43.56859" lon="6.7802">
        <ele>338.4</ele>
        <time>2025-01-10T11:05:29.000Z</time>
      </trkpt>
      <trkpt lat="43.56859" lon="6.7802">
        <ele>338.4</ele>
        <time>2025-01-10T11:05:28.000Z</time>
      </trkpt>
      <trkpt lat="43.56859" lon="6.7802">
        <ele>338.4</ele>
        <time>2025-01-10T11:05:27.000Z</time>
      </trkpt>
      <trkpt lat="43.56859" lon="6.78021">
        <ele>338.4</ele>
        <time>2025-01-10T11:05:26.000Z</time>
      </trkpt>
      <trkpt lat="43.56859" lon="6.78021">
        <ele>338.5</ele>
        <time>2025-01-10T11:05:25.000Z</time>
      </trkpt>
      <trkpt lat="43.56859" lon="6.78021">
        <ele>338.5</ele>
        <time>2025-01-10T11:05:24.000Z</time>
      </trkpt>
      <trkpt lat="43.56859" lon="6.78021">
        <ele>338.5</ele>
        <time>2025-01-10T11:05:23.000Z</time>
      </trkpt>
      <trkpt lat="43.56859" lon="6.78022">
        <ele>338.5</ele>
        <time>2025-01-10T11:05:22.000Z</time>
      </trkpt>
      <trkpt lat="43.56859" lon="6.78022">
        <ele>338.6</ele>
        <time>2025-01-10T11:05:21.000Z</time>
      </trkpt>
      <trkpt lat="43.56859" lon="6.78022">
        <ele>338.6</ele>
        <time>2025-01-10T11:05:20.000Z</time>
      </trkpt>
      <trkpt lat="43.56859" lon="6.78022">
        <ele>338.6</ele>
        <time>2025-01-10T11:05:19.000Z</time>
      </trkpt>
      <trkpt lat="43.56859" lon="6.78023">
        <ele>338.6</ele>
        <time>2025-01-10T11:05:18.000Z</time>
      </trkpt>
      <trkpt lat="43.56859" lon="6.78023">
        <ele>338.6</ele>
        <time>2025-01-10T11:05:17.000Z</time>
      </trkpt>
      <trkpt lat="43.56859" lon="6.78023">
        <ele>338.7</ele>
        <time>2025-01-10T11:05:16.000Z</time>
      </trkpt>
      <trkpt lat="43.56859" lon="6.78023">
        <ele>338.7</ele>
        <time>2025-01-10T11:05:15.000Z</time>
      </trkpt>
      <trkpt lat="43.56859" lon="6.78024">
        <ele>338.7</ele>
        <time>2025-01-10T11:05:14.000Z</time>
      </trkpt>
      <trkpt lat="43.56859" lon="6.78024">
        <ele>338.7</ele>
        <time>2025-01-10T11:05:13.000Z</time>
      </trkpt>
      <trkpt lat="43.5686" lon="6.78024">
        <ele>338.7</ele>
        <time>2025-01-10T11:05:12.000Z</time>
      </trkpt>
      <trkpt lat="43.5686" lon="6.78024">
        <ele>338.8</ele>
        <time>2025-01-10T11:05:11.000Z</time>
      </trkpt>
      <trkpt lat="43.5686" lon="6.78025">
        <ele>338.8</ele>
        <time>2025-01-10T11:05:10.000Z</time>
      </trkpt>
      <trkpt lat="43.5686" lon="6.78025">
        <ele>338.8</ele>
        <time>2025-01-10T11:05:09.000Z</time>
      </trkpt>
      <trkpt lat="43.5686" lon="6.78025">
        <ele>338.8</ele>
        <time>2025-01-10T11:05:08.000Z</time>
      </trkpt>
      <trkpt lat="43.5686" lon="6.78025">
        <ele>338.8</ele>
        <time>2025-01-10T11:05:07.000Z</time>
      </trkpt>
      <trkpt lat="43.5686" lon="6.78026">
        <ele>338.9</ele>
        <time>2025-01-10T11:05:06.000Z</time>
      </trkpt>
      <trkpt lat="43.5686" lon="6.78026">
        <ele>338.9</ele>
        <time>2025-01-10T11:05:05.000Z</time>
      </trkpt>
      <trkpt lat="43.5686" lon="6.78026">
        <ele>338.9</ele>
        <time>2025-01-10T11:05:04.000Z</time>
      </trkpt>
      <trkpt lat="43.5686" lon="6.78027">
        <ele>338.9</ele>
        <time>2025-01-10T11:05:03.000Z</time>
      </trkpt>
      <trkpt lat="43.5686" lon="6.78027">
        <ele>339</ele>
        <time>2025-01-10T11:05:02.000Z</time>
      </trkpt>
      <trkpt lat="43.5686" lon="6.78027">
        <ele>339</ele>
        <time>2025-01-10T11:05:01.000Z</time>
      </trkpt>
      <trkpt lat="43.5686" lon="6.78027">
        <ele>339</ele>
        <time>2025-01-10T11:05:00.000Z</time>
      </trkpt>
      <trkpt lat="43.5686" lon="6.78028">
        <ele>339</ele>
        <time>2025-01-10T11:04:59.000Z</time>
      </trkpt>
      <trkpt lat="43.5686" lon="6.78028">
        <ele>339</ele>
        <time>2025-01-10T11:04:58.000Z</time>
      </trkpt>
      <trkpt lat="43.5686" lon="6.78028">
        <ele>339.1</ele>
        <time>2025-01-10T11:04:57.000Z</time>
      </trkpt>
      <trkpt lat="43.5686" lon="6.78028">
        <ele>339.1</ele>
        <time>2025-01-10T11:04:56.000Z</time>
      </trkpt>
      <trkpt lat="43.5686" lon="6.78029">
        <ele>339.1</ele>
        <time>2025-01-10T11:04:55.000Z</time>
      </trkpt>
      <trkpt lat="43.5686" lon="6.78029">
        <ele>339.1</ele>
        <time>2025-01-10T11:04:54.000Z</time>
      </trkpt>
      <trkpt lat="43.56861" lon="6.78029">
        <ele>339.2</ele>
        <time>2025-01-10T11:04:53.000Z</time>
      </trkpt>
      <trkpt lat="43.56861" lon="6.7803">
        <ele>339.2</ele>
        <time>2025-01-10T11:04:52.000Z</time>
      </trkpt>
      <trkpt lat="43.56862" lon="6.78031">
        <ele>339.3</ele>
        <time>2025-01-10T11:04:51.000Z</time>
      </trkpt>
      <trkpt lat="43.56863" lon="6.78032">
        <ele>339.5</ele>
        <time>2025-01-10T11:04:50.000Z</time>
      </trkpt>
      <trkpt lat="43.56865" lon="6.78035">
        <ele>339.7</ele>
        <time>2025-01-10T11:04:49.000Z</time>
      </trkpt>
      <trkpt lat="43.56867" lon="6.78039">
        <ele>339.9</ele>
        <time>2025-01-10T11:04:48.000Z</time>
      </trkpt>
      <trkpt lat="43.56869" lon="6.78042">
        <ele>340.1</ele>
        <time>2025-01-10T11:04:47.000Z</time>
      </trkpt>
      <trkpt lat="43.56871" lon="6.78045">
        <ele>340.3</ele>
        <time>2025-01-10T11:04:46.000Z</time>
      </trkpt>
      <trkpt lat="43.56873" lon="6.78048">
        <ele>340.5</ele>
        <time>2025-01-10T11:04:45.000Z</time>
      </trkpt>
      <trkpt lat="43.56876" lon="6.78051">
        <ele>340.6</ele>
        <time>2025-01-10T11:04:44.000Z</time>
      </trkpt>
      <trkpt lat="43.56878" lon="6.78054">
        <ele>340.7</ele>
        <time>2025-01-10T11:04:43.000Z</time>
      </trkpt>
      <trkpt lat="43.5688" lon="6.78057">
        <ele>340.7</ele>
        <time>2025-01-10T11:04:42.000Z</time>
      </trkpt>
      <trkpt lat="43.56883" lon="6.78061">
        <ele>340.8</ele>
        <time>2025-01-10T11:04:41.000Z</time>
      </trkpt>
      <trkpt lat="43.56886" lon="6.78064">
        <ele>340.9</ele>
        <time>2025-01-10T11:04:40.000Z</time>
      </trkpt>
      <trkpt lat="43.56889" lon="6.78067">
        <ele>341</ele>
        <time>2025-01-10T11:04:39.000Z</time>
      </trkpt>
      <trkpt lat="43.56892" lon="6.7807">
        <ele>341</ele>
        <time>2025-01-10T11:04:38.000Z</time>
      </trkpt>
      <trkpt lat="43.56896" lon="6.78073">
        <ele>341</ele>
        <time>2025-01-10T11:04:37.000Z</time>
      </trkpt>
      <trkpt lat="43.56899" lon="6.78075">
        <ele>341</ele>
        <time>2025-01-10T11:04:36.000Z</time>
      </trkpt>
      <trkpt lat="43.56902" lon="6.78077">
        <ele>340.9</ele>
        <time>2025-01-10T11:04:35.000Z</time>
      </trkpt>
      <trkpt lat="43.56905" lon="6.78079">
        <ele>340.9</ele>
        <time>2025-01-10T11:04:34.000Z</time>
      </trkpt>
      <trkpt lat="43.56907" lon="6.78081">
        <ele>340.8</ele>
        <time>2025-01-10T11:04:33.000Z</time>
      </trkpt>
      <trkpt lat="43.56907" lon="6.78081">
        <ele>340.8</ele>
        <time>2025-01-10T11:04:32.000Z</time>
      </trkpt>
      <trkpt lat="43.56907" lon="6.78081">
        <ele>340.8</ele>
        <time>2025-01-10T11:04:31.000Z</time>
      </trkpt>
      <trkpt lat="43.56907" lon="6.78081">
        <ele>340.8</ele>
        <time>2025-01-10T11:04:30.000Z</time>
      </trkpt>
      <trkpt lat="43.56907" lon="6.78081">
        <ele>340.8</ele>
        <time>2025-01-10T11:04:29.000Z</time>
      </trkpt>
      <trkpt lat="43.56907" lon="6.78081">
        <ele>340.8</ele>
        <time>2025-01-10T11:04:28.000Z</time>
      </trkpt>
      <trkpt lat="43.56907" lon="6.78081">
        <ele>340.8</ele>
        <time>2025-01-10T11:04:27.000Z</time>
      </trkpt>
      <trkpt lat="43.56907" lon="6.78081">
        <ele>340.8</ele>
        <time>2025-01-10T11:04:26.000Z</time>
      </trkpt>
      <trkpt lat="43.56907" lon="6.78081">
        <ele>340.8</ele>
        <time>2025-01-10T11:04:25.000Z</time>
      </trkpt>
      <trkpt lat="43.56908" lon="6.78081">
        <ele>340.8</ele>
        <time>2025-01-10T11:04:24.000Z</time>
      </trkpt>
      <trkpt lat="43.56908" lon="6.7808">
        <ele>340.8</ele>
        <time>2025-01-10T11:04:23.000Z</time>
      </trkpt>
      <trkpt lat="43.56908" lon="6.78081">
        <ele>340.8</ele>
        <time>2025-01-10T11:04:22.000Z</time>
      </trkpt>
      <trkpt lat="43.56908" lon="6.78081">
        <ele>340.7</ele>
        <time>2025-01-10T11:04:21.000Z</time>
      </trkpt>
      <trkpt lat="43.56909" lon="6.7808">
        <ele>340.7</ele>
        <time>2025-01-10T11:04:20.000Z</time>
      </trkpt>
      <trkpt lat="43.56909" lon="6.78081">
        <ele>340.7</ele>
        <time>2025-01-10T11:04:19.000Z</time>
      </trkpt>
      <trkpt lat="43.56908" lon="6.7808">
        <ele>340.7</ele>
        <time>2025-01-10T11:04:18.000Z</time>
      </trkpt>
      <trkpt lat="43.56908" lon="6.78081">
        <ele>340.7</ele>
        <time>2025-01-10T11:04:17.000Z</time>
      </trkpt>
      <trkpt lat="43.56908" lon="6.78081">
        <ele>340.7</ele>
        <time>2025-01-10T11:04:16.000Z</time>
      </trkpt>
      <trkpt lat="43.56909" lon="6.78081">
        <ele>340.7</ele>
        <time>2025-01-10T11:04:15.000Z</time>
      </trkpt>
      <trkpt lat="43.5691" lon="6.78082">
        <ele>340.7</ele>
        <time>2025-01-10T11:04:14.000Z</time>
      </trkpt>
      <trkpt lat="43.56911" lon="6.78084">
        <ele>340.6</ele>
        <time>2025-01-10T11:04:13.000Z</time>
      </trkpt>
      <trkpt lat="43.56913" lon="6.78086">
        <ele>340.5</ele>
        <time>2025-01-10T11:04:12.000Z</time>
      </trkpt>
      <trkpt lat="43.56915" lon="6.78089">
        <ele>340.4</ele>
        <time>2025-01-10T11:04:11.000Z</time>
      </trkpt>
      <trkpt lat="43.56917" lon="6.7809">
        <ele>340.3</ele>
        <time>2025-01-10T11:04:10.000Z</time>
      </trkpt>
      <trkpt lat="43.5692" lon="6.78092">
        <ele>340.2</ele>
        <time>2025-01-10T11:04:09.000Z</time>
      </trkpt>
      <trkpt lat="43.56923" lon="6.78094">
        <ele>340</ele>
        <time>2025-01-10T11:04:08.000Z</time>
      </trkpt>
      <trkpt lat="43.56926" lon="6.78096">
        <ele>339.9</ele>
        <time>2025-01-10T11:04:07.000Z</time>
      </trkpt>
      <trkpt lat="43.56929" lon="6.78098">
        <ele>339.7</ele>
        <time>2025-01-10T11:04:06.000Z</time>
      </trkpt>
      <trkpt lat="43.56933" lon="6.78101">
        <ele>339.5</ele>
        <time>2025-01-10T11:04:05.000Z</time>
      </trkpt>
      <trkpt lat="43.56937" lon="6.78103">
        <ele>339.3</ele>
        <time>2025-01-10T11:04:04.000Z</time>
      </trkpt>
      <trkpt lat="43.56941" lon="6.78105">
        <ele>339</ele>
        <time>2025-01-10T11:04:03.000Z</time>
      </trkpt>
      <trkpt lat="43.56945" lon="6.78106">
        <ele>338.7</ele>
        <time>2025-01-10T11:04:02.000Z</time>
      </trkpt>
      <trkpt lat="43.56949" lon="6.78107">
        <ele>338.5</ele>
        <time>2025-01-10T11:04:01.000Z</time>
      </trkpt>
      <trkpt lat="43.56953" lon="6.78108">
        <ele>338.2</ele>
        <time>2025-01-10T11:04:00.000Z</time>
      </trkpt>
      <trkpt lat="43.56957" lon="6.78108">
        <ele>338</ele>
        <time>2025-01-10T11:03:59.000Z</time>
      </trkpt>
      <trkpt lat="43.56961" lon="6.78109">
        <ele>337.8</ele>
        <time>2025-01-10T11:03:58.000Z</time>
      </trkpt>
      <trkpt lat="43.56964" lon="6.7811">
        <ele>337.6</ele>
        <time>2025-01-10T11:03:57.000Z</time>
      </trkpt>
      <trkpt lat="43.56969" lon="6.78112">
        <ele>337.3</ele>
        <time>2025-01-10T11:03:56.000Z</time>
      </trkpt>
      <trkpt lat="43.56973" lon="6.78114">
        <ele>337.1</ele>
        <time>2025-01-10T11:03:55.000Z</time>
      </trkpt>
      <trkpt lat="43.56976" lon="6.78115">
        <ele>336.9</ele>
        <time>2025-01-10T11:03:54.000Z</time>
      </trkpt>
      <trkpt lat="43.5698" lon="6.78117">
        <ele>336.7</ele>
        <time>2025-01-10T11:03:53.000Z</time>
      </trkpt>
      <trkpt lat="43.56982" lon="6.78118">
        <ele>336.5</ele>
        <time>2025-01-10T11:03:52.000Z</time>
      </trkpt>
      <trkpt lat="43.56987" lon="6.7812">
        <ele>336.2</ele>
        <time>2025-01-10T11:03:51.000Z</time>
      </trkpt>
      <trkpt lat="43.5699" lon="6.78121">
        <ele>336</ele>
        <time>2025-01-10T11:03:50.000Z</time>
      </trkpt>
      <trkpt lat="43.56994" lon="6.78123">
        <ele>335.8</ele>
        <time>2025-01-10T11:03:49.000Z</time>
      </trkpt>
      <trkpt lat="43.56998" lon="6.78125">
        <ele>335.7</ele>
        <time>2025-01-10T11:03:48.000Z</time>
      </trkpt>
      <trkpt lat="43.57001" lon="6.78127">
        <ele>335.5</ele>
        <time>2025-01-10T11:03:47.000Z</time>
      </trkpt>
      <trkpt lat="43.57005" lon="6.78129">
        <ele>335.4</ele>
        <time>2025-01-10T11:03:46.000Z</time>
      </trkpt>
      <trkpt lat="43.57009" lon="6.7813">
        <ele>335.3</ele>
        <time>2025-01-10T11:03:45.000Z</time>
      </trkpt>
      <trkpt lat="43.57013" lon="6.78132">
        <ele>335.2</ele>
        <time>2025-01-10T11:03:44.000Z</time>
      </trkpt>
      <trkpt lat="43.57016" lon="6.78133">
        <ele>335.1</ele>
        <time>2025-01-10T11:03:43.000Z</time>
      </trkpt>
      <trkpt lat="43.5702" lon="6.78135">
        <ele>335.1</ele>
        <time>2025-01-10T11:03:42.000Z</time>
      </trkpt>
      <trkpt lat="43.57024" lon="6.78136">
        <ele>335</ele>
        <time>2025-01-10T11:03:41.000Z</time>
      </trkpt>
      <trkpt lat="43.57029" lon="6.78138">
        <ele>335</ele>
        <time>2025-01-10T11:03:40.000Z</time>
      </trkpt>
      <trkpt lat="43.57033" lon="6.7814">
        <ele>335</ele>
        <time>2025-01-10T11:03:39.000Z</time>
      </trkpt>
      <trkpt lat="43.57036" lon="6.78141">
        <ele>335</ele>
        <time>2025-01-10T11:03:38.000Z</time>
      </trkpt>
      <trkpt lat="43.5704" lon="6.78143">
        <ele>334.9</ele>
        <time>2025-01-10T11:03:37.000Z</time>
      </trkpt>
      <trkpt lat="43.57043" lon="6.78144">
        <ele>334.9</ele>
        <time>2025-01-10T11:03:36.000Z</time>
      </trkpt>
      <trkpt lat="43.57047" lon="6.78144">
        <ele>334.8</ele>
        <time>2025-01-10T11:03:35.000Z</time>
      </trkpt>
      <trkpt lat="43.5705" lon="6.78145">
        <ele>334.7</ele>
        <time>2025-01-10T11:03:34.000Z</time>
      </trkpt>
      <trkpt lat="43.57053" lon="6.78146">
        <ele>334.6</ele>
        <time>2025-01-10T11:03:33.000Z</time>
      </trkpt>
      <trkpt lat="43.57056" lon="6.78148">
        <ele>334.4</ele>
        <time>2025-01-10T11:03:32.000Z</time>
      </trkpt>
      <trkpt lat="43.57059" lon="6.78148">
        <ele>334.2</ele>
        <time>2025-01-10T11:03:31.000Z</time>
      </trkpt>
      <trkpt lat="43.57061" lon="6.78149">
        <ele>334</ele>
        <time>2025-01-10T11:03:30.000Z</time>
      </trkpt>
      <trkpt lat="43.57064" lon="6.78149">
        <ele>333.8</ele>
        <time>2025-01-10T11:03:29.000Z</time>
      </trkpt>
      <trkpt lat="43.57066" lon="6.78149">
        <ele>333.6</ele>
        <time>2025-01-10T11:03:28.000Z</time>
      </trkpt>
      <trkpt lat="43.57069" lon="6.78149">
        <ele>333.3</ele>
        <time>2025-01-10T11:03:27.000Z</time>
      </trkpt>
      <trkpt lat="43.57072" lon="6.78149">
        <ele>333</ele>
        <time>2025-01-10T11:03:26.000Z</time>
      </trkpt>
      <trkpt lat="43.57074" lon="6.78149">
        <ele>332.7</ele>
        <time>2025-01-10T11:03:25.000Z</time>
      </trkpt>
      <trkpt lat="43.57077" lon="6.78149">
        <ele>332.3</ele>
        <time>2025-01-10T11:03:24.000Z</time>
      </trkpt>
      <trkpt lat="43.5708" lon="6.78149">
        <ele>331.9</ele>
        <time>2025-01-10T11:03:23.000Z</time>
      </trkpt>
      <trkpt lat="43.57082" lon="6.78149">
        <ele>331.5</ele>
        <time>2025-01-10T11:03:22.000Z</time>
      </trkpt>
      <trkpt lat="43.57085" lon="6.78149">
        <ele>331.2</ele>
        <time>2025-01-10T11:03:21.000Z</time>
      </trkpt>
      <trkpt lat="43.57087" lon="6.7815">
        <ele>330.7</ele>
        <time>2025-01-10T11:03:20.000Z</time>
      </trkpt>
      <trkpt lat="43.5709" lon="6.7815">
        <ele>330.3</ele>
        <time>2025-01-10T11:03:19.000Z</time>
      </trkpt>
      <trkpt lat="43.57092" lon="6.78151">
        <ele>329.8</ele>
        <time>2025-01-10T11:03:18.000Z</time>
      </trkpt>
      <trkpt lat="43.57095" lon="6.78152">
        <ele>329.4</ele>
        <time>2025-01-10T11:03:17.000Z</time>
      </trkpt>
      <trkpt lat="43.57097" lon="6.78152">
        <ele>329</ele>
        <time>2025-01-10T11:03:16.000Z</time>
      </trkpt>
      <trkpt lat="43.57099" lon="6.78152">
        <ele>328.5</ele>
        <time>2025-01-10T11:03:15.000Z</time>
      </trkpt>
      <trkpt lat="43.57102" lon="6.78152">
        <ele>328</ele>
        <time>2025-01-10T11:03:14.000Z</time>
      </trkpt>
      <trkpt lat="43.57105" lon="6.78152">
        <ele>327.6</ele>
        <time>2025-01-10T11:03:13.000Z</time>
      </trkpt>
      <trkpt lat="43.57107" lon="6.78151">
        <ele>327.1</ele>
        <time>2025-01-10T11:03:12.000Z</time>
      </trkpt>
      <trkpt lat="43.5711" lon="6.78151">
        <ele>326.6</ele>
        <time>2025-01-10T11:03:11.000Z</time>
      </trkpt>
      <trkpt lat="43.57112" lon="6.7815">
        <ele>326.2</ele>
        <time>2025-01-10T11:03:10.000Z</time>
      </trkpt>
      <trkpt lat="43.57115" lon="6.7815">
        <ele>325.8</ele>
        <time>2025-01-10T11:03:09.000Z</time>
      </trkpt>
      <trkpt lat="43.57117" lon="6.7815">
        <ele>325.4</ele>
        <time>2025-01-10T11:03:08.000Z</time>
      </trkpt>
      <trkpt lat="43.5712" lon="6.7815">
        <ele>325</ele>
        <time>2025-01-10T11:03:07.000Z</time>
      </trkpt>
      <trkpt lat="43.57122" lon="6.7815">
        <ele>324.6</ele>
        <time>2025-01-10T11:03:06.000Z</time>
      </trkpt>
      <trkpt lat="43.57125" lon="6.7815">
        <ele>324.2</ele>
        <time>2025-01-10T11:03:05.000Z</time>
      </trkpt>
      <trkpt lat="43.57127" lon="6.78149">
        <ele>323.9</ele>
        <time>2025-01-10T11:03:04.000Z</time>
      </trkpt>
      <trkpt lat="43.5713" lon="6.78149">
        <ele>323.5</ele>
        <time>2025-01-10T11:03:03.000Z</time>
      </trkpt>
      <trkpt lat="43.57132" lon="6.7815">
        <ele>323.1</ele>
        <time>2025-01-10T11:03:02.000Z</time>
      </trkpt>
      <trkpt lat="43.57135" lon="6.7815">
        <ele>322.7</ele>
        <time>2025-01-10T11:03:01.000Z</time>
      </trkpt>
      <trkpt lat="43.57138" lon="6.78151">
        <ele>322.4</ele>
        <time>2025-01-10T11:03:00.000Z</time>
      </trkpt>
      <trkpt lat="43.5714" lon="6.78151">
        <ele>322</ele>
        <time>2025-01-10T11:02:59.000Z</time>
      </trkpt>
      <trkpt lat="43.57143" lon="6.78151">
        <ele>321.7</ele>
        <time>2025-01-10T11:02:58.000Z</time>
      </trkpt>
      <trkpt lat="43.57145" lon="6.78151">
        <ele>321.3</ele>
        <time>2025-01-10T11:02:57.000Z</time>
      </trkpt>
      <trkpt lat="43.57147" lon="6.78151">
        <ele>321</ele>
        <time>2025-01-10T11:02:56.000Z</time>
      </trkpt>
      <trkpt lat="43.5715" lon="6.7815">
        <ele>320.6</ele>
        <time>2025-01-10T11:02:55.000Z</time>
      </trkpt>
      <trkpt lat="43.57153" lon="6.78149">
        <ele>320.2</ele>
        <time>2025-01-10T11:02:54.000Z</time>
      </trkpt>
      <trkpt lat="43.57155" lon="6.78149">
        <ele>319.8</ele>
        <time>2025-01-10T11:02:53.000Z</time>
      </trkpt>
      <trkpt lat="43.57158" lon="6.78148">
        <ele>319.5</ele>
        <time>2025-01-10T11:02:52.000Z</time>
      </trkpt>
      <trkpt lat="43.57161" lon="6.78147">
        <ele>319.1</ele>
        <time>2025-01-10T11:02:51.000Z</time>
      </trkpt>
      <trkpt lat="43.57164" lon="6.78146">
        <ele>318.6</ele>
        <time>2025-01-10T11:02:50.000Z</time>
      </trkpt>
      <trkpt lat="43.57166" lon="6.78146">
        <ele>318.3</ele>
        <time>2025-01-10T11:02:49.000Z</time>
      </trkpt>
      <trkpt lat="43.57169" lon="6.78145">
        <ele>317.9</ele>
        <time>2025-01-10T11:02:48.000Z</time>
      </trkpt>
      <trkpt lat="43.57171" lon="6.78144">
        <ele>317.6</ele>
        <time>2025-01-10T11:02:47.000Z</time>
      </trkpt>
      <trkpt lat="43.57174" lon="6.78143">
        <ele>317.2</ele>
        <time>2025-01-10T11:02:46.000Z</time>
      </trkpt>
      <trkpt lat="43.57176" lon="6.78142">
        <ele>316.8</ele>
        <time>2025-01-10T11:02:45.000Z</time>
      </trkpt>
      <trkpt lat="43.57179" lon="6.78141">
        <ele>316.4</ele>
        <time>2025-01-10T11:02:44.000Z</time>
      </trkpt>
      <trkpt lat="43.57181" lon="6.78139">
        <ele>316.1</ele>
        <time>2025-01-10T11:02:43.000Z</time>
      </trkpt>
      <trkpt lat="43.57184" lon="6.78138">
        <ele>315.7</ele>
        <time>2025-01-10T11:02:42.000Z</time>
      </trkpt>
      <trkpt lat="43.57186" lon="6.78137">
        <ele>315.3</ele>
        <time>2025-01-10T11:02:41.000Z</time>
      </trkpt>
      <trkpt lat="43.57189" lon="6.78137">
        <ele>315</ele>
        <time>2025-01-10T11:02:40.000Z</time>
      </trkpt>
      <trkpt lat="43.57191" lon="6.78136">
        <ele>314.6</ele>
        <time>2025-01-10T11:02:39.000Z</time>
      </trkpt>
      <trkpt lat="43.57194" lon="6.78135">
        <ele>314.3</ele>
        <time>2025-01-10T11:02:38.000Z</time>
      </trkpt>
      <trkpt lat="43.57196" lon="6.78135">
        <ele>313.9</ele>
        <time>2025-01-10T11:02:37.000Z</time>
      </trkpt>
      <trkpt lat="43.57199" lon="6.78134">
        <ele>313.6</ele>
        <time>2025-01-10T11:02:36.000Z</time>
      </trkpt>
      <trkpt lat="43.57201" lon="6.78133">
        <ele>313.2</ele>
        <time>2025-01-10T11:02:35.000Z</time>
      </trkpt>
      <trkpt lat="43.57204" lon="6.78132">
        <ele>312.9</ele>
        <time>2025-01-10T11:02:34.000Z</time>
      </trkpt>
      <trkpt lat="43.57207" lon="6.78131">
        <ele>312.6</ele>
        <time>2025-01-10T11:02:33.000Z</time>
      </trkpt>
      <trkpt lat="43.57209" lon="6.78131">
        <ele>312.3</ele>
        <time>2025-01-10T11:02:32.000Z</time>
      </trkpt>
      <trkpt lat="43.57212" lon="6.7813">
        <ele>312</ele>
        <time>2025-01-10T11:02:31.000Z</time>
      </trkpt>
      <trkpt lat="43.57214" lon="6.78129">
        <ele>311.8</ele>
        <time>2025-01-10T11:02:30.000Z</time>
      </trkpt>
      <trkpt lat="43.57217" lon="6.78128">
        <ele>311.5</ele>
        <time>2025-01-10T11:02:29.000Z</time>
      </trkpt>
      <trkpt lat="43.57219" lon="6.78127">
        <ele>311.2</ele>
        <time>2025-01-10T11:02:28.000Z</time>
      </trkpt>
      <trkpt lat="43.57222" lon="6.78127">
        <ele>310.9</ele>
        <time>2025-01-10T11:02:27.000Z</time>
      </trkpt>
      <trkpt lat="43.57225" lon="6.78126">
        <ele>310.7</ele>
        <time>2025-01-10T11:02:26.000Z</time>
      </trkpt>
      <trkpt lat="43.57227" lon="6.78125">
        <ele>310.4</ele>
        <time>2025-01-10T11:02:25.000Z</time>
      </trkpt>
      <trkpt lat="43.5723" lon="6.78125">
        <ele>310.1</ele>
        <time>2025-01-10T11:02:24.000Z</time>
      </trkpt>
      <trkpt lat="43.57232" lon="6.78125">
        <ele>309.9</ele>
        <time>2025-01-10T11:02:23.000Z</time>
      </trkpt>
      <trkpt lat="43.57234" lon="6.78124">
        <ele>309.7</ele>
        <time>2025-01-10T11:02:22.000Z</time>
      </trkpt>
      <trkpt lat="43.57237" lon="6.78124">
        <ele>309.4</ele>
        <time>2025-01-10T11:02:21.000Z</time>
      </trkpt>
      <trkpt lat="43.5724" lon="6.78123">
        <ele>309.2</ele>
        <time>2025-01-10T11:02:20.000Z</time>
      </trkpt>
      <trkpt lat="43.57243" lon="6.78123">
        <ele>308.9</ele>
        <time>2025-01-10T11:02:19.000Z</time>
      </trkpt>
      <trkpt lat="43.57245" lon="6.78123">
        <ele>308.6</ele>
        <time>2025-01-10T11:02:18.000Z</time>
      </trkpt>
      <trkpt lat="43.57248" lon="6.78122">
        <ele>308.4</ele>
        <time>2025-01-10T11:02:17.000Z</time>
      </trkpt>
      <trkpt lat="43.57251" lon="6.78122">
        <ele>308.1</ele>
        <time>2025-01-10T11:02:16.000Z</time>
      </trkpt>
      <trkpt lat="43.57253" lon="6.78122">
        <ele>307.8</ele>
        <time>2025-01-10T11:02:15.000Z</time>
      </trkpt>
      <trkpt lat="43.57256" lon="6.78122">
        <ele>307.5</ele>
        <time>2025-01-10T11:02:14.000Z</time>
      </trkpt>
      <trkpt lat="43.57259" lon="6.78122">
        <ele>307.2</ele>
        <time>2025-01-10T11:02:13.000Z</time>
      </trkpt>
      <trkpt lat="43.57261" lon="6.78122">
        <ele>306.9</ele>
        <time>2025-01-10T11:02:12.000Z</time>
      </trkpt>
      <trkpt lat="43.57264" lon="6.78122">
        <ele>306.5</ele>
        <time>2025-01-10T11:02:11.000Z</time>
      </trkpt>
      <trkpt lat="43.57266" lon="6.78122">
        <ele>306.2</ele>
        <time>2025-01-10T11:02:10.000Z</time>
      </trkpt>
      <trkpt lat="43.57269" lon="6.78123">
        <ele>305.8</ele>
        <time>2025-01-10T11:02:09.000Z</time>
      </trkpt>
      <trkpt lat="43.57272" lon="6.78123">
        <ele>305.4</ele>
        <time>2025-01-10T11:02:08.000Z</time>
      </trkpt>
      <trkpt lat="43.57274" lon="6.78124">
        <ele>305.1</ele>
        <time>2025-01-10T11:02:07.000Z</time>
      </trkpt>
      <trkpt lat="43.57276" lon="6.78124">
        <ele>304.7</ele>
        <time>2025-01-10T11:02:06.000Z</time>
      </trkpt>
      <trkpt lat="43.57279" lon="6.78125">
        <ele>304.3</ele>
        <time>2025-01-10T11:02:05.000Z</time>
      </trkpt>
      <trkpt lat="43.57281" lon="6.78126">
        <ele>304</ele>
        <time>2025-01-10T11:02:04.000Z</time>
      </trkpt>
      <trkpt lat="43.57283" lon="6.78127">
        <ele>303.6</ele>
        <time>2025-01-10T11:02:03.000Z</time>
      </trkpt>
      <trkpt lat="43.57286" lon="6.78128">
        <ele>303.2</ele>
        <time>2025-01-10T11:02:02.000Z</time>
      </trkpt>
      <trkpt lat="43.57288" lon="6.7813">
        <ele>302.8</ele>
        <time>2025-01-10T11:02:01.000Z</time>
      </trkpt>
      <trkpt lat="43.5729" lon="6.78132">
        <ele>302.4</ele>
        <time>2025-01-10T11:02:00.000Z</time>
      </trkpt>
      <trkpt lat="43.57292" lon="6.78134">
        <ele>302</ele>
        <time>2025-01-10T11:01:59.000Z</time>
      </trkpt>
      <trkpt lat="43.57294" lon="6.78137">
        <ele>301.5</ele>
        <time>2025-01-10T11:01:58.000Z</time>
      </trkpt>
      <trkpt lat="43.57295" lon="6.7814">
        <ele>301.1</ele>
        <time>2025-01-10T11:01:57.000Z</time>
      </trkpt>
      <trkpt lat="43.57297" lon="6.78143">
        <ele>300.7</ele>
        <time>2025-01-10T11:01:56.000Z</time>
      </trkpt>
      <trkpt lat="43.57298" lon="6.78146">
        <ele>300.3</ele>
        <time>2025-01-10T11:01:55.000Z</time>
      </trkpt>
      <trkpt lat="43.57299" lon="6.78149">
        <ele>300</ele>
        <time>2025-01-10T11:01:54.000Z</time>
      </trkpt>
      <trkpt lat="43.57301" lon="6.78152">
        <ele>299.6</ele>
        <time>2025-01-10T11:01:53.000Z</time>
      </trkpt>
      <trkpt lat="43.57302" lon="6.78154">
        <ele>299.3</ele>
        <time>2025-01-10T11:01:52.000Z</time>
      </trkpt>
      <trkpt lat="43.57304" lon="6.78156">
        <ele>298.9</ele>
        <time>2025-01-10T11:01:51.000Z</time>
      </trkpt>
      <trkpt lat="43.57306" lon="6.78158">
        <ele>298.5</ele>
        <time>2025-01-10T11:01:50.000Z</time>
      </trkpt>
      <trkpt lat="43.57309" lon="6.78158">
        <ele>298.2</ele>
        <time>2025-01-10T11:01:49.000Z</time>
      </trkpt>
      <trkpt lat="43.57311" lon="6.78159">
        <ele>297.8</ele>
        <time>2025-01-10T11:01:48.000Z</time>
      </trkpt>
      <trkpt lat="43.57313" lon="6.78158">
        <ele>297.5</ele>
        <time>2025-01-10T11:01:47.000Z</time>
      </trkpt>
      <trkpt lat="43.57316" lon="6.78158">
        <ele>297</ele>
        <time>2025-01-10T11:01:46.000Z</time>
      </trkpt>
      <trkpt lat="43.57318" lon="6.78157">
        <ele>296.6</ele>
        <time>2025-01-10T11:01:45.000Z</time>
      </trkpt>
      <trkpt lat="43.57321" lon="6.78156">
        <ele>296.3</ele>
        <time>2025-01-10T11:01:44.000Z</time>
      </trkpt>
      <trkpt lat="43.57323" lon="6.78155">
        <ele>295.8</ele>
        <time>2025-01-10T11:01:43.000Z</time>
      </trkpt>
      <trkpt lat="43.57325" lon="6.78153">
        <ele>295.4</ele>
        <time>2025-01-10T11:01:42.000Z</time>
      </trkpt>
      <trkpt lat="43.57327" lon="6.78152">
        <ele>295</ele>
        <time>2025-01-10T11:01:41.000Z</time>
      </trkpt>
      <trkpt lat="43.5733" lon="6.78151">
        <ele>294.6</ele>
        <time>2025-01-10T11:01:40.000Z</time>
      </trkpt>
      <trkpt lat="43.57332" lon="6.7815">
        <ele>294.2</ele>
        <time>2025-01-10T11:01:39.000Z</time>
      </trkpt>
      <trkpt lat="43.57334" lon="6.78149">
        <ele>293.8</ele>
        <time>2025-01-10T11:01:38.000Z</time>
      </trkpt>
      <trkpt lat="43.57337" lon="6.78149">
        <ele>293.4</ele>
        <time>2025-01-10T11:01:37.000Z</time>
      </trkpt>
      <trkpt lat="43.57339" lon="6.78148">
        <ele>293</ele>
        <time>2025-01-10T11:01:36.000Z</time>
      </trkpt>
      <trkpt lat="43.57342" lon="6.78147">
        <ele>292.6</ele>
        <time>2025-01-10T11:01:35.000Z</time>
      </trkpt>
      <trkpt lat="43.57344" lon="6.78146">
        <ele>292.1</ele>
        <time>2025-01-10T11:01:34.000Z</time>
      </trkpt>
      <trkpt lat="43.57347" lon="6.78145">
        <ele>291.7</ele>
        <time>2025-01-10T11:01:33.000Z</time>
      </trkpt>
      <trkpt lat="43.5735" lon="6.78144">
        <ele>291.2</ele>
        <time>2025-01-10T11:01:32.000Z</time>
      </trkpt>
      <trkpt lat="43.57352" lon="6.78144">
        <ele>290.9</ele>
        <time>2025-01-10T11:01:31.000Z</time>
      </trkpt>
      <trkpt lat="43.57355" lon="6.78143">
        <ele>290.4</ele>
        <time>2025-01-10T11:01:30.000Z</time>
      </trkpt>
      <trkpt lat="43.57358" lon="6.78142">
        <ele>289.9</ele>
        <time>2025-01-10T11:01:29.000Z</time>
      </trkpt>
      <trkpt lat="43.57361" lon="6.7814">
        <ele>289.5</ele>
        <time>2025-01-10T11:01:28.000Z</time>
      </trkpt>
      <trkpt lat="43.57363" lon="6.78139">
        <ele>289.1</ele>
        <time>2025-01-10T11:01:27.000Z</time>
      </trkpt>
      <trkpt lat="43.57366" lon="6.78138">
        <ele>288.7</ele>
        <time>2025-01-10T11:01:26.000Z</time>
      </trkpt>
      <trkpt lat="43.57368" lon="6.78137">
        <ele>288.4</ele>
        <time>2025-01-10T11:01:25.000Z</time>
      </trkpt>
      <trkpt lat="43.57371" lon="6.78136">
        <ele>287.9</ele>
        <time>2025-01-10T11:01:24.000Z</time>
      </trkpt>
      <trkpt lat="43.57373" lon="6.78134">
        <ele>287.4</ele>
        <time>2025-01-10T11:01:23.000Z</time>
      </trkpt>
      <trkpt lat="43.57376" lon="6.78133">
        <ele>287</ele>
        <time>2025-01-10T11:01:22.000Z</time>
      </trkpt>
      <trkpt lat="43.57379" lon="6.78131">
        <ele>286.5</ele>
        <time>2025-01-10T11:01:21.000Z</time>
      </trkpt>
      <trkpt lat="43.57382" lon="6.7813">
        <ele>286.1</ele>
        <time>2025-01-10T11:01:20.000Z</time>
      </trkpt>
      <trkpt lat="43.57384" lon="6.78129">
        <ele>285.7</ele>
        <time>2025-01-10T11:01:19.000Z</time>
      </trkpt>
      <trkpt lat="43.57387" lon="6.78128">
        <ele>285.2</ele>
        <time>2025-01-10T11:01:18.000Z</time>
      </trkpt>
      <trkpt lat="43.57391" lon="6.78127">
        <ele>284.8</ele>
        <time>2025-01-10T11:01:17.000Z</time>
      </trkpt>
      <trkpt lat="43.57394" lon="6.78125">
        <ele>284.4</ele>
        <time>2025-01-10T11:01:16.000Z</time>
      </trkpt>
      <trkpt lat="43.57397" lon="6.78124">
        <ele>284</ele>
        <time>2025-01-10T11:01:15.000Z</time>
      </trkpt>
      <trkpt lat="43.574" lon="6.78123">
        <ele>283.6</ele>
        <time>2025-01-10T11:01:14.000Z</time>
      </trkpt>
      <trkpt lat="43.57402" lon="6.78122">
        <ele>283.2</ele>
        <time>2025-01-10T11:01:13.000Z</time>
      </trkpt>
      <trkpt lat="43.57405" lon="6.7812">
        <ele>282.8</ele>
        <time>2025-01-10T11:01:12.000Z</time>
      </trkpt>
      <trkpt lat="43.57408" lon="6.78118">
        <ele>282.3</ele>
        <time>2025-01-10T11:01:11.000Z</time>
      </trkpt>
      <trkpt lat="43.57411" lon="6.78116">
        <ele>281.9</ele>
        <time>2025-01-10T11:01:10.000Z</time>
      </trkpt>
      <trkpt lat="43.57414" lon="6.78113">
        <ele>281.5</ele>
        <time>2025-01-10T11:01:09.000Z</time>
      </trkpt>
      <trkpt lat="43.57417" lon="6.78111">
        <ele>281.1</ele>
        <time>2025-01-10T11:01:08.000Z</time>
      </trkpt>
      <trkpt lat="43.57419" lon="6.78109">
        <ele>280.7</ele>
        <time>2025-01-10T11:01:07.000Z</time>
      </trkpt>
      <trkpt lat="43.57422" lon="6.78106">
        <ele>280.3</ele>
        <time>2025-01-10T11:01:06.000Z</time>
      </trkpt>
      <trkpt lat="43.57425" lon="6.78104">
        <ele>279.9</ele>
        <time>2025-01-10T11:01:05.000Z</time>
      </trkpt>
      <trkpt lat="43.57428" lon="6.78102">
        <ele>279.5</ele>
        <time>2025-01-10T11:01:04.000Z</time>
      </trkpt>
      <trkpt lat="43.57431" lon="6.781">
        <ele>279</ele>
        <time>2025-01-10T11:01:03.000Z</time>
      </trkpt>
      <trkpt lat="43.57434" lon="6.78098">
        <ele>278.6</ele>
        <time>2025-01-10T11:01:02.000Z</time>
      </trkpt>
      <trkpt lat="43.57437" lon="6.78097">
        <ele>278.3</ele>
        <time>2025-01-10T11:01:01.000Z</time>
      </trkpt>
      <trkpt lat="43.5744" lon="6.78095">
        <ele>277.9</ele>
        <time>2025-01-10T11:01:00.000Z</time>
      </trkpt>
      <trkpt lat="43.57443" lon="6.78094">
        <ele>277.5</ele>
        <time>2025-01-10T11:00:59.000Z</time>
      </trkpt>
      <trkpt lat="43.57446" lon="6.78092">
        <ele>277.1</ele>
        <time>2025-01-10T11:00:58.000Z</time>
      </trkpt>
      <trkpt lat="43.5745" lon="6.78091">
        <ele>276.7</ele>
        <time>2025-01-10T11:00:57.000Z</time>
      </trkpt>
      <trkpt lat="43.57453" lon="6.7809">
        <ele>276.3</ele>
        <time>2025-01-10T11:00:56.000Z</time>
      </trkpt>
      <trkpt lat="43.57456" lon="6.78088">
        <ele>275.9</ele>
        <time>2025-01-10T11:00:55.000Z</time>
      </trkpt>
      <trkpt lat="43.57459" lon="6.78087">
        <ele>275.5</ele>
        <time>2025-01-10T11:00:54.000Z</time>
      </trkpt>
      <trkpt lat="43.57462" lon="6.78085">
        <ele>275.1</ele>
        <time>2025-01-10T11:00:53.000Z</time>
      </trkpt>
      <trkpt lat="43.57465" lon="6.78084">
        <ele>274.7</ele>
        <time>2025-01-10T11:00:52.000Z</time>
      </trkpt>
      <trkpt lat="43.57468" lon="6.78082">
        <ele>274.4</ele>
        <time>2025-01-10T11:00:51.000Z</time>
      </trkpt>
      <trkpt lat="43.57471" lon="6.7808">
        <ele>274</ele>
        <time>2025-01-10T11:00:50.000Z</time>
      </trkpt>
      <trkpt lat="43.57474" lon="6.78078">
        <ele>273.7</ele>
        <time>2025-01-10T11:00:49.000Z</time>
      </trkpt>
      <trkpt lat="43.57477" lon="6.78077">
        <ele>273.3</ele>
        <time>2025-01-10T11:00:48.000Z</time>
      </trkpt>
      <trkpt lat="43.5748" lon="6.78075">
        <ele>273</ele>
        <time>2025-01-10T11:00:47.000Z</time>
      </trkpt>
      <trkpt lat="43.57483" lon="6.78073">
        <ele>272.7</ele>
        <time>2025-01-10T11:00:46.000Z</time>
      </trkpt>
      <trkpt lat="43.57486" lon="6.78071">
        <ele>272.4</ele>
        <time>2025-01-10T11:00:45.000Z</time>
      </trkpt>
      <trkpt lat="43.57489" lon="6.78069">
        <ele>272.1</ele>
        <time>2025-01-10T11:00:44.000Z</time>
      </trkpt>
      <trkpt lat="43.57493" lon="6.78067">
        <ele>271.9</ele>
        <time>2025-01-10T11:00:43.000Z</time>
      </trkpt>
      <trkpt lat="43.57496" lon="6.78065">
        <ele>271.6</ele>
        <time>2025-01-10T11:00:42.000Z</time>
      </trkpt>
      <trkpt lat="43.57499" lon="6.78063">
        <ele>271.4</ele>
        <time>2025-01-10T11:00:41.000Z</time>
      </trkpt>
      <trkpt lat="43.57502" lon="6.78062">
        <ele>271.2</ele>
        <time>2025-01-10T11:00:40.000Z</time>
      </trkpt>
      <trkpt lat="43.57505" lon="6.7806">
        <ele>270.9</ele>
        <time>2025-01-10T11:00:39.000Z</time>
      </trkpt>
      <trkpt lat="43.57508" lon="6.78058">
        <ele>270.7</ele>
        <time>2025-01-10T11:00:38.000Z</time>
      </trkpt>
      <trkpt lat="43.57511" lon="6.78057">
        <ele>270.4</ele>
        <time>2025-01-10T11:00:37.000Z</time>
      </trkpt>
      <trkpt lat="43.57514" lon="6.78056">
        <ele>270.2</ele>
        <time>2025-01-10T11:00:36.000Z</time>
      </trkpt>
      <trkpt lat="43.57517" lon="6.78055">
        <ele>269.9</ele>
        <time>2025-01-10T11:00:35.000Z</time>
      </trkpt>
      <trkpt lat="43.57521" lon="6.78054">
        <ele>269.6</ele>
        <time>2025-01-10T11:00:34.000Z</time>
      </trkpt>
      <trkpt lat="43.57524" lon="6.78053">
        <ele>269.4</ele>
        <time>2025-01-10T11:00:33.000Z</time>
      </trkpt>
      <trkpt lat="43.57527" lon="6.78052">
        <ele>269.1</ele>
        <time>2025-01-10T11:00:32.000Z</time>
      </trkpt>
      <trkpt lat="43.5753" lon="6.78051">
        <ele>268.8</ele>
        <time>2025-01-10T11:00:31.000Z</time>
      </trkpt>
      <trkpt lat="43.57533" lon="6.78051">
        <ele>268.5</ele>
        <time>2025-01-10T11:00:30.000Z</time>
      </trkpt>
      <trkpt lat="43.57537" lon="6.7805">
        <ele>268.2</ele>
        <time>2025-01-10T11:00:29.000Z</time>
      </trkpt>
      <trkpt lat="43.5754" lon="6.7805">
        <ele>267.9</ele>
        <time>2025-01-10T11:00:28.000Z</time>
      </trkpt>
      <trkpt lat="43.57542" lon="6.7805">
        <ele>267.6</ele>
        <time>2025-01-10T11:00:27.000Z</time>
      </trkpt>
      <trkpt lat="43.57546" lon="6.7805">
        <ele>267.3</ele>
        <time>2025-01-10T11:00:26.000Z</time>
      </trkpt>
      <trkpt lat="43.5755" lon="6.7805">
        <ele>266.9</ele>
        <time>2025-01-10T11:00:25.000Z</time>
      </trkpt>
      <trkpt lat="43.57553" lon="6.78049">
        <ele>266.6</ele>
        <time>2025-01-10T11:00:24.000Z</time>
      </trkpt>
      <trkpt lat="43.57556" lon="6.78049">
        <ele>266.3</ele>
        <time>2025-01-10T11:00:23.000Z</time>
      </trkpt>
      <trkpt lat="43.57559" lon="6.78049">
        <ele>266</ele>
        <time>2025-01-10T11:00:22.000Z</time>
      </trkpt>
      <trkpt lat="43.57562" lon="6.78049">
        <ele>265.7</ele>
        <time>2025-01-10T11:00:21.000Z</time>
      </trkpt>
      <trkpt lat="43.57566" lon="6.7805">
        <ele>265.4</ele>
        <time>2025-01-10T11:00:20.000Z</time>
      </trkpt>
      <trkpt lat="43.57569" lon="6.78051">
        <ele>265</ele>
        <time>2025-01-10T11:00:19.000Z</time>
      </trkpt>
      <trkpt lat="43.57572" lon="6.78052">
        <ele>264.7</ele>
        <time>2025-01-10T11:00:18.000Z</time>
      </trkpt>
      <trkpt lat="43.57575" lon="6.78053">
        <ele>264.4</ele>
        <time>2025-01-10T11:00:17.000Z</time>
      </trkpt>
      <trkpt lat="43.57578" lon="6.78054">
        <ele>264.1</ele>
        <time>2025-01-10T11:00:16.000Z</time>
      </trkpt>
      <trkpt lat="43.57581" lon="6.78055">
        <ele>263.7</ele>
        <time>2025-01-10T11:00:15.000Z</time>
      </trkpt>
      <trkpt lat="43.57585" lon="6.78055">
        <ele>263.4</ele>
        <time>2025-01-10T11:00:14.000Z</time>
      </trkpt>
      <trkpt lat="43.57588" lon="6.78056">
        <ele>263.1</ele>
        <time>2025-01-10T11:00:13.000Z</time>
      </trkpt>
      <trkpt lat="43.57591" lon="6.78057">
        <ele>262.7</ele>
        <time>2025-01-10T11:00:12.000Z</time>
      </trkpt>
      <trkpt lat="43.57594" lon="6.78057">
        <ele>262.4</ele>
        <time>2025-01-10T11:00:11.000Z</time>
      </trkpt>
      <trkpt lat="43.57597" lon="6.78057">
        <ele>262</ele>
        <time>2025-01-10T11:00:10.000Z</time>
      </trkpt>
      <trkpt lat="43.576" lon="6.78058">
        <ele>261.6</ele>
        <time>2025-01-10T11:00:09.000Z</time>
      </trkpt>
      <trkpt lat="43.57603" lon="6.78058">
        <ele>261.3</ele>
        <time>2025-01-10T11:00:08.000Z</time>
      </trkpt>
      <trkpt lat="43.57606" lon="6.78058">
        <ele>260.9</ele>
        <time>2025-01-10T11:00:07.000Z</time>
      </trkpt>
      <trkpt lat="43.57609" lon="6.78058">
        <ele>260.5</ele>
        <time>2025-01-10T11:00:06.000Z</time>
      </trkpt>
      <trkpt lat="43.57612" lon="6.78059">
        <ele>260.1</ele>
        <time>2025-01-10T11:00:05.000Z</time>
      </trkpt>
      <trkpt lat="43.57615" lon="6.78059">
        <ele>259.6</ele>
        <time>2025-01-10T11:00:04.000Z</time>
      </trkpt>
      <trkpt lat="43.57618" lon="6.78059">
        <ele>259.2</ele>
        <time>2025-01-10T11:00:03.000Z</time>
      </trkpt>
      <trkpt lat="43.57622" lon="6.7806">
        <ele>258.8</ele>
        <time>2025-01-10T11:00:02.000Z</time>
      </trkpt>
      <trkpt lat="43.57625" lon="6.7806">
        <ele>258.3</ele>
        <time>2025-01-10T11:00:01.000Z</time>
      </trkpt>
      <trkpt lat="43.57628" lon="6.7806">
        <ele>257.9</ele>
        <time>2025-01-10T11:00:00.000Z</time>
      </trkpt>
      <trkpt lat="43.57631" lon="6.78061">
        <ele>257.5</ele>
        <time>2025-01-10T10:59:59.000Z</time>
      </trkpt>
      <trkpt lat="43.57634" lon="6.78061">
        <ele>257</ele>
        <time>2025-01-10T10:59:58.000Z</time>
      </trkpt>
      <trkpt lat="43.57637" lon="6.78061">
        <ele>256.5</ele>
        <time>2025-01-10T10:59:57.000Z</time>
      </trkpt>
      <trkpt lat="43.5764" lon="6.78062">
        <ele>256.1</ele>
        <time>2025-01-10T10:59:56.000Z</time>
      </trkpt>
      <trkpt lat="43.57643" lon="6.78062">
        <ele>255.6</ele>
        <time>2025-01-10T10:59:55.000Z</time>
      </trkpt>
      <trkpt lat="43.57646" lon="6.78062">
        <ele>255.2</ele>
        <time>2025-01-10T10:59:54.000Z</time>
      </trkpt>
      <trkpt lat="43.57649" lon="6.78063">
        <ele>254.8</ele>
        <time>2025-01-10T10:59:53.000Z</time>
      </trkpt>
      <trkpt lat="43.57652" lon="6.78063">
        <ele>254.3</ele>
        <time>2025-01-10T10:59:52.000Z</time>
      </trkpt>
      <trkpt lat="43.57655" lon="6.78063">
        <ele>253.8</ele>
        <time>2025-01-10T10:59:51.000Z</time>
      </trkpt>
      <trkpt lat="43.57658" lon="6.78063">
        <ele>253.3</ele>
        <time>2025-01-10T10:59:50.000Z</time>
      </trkpt>
      <trkpt lat="43.57662" lon="6.78062">
        <ele>252.8</ele>
        <time>2025-01-10T10:59:49.000Z</time>
      </trkpt>
      <trkpt lat="43.57665" lon="6.78062">
        <ele>252.3</ele>
        <time>2025-01-10T10:59:48.000Z</time>
      </trkpt>
      <trkpt lat="43.57668" lon="6.78062">
        <ele>251.8</ele>
        <time>2025-01-10T10:59:47.000Z</time>
      </trkpt>
      <trkpt lat="43.57671" lon="6.78062">
        <ele>251.4</ele>
        <time>2025-01-10T10:59:46.000Z</time>
      </trkpt>
      <trkpt lat="43.57674" lon="6.78062">
        <ele>251</ele>
        <time>2025-01-10T10:59:45.000Z</time>
      </trkpt>
      <trkpt lat="43.57677" lon="6.78063">
        <ele>250.5</ele>
        <time>2025-01-10T10:59:44.000Z</time>
      </trkpt>
      <trkpt lat="43.5768" lon="6.78063">
        <ele>250.1</ele>
        <time>2025-01-10T10:59:43.000Z</time>
      </trkpt>
      <trkpt lat="43.57683" lon="6.78064">
        <ele>249.6</ele>
        <time>2025-01-10T10:59:42.000Z</time>
      </trkpt>
      <trkpt lat="43.57687" lon="6.78066">
        <ele>249.1</ele>
        <time>2025-01-10T10:59:41.000Z</time>
      </trkpt>
      <trkpt lat="43.5769" lon="6.78067">
        <ele>248.6</ele>
        <time>2025-01-10T10:59:40.000Z</time>
      </trkpt>
      <trkpt lat="43.57693" lon="6.78069">
        <ele>248.1</ele>
        <time>2025-01-10T10:59:39.000Z</time>
      </trkpt>
      <trkpt lat="43.57697" lon="6.78071">
        <ele>247.7</ele>
        <time>2025-01-10T10:59:38.000Z</time>
      </trkpt>
      <trkpt lat="43.577" lon="6.78072">
        <ele>247.2</ele>
        <time>2025-01-10T10:59:37.000Z</time>
      </trkpt>
      <trkpt lat="43.57703" lon="6.78074">
        <ele>246.7</ele>
        <time>2025-01-10T10:59:36.000Z</time>
      </trkpt>
      <trkpt lat="43.57706" lon="6.78076">
        <ele>246.3</ele>
        <time>2025-01-10T10:59:35.000Z</time>
      </trkpt>
      <trkpt lat="43.5771" lon="6.78077">
        <ele>245.8</ele>
        <time>2025-01-10T10:59:34.000Z</time>
      </trkpt>
      <trkpt lat="43.57713" lon="6.78079">
        <ele>245.4</ele>
        <time>2025-01-10T10:59:33.000Z</time>
      </trkpt>
      <trkpt lat="43.57717" lon="6.78081">
        <ele>244.9</ele>
        <time>2025-01-10T10:59:32.000Z</time>
      </trkpt>
      <trkpt lat="43.5772" lon="6.78082">
        <ele>244.5</ele>
        <time>2025-01-10T10:59:31.000Z</time>
      </trkpt>
      <trkpt lat="43.57724" lon="6.78084">
        <ele>244</ele>
        <time>2025-01-10T10:59:30.000Z</time>
      </trkpt>
      <trkpt lat="43.57728" lon="6.78085">
        <ele>243.6</ele>
        <time>2025-01-10T10:59:29.000Z</time>
      </trkpt>
      <trkpt lat="43.57731" lon="6.78086">
        <ele>243.2</ele>
        <time>2025-01-10T10:59:28.000Z</time>
      </trkpt>
      <trkpt lat="43.57735" lon="6.78087">
        <ele>242.8</ele>
        <time>2025-01-10T10:59:27.000Z</time>
      </trkpt>
      <trkpt lat="43.57738" lon="6.78089">
        <ele>242.3</ele>
        <time>2025-01-10T10:59:26.000Z</time>
      </trkpt>
      <trkpt lat="43.57742" lon="6.7809">
        <ele>241.8</ele>
        <time>2025-01-10T10:59:25.000Z</time>
      </trkpt>
      <trkpt lat="43.57746" lon="6.78092">
        <ele>241.4</ele>
        <time>2025-01-10T10:59:24.000Z</time>
      </trkpt>
      <trkpt lat="43.57751" lon="6.78093">
        <ele>240.9</ele>
        <time>2025-01-10T10:59:23.000Z</time>
      </trkpt>
      <trkpt lat="43.57755" lon="6.78094">
        <ele>240.5</ele>
        <time>2025-01-10T10:59:22.000Z</time>
      </trkpt>
      <trkpt lat="43.57759" lon="6.78094">
        <ele>240.1</ele>
        <time>2025-01-10T10:59:21.000Z</time>
      </trkpt>
      <trkpt lat="43.57763" lon="6.78095">
        <ele>239.7</ele>
        <time>2025-01-10T10:59:20.000Z</time>
      </trkpt>
      <trkpt lat="43.57767" lon="6.78095">
        <ele>239.3</ele>
        <time>2025-01-10T10:59:19.000Z</time>
      </trkpt>
      <trkpt lat="43.57771" lon="6.78094">
        <ele>238.9</ele>
        <time>2025-01-10T10:59:18.000Z</time>
      </trkpt>
      <trkpt lat="43.57776" lon="6.78094">
        <ele>238.5</ele>
        <time>2025-01-10T10:59:17.000Z</time>
      </trkpt>
      <trkpt lat="43.5778" lon="6.78093">
        <ele>238.2</ele>
        <time>2025-01-10T10:59:16.000Z</time>
      </trkpt>
      <trkpt lat="43.57784" lon="6.78091">
        <ele>237.9</ele>
        <time>2025-01-10T10:59:15.000Z</time>
      </trkpt>
      <trkpt lat="43.57789" lon="6.7809">
        <ele>237.6</ele>
        <time>2025-01-10T10:59:14.000Z</time>
      </trkpt>
      <trkpt lat="43.57793" lon="6.78088">
        <ele>237.3</ele>
        <time>2025-01-10T10:59:13.000Z</time>
      </trkpt>
      <trkpt lat="43.57797" lon="6.78087">
        <ele>237.1</ele>
        <time>2025-01-10T10:59:12.000Z</time>
      </trkpt>
      <trkpt lat="43.57801" lon="6.78086">
        <ele>236.9</ele>
        <time>2025-01-10T10:59:11.000Z</time>
      </trkpt>
      <trkpt lat="43.57805" lon="6.78085">
        <ele>236.7</ele>
        <time>2025-01-10T10:59:10.000Z</time>
      </trkpt>
      <trkpt lat="43.57809" lon="6.78084">
        <ele>236.5</ele>
        <time>2025-01-10T10:59:09.000Z</time>
      </trkpt>
      <trkpt lat="43.57813" lon="6.78084">
        <ele>236.3</ele>
        <time>2025-01-10T10:59:08.000Z</time>
      </trkpt>
      <trkpt lat="43.57817" lon="6.78083">
        <ele>236.1</ele>
        <time>2025-01-10T10:59:07.000Z</time>
      </trkpt>
      <trkpt lat="43.57821" lon="6.78083">
        <ele>236</ele>
        <time>2025-01-10T10:59:06.000Z</time>
      </trkpt>
      <trkpt lat="43.57825" lon="6.78082">
        <ele>235.8</ele>
        <time>2025-01-10T10:59:05.000Z</time>
      </trkpt>
      <trkpt lat="43.57829" lon="6.78082">
        <ele>235.6</ele>
        <time>2025-01-10T10:59:04.000Z</time>
      </trkpt>
      <trkpt lat="43.57833" lon="6.78082">
        <ele>235.5</ele>
        <time>2025-01-10T10:59:03.000Z</time>
      </trkpt>
      <trkpt lat="43.57837" lon="6.78081">
        <ele>235.3</ele>
        <time>2025-01-10T10:59:02.000Z</time>
      </trkpt>
      <trkpt lat="43.57841" lon="6.78081">
        <ele>235.2</ele>
        <time>2025-01-10T10:59:01.000Z</time>
      </trkpt>
      <trkpt lat="43.57845" lon="6.7808">
        <ele>235.1</ele>
        <time>2025-01-10T10:59:00.000Z</time>
      </trkpt>
      <trkpt lat="43.57848" lon="6.7808">
        <ele>234.9</ele>
        <time>2025-01-10T10:58:59.000Z</time>
      </trkpt>
      <trkpt lat="43.57852" lon="6.7808">
        <ele>234.8</ele>
        <time>2025-01-10T10:58:58.000Z</time>
      </trkpt>
      <trkpt lat="43.57856" lon="6.78079">
        <ele>234.6</ele>
        <time>2025-01-10T10:58:57.000Z</time>
      </trkpt>
      <trkpt lat="43.57859" lon="6.78079">
        <ele>234.5</ele>
        <time>2025-01-10T10:58:56.000Z</time>
      </trkpt>
      <trkpt lat="43.57862" lon="6.78079">
        <ele>234.3</ele>
        <time>2025-01-10T10:58:55.000Z</time>
      </trkpt>
      <trkpt lat="43.57865" lon="6.78078">
        <ele>234.1</ele>
        <time>2025-01-10T10:58:54.000Z</time>
      </trkpt>
      <trkpt lat="43.57869" lon="6.78078">
        <ele>233.8</ele>
        <time>2025-01-10T10:58:53.000Z</time>
      </trkpt>
      <trkpt lat="43.57872" lon="6.78078">
        <ele>233.5</ele>
        <time>2025-01-10T10:58:52.000Z</time>
      </trkpt>
      <trkpt lat="43.57875" lon="6.78078">
        <ele>233.2</ele>
        <time>2025-01-10T10:58:51.000Z</time>
      </trkpt>
      <trkpt lat="43.57879" lon="6.78078">
        <ele>232.8</ele>
        <time>2025-01-10T10:58:50.000Z</time>
      </trkpt>
      <trkpt lat="43.57882" lon="6.78079">
        <ele>232.4</ele>
        <time>2025-01-10T10:58:49.000Z</time>
      </trkpt>
      <trkpt lat="43.57886" lon="6.78079">
        <ele>232</ele>
        <time>2025-01-10T10:58:48.000Z</time>
      </trkpt>
      <trkpt lat="43.57888" lon="6.7808">
        <ele>231.7</ele>
        <time>2025-01-10T10:58:47.000Z</time>
      </trkpt>
      <trkpt lat="43.57892" lon="6.78081">
        <ele>231.3</ele>
        <time>2025-01-10T10:58:46.000Z</time>
      </trkpt>
      <trkpt lat="43.57895" lon="6.78082">
        <ele>230.9</ele>
        <time>2025-01-10T10:58:45.000Z</time>
      </trkpt>
      <trkpt lat="43.57898" lon="6.78083">
        <ele>230.4</ele>
        <time>2025-01-10T10:58:44.000Z</time>
      </trkpt>
      <trkpt lat="43.57901" lon="6.78085">
        <ele>230</ele>
        <time>2025-01-10T10:58:43.000Z</time>
      </trkpt>
      <trkpt lat="43.57904" lon="6.78086">
        <ele>229.6</ele>
        <time>2025-01-10T10:58:42.000Z</time>
      </trkpt>
      <trkpt lat="43.57907" lon="6.78088">
        <ele>229.2</ele>
        <time>2025-01-10T10:58:41.000Z</time>
      </trkpt>
      <trkpt lat="43.5791" lon="6.78089">
        <ele>228.7</ele>
        <time>2025-01-10T10:58:40.000Z</time>
      </trkpt>
      <trkpt lat="43.57913" lon="6.78091">
        <ele>228.2</ele>
        <time>2025-01-10T10:58:39.000Z</time>
      </trkpt>
      <trkpt lat="43.57916" lon="6.78092">
        <ele>227.8</ele>
        <time>2025-01-10T10:58:38.000Z</time>
      </trkpt>
      <trkpt lat="43.57919" lon="6.78093">
        <ele>227.4</ele>
        <time>2025-01-10T10:58:37.000Z</time>
      </trkpt>
      <trkpt lat="43.57922" lon="6.78094">
        <ele>227</ele>
        <time>2025-01-10T10:58:36.000Z</time>
      </trkpt>
      <trkpt lat="43.57926" lon="6.78095">
        <ele>226.5</ele>
        <time>2025-01-10T10:58:35.000Z</time>
      </trkpt>
      <trkpt lat="43.5793" lon="6.78096">
        <ele>226</ele>
        <time>2025-01-10T10:58:34.000Z</time>
      </trkpt>
      <trkpt lat="43.57933" lon="6.78097">
        <ele>225.6</ele>
        <time>2025-01-10T10:58:33.000Z</time>
      </trkpt>
      <trkpt lat="43.57936" lon="6.78097">
        <ele>225.2</ele>
        <time>2025-01-10T10:58:32.000Z</time>
      </trkpt>
      <trkpt lat="43.57939" lon="6.78097">
        <ele>224.7</ele>
        <time>2025-01-10T10:58:31.000Z</time>
      </trkpt>
      <trkpt lat="43.57942" lon="6.78098">
        <ele>224.4</ele>
        <time>2025-01-10T10:58:30.000Z</time>
      </trkpt>
      <trkpt lat="43.57945" lon="6.78097">
        <ele>223.9</ele>
        <time>2025-01-10T10:58:29.000Z</time>
      </trkpt>
      <trkpt lat="43.57948" lon="6.78096">
        <ele>223.5</ele>
        <time>2025-01-10T10:58:28.000Z</time>
      </trkpt>
      <trkpt lat="43.57951" lon="6.78095">
        <ele>223.1</ele>
        <time>2025-01-10T10:58:27.000Z</time>
      </trkpt>
      <trkpt lat="43.57954" lon="6.78094">
        <ele>222.6</ele>
        <time>2025-01-10T10:58:26.000Z</time>
      </trkpt>
      <trkpt lat="43.57957" lon="6.78092">
        <ele>222.1</ele>
        <time>2025-01-10T10:58:25.000Z</time>
      </trkpt>
      <trkpt lat="43.57961" lon="6.78089">
        <ele>221.7</ele>
        <time>2025-01-10T10:58:24.000Z</time>
      </trkpt>
      <trkpt lat="43.57965" lon="6.78087">
        <ele>221.2</ele>
        <time>2025-01-10T10:58:23.000Z</time>
      </trkpt>
      <trkpt lat="43.57969" lon="6.78083">
        <ele>220.8</ele>
        <time>2025-01-10T10:58:22.000Z</time>
      </trkpt>
      <trkpt lat="43.57972" lon="6.78079">
        <ele>220.4</ele>
        <time>2025-01-10T10:58:21.000Z</time>
      </trkpt>
      <trkpt lat="43.57976" lon="6.78074">
        <ele>220.1</ele>
        <time>2025-01-10T10:58:20.000Z</time>
      </trkpt>
      <trkpt lat="43.57979" lon="6.78068">
        <ele>219.8</ele>
        <time>2025-01-10T10:58:19.000Z</time>
      </trkpt>
      <trkpt lat="43.57982" lon="6.78062">
        <ele>219.5</ele>
        <time>2025-01-10T10:58:18.000Z</time>
      </trkpt>
      <trkpt lat="43.57983" lon="6.78057">
        <ele>219.4</ele>
        <time>2025-01-10T10:58:17.000Z</time>
      </trkpt>
      <trkpt lat="43.57984" lon="6.78051">
        <ele>219.2</ele>
        <time>2025-01-10T10:58:16.000Z</time>
      </trkpt>
      <trkpt lat="43.57985" lon="6.78045">
        <ele>218.9</ele>
        <time>2025-01-10T10:58:15.000Z</time>
      </trkpt>
      <trkpt lat="43.57987" lon="6.78039">
        <ele>218.6</ele>
        <time>2025-01-10T10:58:14.000Z</time>
      </trkpt>
      <trkpt lat="43.57987" lon="6.78034">
        <ele>218.4</ele>
        <time>2025-01-10T10:58:13.000Z</time>
      </trkpt>
      <trkpt lat="43.57988" lon="6.78028">
        <ele>218.1</ele>
        <time>2025-01-10T10:58:12.000Z</time>
      </trkpt>
      <trkpt lat="43.57989" lon="6.78023">
        <ele>217.7</ele>
        <time>2025-01-10T10:58:11.000Z</time>
      </trkpt>
      <trkpt lat="43.5799" lon="6.78017">
        <ele>217.3</ele>
        <time>2025-01-10T10:58:10.000Z</time>
      </trkpt>
      <trkpt lat="43.57991" lon="6.78011">
        <ele>216.9</ele>
        <time>2025-01-10T10:58:09.000Z</time>
      </trkpt>
      <trkpt lat="43.57992" lon="6.78004">
        <ele>216.5</ele>
        <time>2025-01-10T10:58:08.000Z</time>
      </trkpt>
      <trkpt lat="43.57993" lon="6.77999">
        <ele>216.2</ele>
        <time>2025-01-10T10:58:07.000Z</time>
      </trkpt>
      <trkpt lat="43.57994" lon="6.77993">
        <ele>216</ele>
        <time>2025-01-10T10:58:06.000Z</time>
      </trkpt>
      <trkpt lat="43.57995" lon="6.77985">
        <ele>215.7</ele>
        <time>2025-01-10T10:58:05.000Z</time>
      </trkpt>
      <trkpt lat="43.57996" lon="6.7798">
        <ele>215.6</ele>
        <time>2025-01-10T10:58:04.000Z</time>
      </trkpt>
      <trkpt lat="43.57997" lon="6.77974">
        <ele>215.5</ele>
        <time>2025-01-10T10:58:03.000Z</time>
      </trkpt>
      <trkpt lat="43.57997" lon="6.77968">
        <ele>215.5</ele>
        <time>2025-01-10T10:58:02.000Z</time>
      </trkpt>
      <trkpt lat="43.57998" lon="6.77963">
        <ele>215.4</ele>
        <time>2025-01-10T10:58:01.000Z</time>
      </trkpt>
      <trkpt lat="43.57999" lon="6.77957">
        <ele>215.4</ele>
        <time>2025-01-10T10:58:00.000Z</time>
      </trkpt>
      <trkpt lat="43.57999" lon="6.77952">
        <ele>215.3</ele>
        <time>2025-01-10T10:57:59.000Z</time>
      </trkpt>
      <trkpt lat="43.57999" lon="6.77948">
        <ele>215.3</ele>
        <time>2025-01-10T10:57:58.000Z</time>
      </trkpt>
      <trkpt lat="43.58" lon="6.77944">
        <ele>215.2</ele>
        <time>2025-01-10T10:57:57.000Z</time>
      </trkpt>
      <trkpt lat="43.58" lon="6.7794">
        <ele>215.1</ele>
        <time>2025-01-10T10:57:56.000Z</time>
      </trkpt>
      <trkpt lat="43.58001" lon="6.77935">
        <ele>215</ele>
        <time>2025-01-10T10:57:55.000Z</time>
      </trkpt>
      <trkpt lat="43.58002" lon="6.77932">
        <ele>214.8</ele>
        <time>2025-01-10T10:57:54.000Z</time>
      </trkpt>
      <trkpt lat="43.58003" lon="6.77929">
        <ele>214.7</ele>
        <time>2025-01-10T10:57:53.000Z</time>
      </trkpt>
      <trkpt lat="43.58003" lon="6.77926">
        <ele>214.6</ele>
        <time>2025-01-10T10:57:52.000Z</time>
      </trkpt>
      <trkpt lat="43.58003" lon="6.77922">
        <ele>214.4</ele>
        <time>2025-01-10T10:57:51.000Z</time>
      </trkpt>
      <trkpt lat="43.58004" lon="6.77918">
        <ele>214.2</ele>
        <time>2025-01-10T10:57:50.000Z</time>
      </trkpt>
      <trkpt lat="43.58004" lon="6.77914">
        <ele>214</ele>
        <time>2025-01-10T10:57:49.000Z</time>
      </trkpt>
      <trkpt lat="43.58004" lon="6.77911">
        <ele>213.8</ele>
        <time>2025-01-10T10:57:48.000Z</time>
      </trkpt>
      <trkpt lat="43.58004" lon="6.77906">
        <ele>213.6</ele>
        <time>2025-01-10T10:57:47.000Z</time>
      </trkpt>
      <trkpt lat="43.58004" lon="6.77902">
        <ele>213.3</ele>
        <time>2025-01-10T10:57:46.000Z</time>
      </trkpt>
      <trkpt lat="43.58003" lon="6.77897">
        <ele>213.1</ele>
        <time>2025-01-10T10:57:45.000Z</time>
      </trkpt>
      <trkpt lat="43.58003" lon="6.77893">
        <ele>212.9</ele>
        <time>2025-01-10T10:57:44.000Z</time>
      </trkpt>
      <trkpt lat="43.58002" lon="6.7789">
        <ele>212.6</ele>
        <time>2025-01-10T10:57:43.000Z</time>
      </trkpt>
      <trkpt lat="43.58002" lon="6.77886">
        <ele>212.4</ele>
        <time>2025-01-10T10:57:42.000Z</time>
      </trkpt>
      <trkpt lat="43.58001" lon="6.77881">
        <ele>212.1</ele>
        <time>2025-01-10T10:57:41.000Z</time>
      </trkpt>
      <trkpt lat="43.58" lon="6.77877">
        <ele>211.9</ele>
        <time>2025-01-10T10:57:40.000Z</time>
      </trkpt>
      <trkpt lat="43.58" lon="6.77874">
        <ele>211.7</ele>
        <time>2025-01-10T10:57:39.000Z</time>
      </trkpt>
      <trkpt lat="43.57999" lon="6.77871">
        <ele>211.3</ele>
        <time>2025-01-10T10:57:38.000Z</time>
      </trkpt>
      <trkpt lat="43.57998" lon="6.77867">
        <ele>210.9</ele>
        <time>2025-01-10T10:57:37.000Z</time>
      </trkpt>
      <trkpt lat="43.57997" lon="6.77863">
        <ele>210.5</ele>
        <time>2025-01-10T10:57:36.000Z</time>
      </trkpt>
      <trkpt lat="43.57997" lon="6.7786">
        <ele>210.1</ele>
        <time>2025-01-10T10:57:35.000Z</time>
      </trkpt>
      <trkpt lat="43.57996" lon="6.77857">
        <ele>209.7</ele>
        <time>2025-01-10T10:57:34.000Z</time>
      </trkpt>
      <trkpt lat="43.57996" lon="6.77853">
        <ele>209.4</ele>
        <time>2025-01-10T10:57:33.000Z</time>
      </trkpt>
      <trkpt lat="43.57996" lon="6.7785">
        <ele>209</ele>
        <time>2025-01-10T10:57:32.000Z</time>
      </trkpt>
      <trkpt lat="43.57995" lon="6.77847">
        <ele>208.6</ele>
        <time>2025-01-10T10:57:31.000Z</time>
      </trkpt>
      <trkpt lat="43.57996" lon="6.77842">
        <ele>208.1</ele>
        <time>2025-01-10T10:57:30.000Z</time>
      </trkpt>
      <trkpt lat="43.57996" lon="6.77839">
        <ele>207.7</ele>
        <time>2025-01-10T10:57:29.000Z</time>
      </trkpt>
      <trkpt lat="43.57996" lon="6.77836">
        <ele>207.3</ele>
        <time>2025-01-10T10:57:28.000Z</time>
      </trkpt>
      <trkpt lat="43.57996" lon="6.77832">
        <ele>206.8</ele>
        <time>2025-01-10T10:57:27.000Z</time>
      </trkpt>
      <trkpt lat="43.57997" lon="6.77828">
        <ele>206.3</ele>
        <time>2025-01-10T10:57:26.000Z</time>
      </trkpt>
      <trkpt lat="43.57998" lon="6.77825">
        <ele>205.9</ele>
        <time>2025-01-10T10:57:25.000Z</time>
      </trkpt>
      <trkpt lat="43.57998" lon="6.77822">
        <ele>205.6</ele>
        <time>2025-01-10T10:57:24.000Z</time>
      </trkpt>
      <trkpt lat="43.57999" lon="6.77819">
        <ele>205.2</ele>
        <time>2025-01-10T10:57:23.000Z</time>
      </trkpt>
      <trkpt lat="43.58" lon="6.77815">
        <ele>204.8</ele>
        <time>2025-01-10T10:57:22.000Z</time>
      </trkpt>
      <trkpt lat="43.58001" lon="6.77812">
        <ele>204.4</ele>
        <time>2025-01-10T10:57:21.000Z</time>
      </trkpt>
      <trkpt lat="43.58002" lon="6.77809">
        <ele>204</ele>
        <time>2025-01-10T10:57:20.000Z</time>
      </trkpt>
      <trkpt lat="43.58003" lon="6.77806">
        <ele>203.6</ele>
        <time>2025-01-10T10:57:19.000Z</time>
      </trkpt>
      <trkpt lat="43.58005" lon="6.77803">
        <ele>203.2</ele>
        <time>2025-01-10T10:57:18.000Z</time>
      </trkpt>
      <trkpt lat="43.58006" lon="6.77799">
        <ele>202.7</ele>
        <time>2025-01-10T10:57:17.000Z</time>
      </trkpt>
      <trkpt lat="43.58008" lon="6.77796">
        <ele>202.3</ele>
        <time>2025-01-10T10:57:16.000Z</time>
      </trkpt>
      <trkpt lat="43.58009" lon="6.77794">
        <ele>202</ele>
        <time>2025-01-10T10:57:15.000Z</time>
      </trkpt>
      <trkpt lat="43.5801" lon="6.77792">
        <ele>201.7</ele>
        <time>2025-01-10T10:57:14.000Z</time>
      </trkpt>
      <trkpt lat="43.58011" lon="6.7779">
        <ele>201.4</ele>
        <time>2025-01-10T10:57:13.000Z</time>
      </trkpt>
      <trkpt lat="43.58012" lon="6.77788">
        <ele>201.1</ele>
        <time>2025-01-10T10:57:12.000Z</time>
      </trkpt>
      <trkpt lat="43.58014" lon="6.77786">
        <ele>200.7</ele>
        <time>2025-01-10T10:57:11.000Z</time>
      </trkpt>
      <trkpt lat="43.58016" lon="6.77784">
        <ele>200.3</ele>
        <time>2025-01-10T10:57:10.000Z</time>
      </trkpt>
      <trkpt lat="43.58018" lon="6.77782">
        <ele>199.9</ele>
        <time>2025-01-10T10:57:09.000Z</time>
      </trkpt>
      <trkpt lat="43.5802" lon="6.7778">
        <ele>199.4</ele>
        <time>2025-01-10T10:57:08.000Z</time>
      </trkpt>
      <trkpt lat="43.58022" lon="6.77778">
        <ele>199</ele>
        <time>2025-01-10T10:57:07.000Z</time>
      </trkpt>
      <trkpt lat="43.58023" lon="6.77775">
        <ele>198.6</ele>
        <time>2025-01-10T10:57:06.000Z</time>
      </trkpt>
      <trkpt lat="43.58024" lon="6.77772">
        <ele>198.2</ele>
        <time>2025-01-10T10:57:05.000Z</time>
      </trkpt>
      <trkpt lat="43.58026" lon="6.77769">
        <ele>197.7</ele>
        <time>2025-01-10T10:57:04.000Z</time>
      </trkpt>
      <trkpt lat="43.58027" lon="6.77766">
        <ele>197.3</ele>
        <time>2025-01-10T10:57:03.000Z</time>
      </trkpt>
      <trkpt lat="43.58028" lon="6.77763">
        <ele>196.9</ele>
        <time>2025-01-10T10:57:02.000Z</time>
      </trkpt>
      <trkpt lat="43.58029" lon="6.77759">
        <ele>196.4</ele>
        <time>2025-01-10T10:57:01.000Z</time>
      </trkpt>
      <trkpt lat="43.5803" lon="6.77756">
        <ele>196</ele>
        <time>2025-01-10T10:57:00.000Z</time>
      </trkpt>
      <trkpt lat="43.58032" lon="6.77753">
        <ele>195.6</ele>
        <time>2025-01-10T10:56:59.000Z</time>
      </trkpt>
      <trkpt lat="43.58033" lon="6.77749">
        <ele>195.1</ele>
        <time>2025-01-10T10:56:58.000Z</time>
      </trkpt>
      <trkpt lat="43.58034" lon="6.77746">
        <ele>194.7</ele>
        <time>2025-01-10T10:56:57.000Z</time>
      </trkpt>
      <trkpt lat="43.58036" lon="6.77743">
        <ele>194.3</ele>
        <time>2025-01-10T10:56:56.000Z</time>
      </trkpt>
      <trkpt lat="43.58037" lon="6.7774">
        <ele>193.9</ele>
        <time>2025-01-10T10:56:55.000Z</time>
      </trkpt>
      <trkpt lat="43.58038" lon="6.77737">
        <ele>193.5</ele>
        <time>2025-01-10T10:56:54.000Z</time>
      </trkpt>
      <trkpt lat="43.5804" lon="6.77735">
        <ele>193.1</ele>
        <time>2025-01-10T10:56:53.000Z</time>
      </trkpt>
      <trkpt lat="43.58041" lon="6.77732">
        <ele>192.7</ele>
        <time>2025-01-10T10:56:52.000Z</time>
      </trkpt>
      <trkpt lat="43.58043" lon="6.7773">
        <ele>192.2</ele>
        <time>2025-01-10T10:56:51.000Z</time>
      </trkpt>
      <trkpt lat="43.58045" lon="6.77727">
        <ele>191.8</ele>
        <time>2025-01-10T10:56:50.000Z</time>
      </trkpt>
      <trkpt lat="43.58047" lon="6.77725">
        <ele>191.4</ele>
        <time>2025-01-10T10:56:49.000Z</time>
      </trkpt>
      <trkpt lat="43.58049" lon="6.77723">
        <ele>190.9</ele>
        <time>2025-01-10T10:56:48.000Z</time>
      </trkpt>
      <trkpt lat="43.58051" lon="6.77721">
        <ele>190.5</ele>
        <time>2025-01-10T10:56:47.000Z</time>
      </trkpt>
      <trkpt lat="43.58053" lon="6.77719">
        <ele>190.1</ele>
        <time>2025-01-10T10:56:46.000Z</time>
      </trkpt>
      <trkpt lat="43.58055" lon="6.77717">
        <ele>189.7</ele>
        <time>2025-01-10T10:56:45.000Z</time>
      </trkpt>
      <trkpt lat="43.58057" lon="6.77715">
        <ele>189.3</ele>
        <time>2025-01-10T10:56:44.000Z</time>
      </trkpt>
      <trkpt lat="43.58059" lon="6.77713">
        <ele>188.8</ele>
        <time>2025-01-10T10:56:43.000Z</time>
      </trkpt>
      <trkpt lat="43.58062" lon="6.77711">
        <ele>188.4</ele>
        <time>2025-01-10T10:56:42.000Z</time>
      </trkpt>
      <trkpt lat="43.58064" lon="6.77709">
        <ele>188</ele>
        <time>2025-01-10T10:56:41.000Z</time>
      </trkpt>
      <trkpt lat="43.58067" lon="6.77708">
        <ele>187.6</ele>
        <time>2025-01-10T10:56:40.000Z</time>
      </trkpt>
      <trkpt lat="43.58069" lon="6.77707">
        <ele>187.1</ele>
        <time>2025-01-10T10:56:39.000Z</time>
      </trkpt>
      <trkpt lat="43.58072" lon="6.77706">
        <ele>186.7</ele>
        <time>2025-01-10T10:56:38.000Z</time>
      </trkpt>
      <trkpt lat="43.58075" lon="6.77705">
        <ele>186.2</ele>
        <time>2025-01-10T10:56:37.000Z</time>
      </trkpt>
      <trkpt lat="43.58077" lon="6.77705">
        <ele>185.9</ele>
        <time>2025-01-10T10:56:36.000Z</time>
      </trkpt>
      <trkpt lat="43.58079" lon="6.77704">
        <ele>185.4</ele>
        <time>2025-01-10T10:56:35.000Z</time>
      </trkpt>
      <trkpt lat="43.58082" lon="6.77704">
        <ele>185</ele>
        <time>2025-01-10T10:56:34.000Z</time>
      </trkpt>
      <trkpt lat="43.58085" lon="6.77704">
        <ele>184.4</ele>
        <time>2025-01-10T10:56:33.000Z</time>
      </trkpt>
      <trkpt lat="43.58087" lon="6.77704">
        <ele>184</ele>
        <time>2025-01-10T10:56:32.000Z</time>
      </trkpt>
      <trkpt lat="43.58089" lon="6.77704">
        <ele>183.6</ele>
        <time>2025-01-10T10:56:31.000Z</time>
      </trkpt>
      <trkpt lat="43.58092" lon="6.77704">
        <ele>183.2</ele>
        <time>2025-01-10T10:56:30.000Z</time>
      </trkpt>
      <trkpt lat="43.58094" lon="6.77703">
        <ele>182.7</ele>
        <time>2025-01-10T10:56:29.000Z</time>
      </trkpt>
      <trkpt lat="43.58097" lon="6.77703">
        <ele>182.1</ele>
        <time>2025-01-10T10:56:28.000Z</time>
      </trkpt>
      <trkpt lat="43.58099" lon="6.77703">
        <ele>181.8</ele>
        <time>2025-01-10T10:56:27.000Z</time>
      </trkpt>
      <trkpt lat="43.58102" lon="6.77702">
        <ele>181.3</ele>
        <time>2025-01-10T10:56:26.000Z</time>
      </trkpt>
      <trkpt lat="43.58104" lon="6.77702">
        <ele>180.8</ele>
        <time>2025-01-10T10:56:25.000Z</time>
      </trkpt>
      <trkpt lat="43.58107" lon="6.77702">
        <ele>180.3</ele>
        <time>2025-01-10T10:56:24.000Z</time>
      </trkpt>
      <trkpt lat="43.58109" lon="6.77702">
        <ele>179.8</ele>
        <time>2025-01-10T10:56:23.000Z</time>
      </trkpt>
      <trkpt lat="43.58111" lon="6.77702">
        <ele>179.4</ele>
        <time>2025-01-10T10:56:22.000Z</time>
      </trkpt>
      <trkpt lat="43.58114" lon="6.77702">
        <ele>178.9</ele>
        <time>2025-01-10T10:56:21.000Z</time>
      </trkpt>
      <trkpt lat="43.58116" lon="6.77702">
        <ele>178.5</ele>
        <time>2025-01-10T10:56:20.000Z</time>
      </trkpt>
      <trkpt lat="43.58119" lon="6.77701">
        <ele>177.8</ele>
        <time>2025-01-10T10:56:19.000Z</time>
      </trkpt>
      <trkpt lat="43.58121" lon="6.77701">
        <ele>177.4</ele>
        <time>2025-01-10T10:56:18.000Z</time>
      </trkpt>
      <trkpt lat="43.58124" lon="6.77701">
        <ele>176.8</ele>
        <time>2025-01-10T10:56:17.000Z</time>
      </trkpt>
      <trkpt lat="43.58127" lon="6.777">
        <ele>176.2</ele>
        <time>2025-01-10T10:56:16.000Z</time>
      </trkpt>
      <trkpt lat="43.5813" lon="6.77698">
        <ele>175.7</ele>
        <time>2025-01-10T10:56:15.000Z</time>
      </trkpt>
      <trkpt lat="43.58133" lon="6.77696">
        <ele>175.1</ele>
        <time>2025-01-10T10:56:14.000Z</time>
      </trkpt>
      <trkpt lat="43.58135" lon="6.77695">
        <ele>174.6</ele>
        <time>2025-01-10T10:56:13.000Z</time>
      </trkpt>
      <trkpt lat="43.58137" lon="6.77693">
        <ele>174.1</ele>
        <time>2025-01-10T10:56:12.000Z</time>
      </trkpt>
      <trkpt lat="43.5814" lon="6.77691">
        <ele>173.6</ele>
        <time>2025-01-10T10:56:11.000Z</time>
      </trkpt>
      <trkpt lat="43.58142" lon="6.77689">
        <ele>173</ele>
        <time>2025-01-10T10:56:10.000Z</time>
      </trkpt>
      <trkpt lat="43.58145" lon="6.77687">
        <ele>172.3</ele>
        <time>2025-01-10T10:56:09.000Z</time>
      </trkpt>
      <trkpt lat="43.58148" lon="6.77684">
        <ele>171.8</ele>
        <time>2025-01-10T10:56:08.000Z</time>
      </trkpt>
      <trkpt lat="43.5815" lon="6.77682">
        <ele>171.4</ele>
        <time>2025-01-10T10:56:07.000Z</time>
      </trkpt>
      <trkpt lat="43.58152" lon="6.77679">
        <ele>170.9</ele>
        <time>2025-01-10T10:56:06.000Z</time>
      </trkpt>
      <trkpt lat="43.58154" lon="6.77676">
        <ele>170.5</ele>
        <time>2025-01-10T10:56:05.000Z</time>
      </trkpt>
      <trkpt lat="43.58158" lon="6.77672">
        <ele>170</ele>
        <time>2025-01-10T10:56:04.000Z</time>
      </trkpt>
      <trkpt lat="43.58161" lon="6.77669">
        <ele>169.6</ele>
        <time>2025-01-10T10:56:03.000Z</time>
      </trkpt>
      <trkpt lat="43.58163" lon="6.77667">
        <ele>169.2</ele>
        <time>2025-01-10T10:56:02.000Z</time>
      </trkpt>
      <trkpt lat="43.58167" lon="6.77665">
        <ele>168.8</ele>
        <time>2025-01-10T10:56:01.000Z</time>
      </trkpt>
      <trkpt lat="43.5817" lon="6.77662">
        <ele>168.5</ele>
        <time>2025-01-10T10:56:00.000Z</time>
      </trkpt>
      <trkpt lat="43.58173" lon="6.7766">
        <ele>168.2</ele>
        <time>2025-01-10T10:55:59.000Z</time>
      </trkpt>
      <trkpt lat="43.58175" lon="6.77658">
        <ele>168</ele>
        <time>2025-01-10T10:55:58.000Z</time>
      </trkpt>
      <trkpt lat="43.58177" lon="6.77656">
        <ele>167.8</ele>
        <time>2025-01-10T10:55:57.000Z</time>
      </trkpt>
      <trkpt lat="43.58179" lon="6.77654">
        <ele>167.6</ele>
        <time>2025-01-10T10:55:56.000Z</time>
      </trkpt>
      <trkpt lat="43.58181" lon="6.77651">
        <ele>167.4</ele>
        <time>2025-01-10T10:55:55.000Z</time>
      </trkpt>
      <trkpt lat="43.58183" lon="6.77648">
        <ele>167.3</ele>
        <time>2025-01-10T10:55:54.000Z</time>
      </trkpt>
      <trkpt lat="43.58185" lon="6.77645">
        <ele>167.2</ele>
        <time>2025-01-10T10:55:53.000Z</time>
      </trkpt>
      <trkpt lat="43.58188" lon="6.77641">
        <ele>167.1</ele>
        <time>2025-01-10T10:55:52.000Z</time>
      </trkpt>
      <trkpt lat="43.5819" lon="6.77637">
        <ele>166.9</ele>
        <time>2025-01-10T10:55:51.000Z</time>
      </trkpt>
      <trkpt lat="43.58193" lon="6.77632">
        <ele>166.8</ele>
        <time>2025-01-10T10:55:50.000Z</time>
      </trkpt>
      <trkpt lat="43.58196" lon="6.77627">
        <ele>166.5</ele>
        <time>2025-01-10T10:55:49.000Z</time>
      </trkpt>
      <trkpt lat="43.58198" lon="6.77623">
        <ele>166.2</ele>
        <time>2025-01-10T10:55:48.000Z</time>
      </trkpt>
      <trkpt lat="43.582" lon="6.77618">
        <ele>165.9</ele>
        <time>2025-01-10T10:55:47.000Z</time>
      </trkpt>
      <trkpt lat="43.58203" lon="6.77612">
        <ele>165.6</ele>
        <time>2025-01-10T10:55:46.000Z</time>
      </trkpt>
      <trkpt lat="43.58206" lon="6.77607">
        <ele>165.3</ele>
        <time>2025-01-10T10:55:45.000Z</time>
      </trkpt>
      <trkpt lat="43.58209" lon="6.77601">
        <ele>165</ele>
        <time>2025-01-10T10:55:44.000Z</time>
      </trkpt>
      <trkpt lat="43.58211" lon="6.77595">
        <ele>164.7</ele>
        <time>2025-01-10T10:55:43.000Z</time>
      </trkpt>
      <trkpt lat="43.58213" lon="6.77591">
        <ele>164.5</ele>
        <time>2025-01-10T10:55:42.000Z</time>
      </trkpt>
      <trkpt lat="43.58216" lon="6.77586">
        <ele>164.2</ele>
        <time>2025-01-10T10:55:41.000Z</time>
      </trkpt>
      <trkpt lat="43.58218" lon="6.77581">
        <ele>164</ele>
        <time>2025-01-10T10:55:40.000Z</time>
      </trkpt>
      <trkpt lat="43.58222" lon="6.77575">
        <ele>163.6</ele>
        <time>2025-01-10T10:55:39.000Z</time>
      </trkpt>
      <trkpt lat="43.58224" lon="6.7757">
        <ele>163.4</ele>
        <time>2025-01-10T10:55:38.000Z</time>
      </trkpt>
      <trkpt lat="43.58227" lon="6.77565">
        <ele>163.1</ele>
        <time>2025-01-10T10:55:37.000Z</time>
      </trkpt>
      <trkpt lat="43.58229" lon="6.7756">
        <ele>162.9</ele>
        <time>2025-01-10T10:55:36.000Z</time>
      </trkpt>
      <trkpt lat="43.58232" lon="6.77554">
        <ele>162.7</ele>
        <time>2025-01-10T10:55:35.000Z</time>
      </trkpt>
      <trkpt lat="43.58235" lon="6.77547">
        <ele>162.4</ele>
        <time>2025-01-10T10:55:34.000Z</time>
      </trkpt>
      <trkpt lat="43.58237" lon="6.77541">
        <ele>162.2</ele>
        <time>2025-01-10T10:55:33.000Z</time>
      </trkpt>
      <trkpt lat="43.58239" lon="6.77537">
        <ele>162.1</ele>
        <time>2025-01-10T10:55:32.000Z</time>
      </trkpt>
      <trkpt lat="43.58241" lon="6.7753">
        <ele>161.9</ele>
        <time>2025-01-10T10:55:31.000Z</time>
      </trkpt>
      <trkpt lat="43.58243" lon="6.77524">
        <ele>161.7</ele>
        <time>2025-01-10T10:55:30.000Z</time>
      </trkpt>
      <trkpt lat="43.58244" lon="6.77518">
        <ele>161.5</ele>
        <time>2025-01-10T10:55:29.000Z</time>
      </trkpt>
      <trkpt lat="43.58246" lon="6.77512">
        <ele>161.2</ele>
        <time>2025-01-10T10:55:28.000Z</time>
      </trkpt>
      <trkpt lat="43.58247" lon="6.77506">
        <ele>161</ele>
        <time>2025-01-10T10:55:27.000Z</time>
      </trkpt>
      <trkpt lat="43.58248" lon="6.775">
        <ele>160.7</ele>
        <time>2025-01-10T10:55:26.000Z</time>
      </trkpt>
      <trkpt lat="43.5825" lon="6.77493">
        <ele>160.4</ele>
        <time>2025-01-10T10:55:25.000Z</time>
      </trkpt>
      <trkpt lat="43.58251" lon="6.77487">
        <ele>160.1</ele>
        <time>2025-01-10T10:55:24.000Z</time>
      </trkpt>
      <trkpt lat="43.58253" lon="6.77482">
        <ele>159.8</ele>
        <time>2025-01-10T10:55:23.000Z</time>
      </trkpt>
      <trkpt lat="43.58256" lon="6.77476">
        <ele>159.5</ele>
        <time>2025-01-10T10:55:22.000Z</time>
      </trkpt>
      <trkpt lat="43.58258" lon="6.7747">
        <ele>159.2</ele>
        <time>2025-01-10T10:55:21.000Z</time>
      </trkpt>
      <trkpt lat="43.5826" lon="6.77465">
        <ele>158.9</ele>
        <time>2025-01-10T10:55:20.000Z</time>
      </trkpt>
      <trkpt lat="43.58262" lon="6.77458">
        <ele>158.6</ele>
        <time>2025-01-10T10:55:19.000Z</time>
      </trkpt>
      <trkpt lat="43.58264" lon="6.77454">
        <ele>158.4</ele>
        <time>2025-01-10T10:55:18.000Z</time>
      </trkpt>
      <trkpt lat="43.58265" lon="6.77448">
        <ele>158.2</ele>
        <time>2025-01-10T10:55:17.000Z</time>
      </trkpt>
      <trkpt lat="43.58266" lon="6.77443">
        <ele>158</ele>
        <time>2025-01-10T10:55:16.000Z</time>
      </trkpt>
      <trkpt lat="43.58266" lon="6.77438">
        <ele>157.8</ele>
        <time>2025-01-10T10:55:15.000Z</time>
      </trkpt>
      <trkpt lat="43.58264" lon="6.77432">
        <ele>157.6</ele>
        <time>2025-01-10T10:55:14.000Z</time>
      </trkpt>
      <trkpt lat="43.58262" lon="6.77428">
        <ele>157.5</ele>
        <time>2025-01-10T10:55:13.000Z</time>
      </trkpt>
      <trkpt lat="43.58259" lon="6.77425">
        <ele>157.3</ele>
        <time>2025-01-10T10:55:12.000Z</time>
      </trkpt>
      <trkpt lat="43.58257" lon="6.77422">
        <ele>157.1</ele>
        <time>2025-01-10T10:55:11.000Z</time>
      </trkpt>
      <trkpt lat="43.58253" lon="6.77419">
        <ele>156.9</ele>
        <time>2025-01-10T10:55:10.000Z</time>
      </trkpt>
      <trkpt lat="43.5825" lon="6.77417">
        <ele>156.6</ele>
        <time>2025-01-10T10:55:09.000Z</time>
      </trkpt>
      <trkpt lat="43.58248" lon="6.77416">
        <ele>156.4</ele>
        <time>2025-01-10T10:55:08.000Z</time>
      </trkpt>
      <trkpt lat="43.58245" lon="6.77414">
        <ele>156.2</ele>
        <time>2025-01-10T10:55:07.000Z</time>
      </trkpt>
      <trkpt lat="43.58242" lon="6.77412">
        <ele>155.9</ele>
        <time>2025-01-10T10:55:06.000Z</time>
      </trkpt>
      <trkpt lat="43.58239" lon="6.77409">
        <ele>155.5</ele>
        <time>2025-01-10T10:55:05.000Z</time>
      </trkpt>
      <trkpt lat="43.58238" lon="6.77405">
        <ele>155.2</ele>
        <time>2025-01-10T10:55:04.000Z</time>
      </trkpt>
      <trkpt lat="43.58235" lon="6.774">
        <ele>154.8</ele>
        <time>2025-01-10T10:55:03.000Z</time>
      </trkpt>
      <trkpt lat="43.58232" lon="6.77395">
        <ele>154.3</ele>
        <time>2025-01-10T10:55:02.000Z</time>
      </trkpt>
      <trkpt lat="43.58229" lon="6.77391">
        <ele>154</ele>
        <time>2025-01-10T10:55:01.000Z</time>
      </trkpt>
      <trkpt lat="43.58225" lon="6.77386">
        <ele>153.7</ele>
        <time>2025-01-10T10:55:00.000Z</time>
      </trkpt>
      <trkpt lat="43.58222" lon="6.77382">
        <ele>153.5</ele>
        <time>2025-01-10T10:54:59.000Z</time>
      </trkpt>
      <trkpt lat="43.58222" lon="6.77381">
        <ele>153.4</ele>
        <time>2025-01-10T10:54:58.000Z</time>
      </trkpt>
      <trkpt lat="43.58222" lon="6.77381">
        <ele>153.4</ele>
        <time>2025-01-10T10:54:57.000Z</time>
      </trkpt>
      <trkpt lat="43.58222" lon="6.77381">
        <ele>153.4</ele>
        <time>2025-01-10T10:54:56.000Z</time>
      </trkpt>
      <trkpt lat="43.58222" lon="6.77381">
        <ele>153.4</ele>
        <time>2025-01-10T10:54:55.000Z</time>
      </trkpt>
      <trkpt lat="43.58222" lon="6.77381">
        <ele>153.4</ele>
        <time>2025-01-10T10:54:54.000Z</time>
      </trkpt>
      <trkpt lat="43.58222" lon="6.77381">
        <ele>153.4</ele>
        <time>2025-01-10T10:54:53.000Z</time>
      </trkpt>
      <trkpt lat="43.58222" lon="6.77381">
        <ele>153.4</ele>
        <time>2025-01-10T10:54:52.000Z</time>
      </trkpt>
      <trkpt lat="43.58222" lon="6.77381">
        <ele>153.4</ele>
        <time>2025-01-10T10:54:51.000Z</time>
      </trkpt>
      <trkpt lat="43.58222" lon="6.77381">
        <ele>153.4</ele>
        <time>2025-01-10T10:54:50.000Z</time>
      </trkpt>
      <trkpt lat="43.58222" lon="6.77381">
        <ele>153.4</ele>
        <time>2025-01-10T10:54:49.000Z</time>
      </trkpt>
      <trkpt lat="43.58222" lon="6.77381">
        <ele>153.4</ele>
        <time>2025-01-10T10:54:48.000Z</time>
      </trkpt>
      <trkpt lat="43.58222" lon="6.77381">
        <ele>153.4</ele>
        <time>2025-01-10T10:54:47.000Z</time>
      </trkpt>
      <trkpt lat="43.58222" lon="6.77381">
        <ele>153.4</ele>
        <time>2025-01-10T10:54:46.000Z</time>
      </trkpt>
      <trkpt lat="43.58222" lon="6.77381">
        <ele>153.4</ele>
        <time>2025-01-10T10:54:45.000Z</time>
      </trkpt>
      <trkpt lat="43.58222" lon="6.77381">
        <ele>153.4</ele>
        <time>2025-01-10T10:54:44.000Z</time>
      </trkpt>
      <trkpt lat="43.58222" lon="6.77381">
        <ele>153.4</ele>
        <time>2025-01-10T10:54:43.000Z</time>
      </trkpt>
      <trkpt lat="43.58222" lon="6.77381">
        <ele>153.4</ele>
        <time>2025-01-10T10:54:42.000Z</time>
      </trkpt>
      <trkpt lat="43.58222" lon="6.77381">
        <ele>153.4</ele>
        <time>2025-01-10T10:54:41.000Z</time>
      </trkpt>
      <trkpt lat="43.58222" lon="6.77381">
        <ele>153.4</ele>
        <time>2025-01-10T10:54:40.000Z</time>
      </trkpt>
      <trkpt lat="43.58222" lon="6.77381">
        <ele>153.4</ele>
        <time>2025-01-10T10:54:39.000Z</time>
      </trkpt>
      <trkpt lat="43.58222" lon="6.77381">
        <ele>153.4</ele>
        <time>2025-01-10T10:54:38.000Z</time>
      </trkpt>
      <trkpt lat="43.58222" lon="6.77381">
        <ele>153.4</ele>
        <time>2025-01-10T10:54:37.000Z</time>
      </trkpt>
      <trkpt lat="43.58222" lon="6.77381">
        <ele>153.4</ele>
        <time>2025-01-10T10:54:36.000Z</time>
      </trkpt>
      <trkpt lat="43.58222" lon="6.77381">
        <ele>153.4</ele>
        <time>2025-01-10T10:54:35.000Z</time>
      </trkpt>
      <trkpt lat="43.58222" lon="6.77381">
        <ele>153.4</ele>
        <time>2025-01-10T10:54:34.000Z</time>
      </trkpt>
      <trkpt lat="43.58222" lon="6.77381">
        <ele>153.4</ele>
        <time>2025-01-10T10:54:33.000Z</time>
      </trkpt>
      <trkpt lat="43.58221" lon="6.77381">
        <ele>153.4</ele>
        <time>2025-01-10T10:54:32.000Z</time>
      </trkpt>
      <trkpt lat="43.58221" lon="6.77381">
        <ele>153.4</ele>
        <time>2025-01-10T10:54:31.000Z</time>
      </trkpt>
      <trkpt lat="43.58221" lon="6.77382">
        <ele>153.4</ele>
        <time>2025-01-10T10:54:30.000Z</time>
      </trkpt>
      <trkpt lat="43.58221" lon="6.77382">
        <ele>153.4</ele>
        <time>2025-01-10T10:54:29.000Z</time>
      </trkpt>
      <trkpt lat="43.58221" lon="6.77382">
        <ele>153.4</ele>
        <time>2025-01-10T10:54:28.000Z</time>
      </trkpt>
      <trkpt lat="43.58221" lon="6.77382">
        <ele>153.4</ele>
        <time>2025-01-10T10:54:27.000Z</time>
      </trkpt>
      <trkpt lat="43.58221" lon="6.77382">
        <ele>153.4</ele>
        <time>2025-01-10T10:54:26.000Z</time>
      </trkpt>
      <trkpt lat="43.58221" lon="6.77382">
        <ele>153.4</ele>
        <time>2025-01-10T10:54:25.000Z</time>
      </trkpt>
      <trkpt lat="43.58221" lon="6.77382">
        <ele>153.4</ele>
        <time>2025-01-10T10:54:24.000Z</time>
      </trkpt>
      <trkpt lat="43.58221" lon="6.77383">
        <ele>153.4</ele>
        <time>2025-01-10T10:54:23.000Z</time>
      </trkpt>
      <trkpt lat="43.58221" lon="6.77383">
        <ele>153.4</ele>
        <time>2025-01-10T10:54:22.000Z</time>
      </trkpt>
      <trkpt lat="43.58221" lon="6.77383">
        <ele>153.4</ele>
        <time>2025-01-10T10:54:21.000Z</time>
      </trkpt>
      <trkpt lat="43.58221" lon="6.77382">
        <ele>153.4</ele>
        <time>2025-01-10T10:54:20.000Z</time>
      </trkpt>
      <trkpt lat="43.58221" lon="6.77381">
        <ele>153.4</ele>
        <time>2025-01-10T10:54:19.000Z</time>
      </trkpt>
      <trkpt lat="43.58221" lon="6.7738">
        <ele>153.4</ele>
        <time>2025-01-10T10:54:18.000Z</time>
      </trkpt>
      <trkpt lat="43.58222" lon="6.7738">
        <ele>153.4</ele>
        <time>2025-01-10T10:54:17.000Z</time>
      </trkpt>
      <trkpt lat="43.58222" lon="6.77379">
        <ele>153.4</ele>
        <time>2025-01-10T10:54:16.000Z</time>
      </trkpt>
      <trkpt lat="43.58222" lon="6.77378">
        <ele>153.4</ele>
        <time>2025-01-10T10:54:15.000Z</time>
      </trkpt>
      <trkpt lat="43.58223" lon="6.77377">
        <ele>153.4</ele>
        <time>2025-01-10T10:54:14.000Z</time>
      </trkpt>
      <trkpt lat="43.58223" lon="6.77376">
        <ele>153.5</ele>
        <time>2025-01-10T10:54:13.000Z</time>
      </trkpt>
      <trkpt lat="43.58223" lon="6.77375">
        <ele>153.5</ele>
        <time>2025-01-10T10:54:12.000Z</time>
      </trkpt>
      <trkpt lat="43.58223" lon="6.77374">
        <ele>153.5</ele>
        <time>2025-01-10T10:54:11.000Z</time>
      </trkpt>
      <trkpt lat="43.58223" lon="6.77371">
        <ele>153.5</ele>
        <time>2025-01-10T10:54:10.000Z</time>
      </trkpt>
      <trkpt lat="43.58224" lon="6.77367">
        <ele>153.5</ele>
        <time>2025-01-10T10:54:09.000Z</time>
      </trkpt>
      <trkpt lat="43.58225" lon="6.77362">
        <ele>153.7</ele>
        <time>2025-01-10T10:54:08.000Z</time>
      </trkpt>
      <trkpt lat="43.58225" lon="6.77358">
        <ele>153.8</ele>
        <time>2025-01-10T10:54:07.000Z</time>
      </trkpt>
      <trkpt lat="43.58226" lon="6.77353">
        <ele>154</ele>
        <time>2025-01-10T10:54:06.000Z</time>
      </trkpt>
      <trkpt lat="43.58227" lon="6.77349">
        <ele>154.2</ele>
        <time>2025-01-10T10:54:05.000Z</time>
      </trkpt>
      <trkpt lat="43.58228" lon="6.77344">
        <ele>154.4</ele>
        <time>2025-01-10T10:54:04.000Z</time>
      </trkpt>
      <trkpt lat="43.58229" lon="6.77339">
        <ele>154.6</ele>
        <time>2025-01-10T10:54:03.000Z</time>
      </trkpt>
      <trkpt lat="43.58229" lon="6.77335">
        <ele>154.7</ele>
        <time>2025-01-10T10:54:02.000Z</time>
      </trkpt>
      <trkpt lat="43.5823" lon="6.77329">
        <ele>154.9</ele>
        <time>2025-01-10T10:54:01.000Z</time>
      </trkpt>
      <trkpt lat="43.58231" lon="6.77326">
        <ele>155</ele>
        <time>2025-01-10T10:54:00.000Z</time>
      </trkpt>
      <trkpt lat="43.58231" lon="6.77321">
        <ele>155.1</ele>
        <time>2025-01-10T10:53:59.000Z</time>
      </trkpt>
      <trkpt lat="43.58231" lon="6.77316">
        <ele>155.2</ele>
        <time>2025-01-10T10:53:58.000Z</time>
      </trkpt>
      <trkpt lat="43.5823" lon="6.77312">
        <ele>155.4</ele>
        <time>2025-01-10T10:53:57.000Z</time>
      </trkpt>
      <trkpt lat="43.58228" lon="6.77307">
        <ele>155.5</ele>
        <time>2025-01-10T10:53:56.000Z</time>
      </trkpt>
      <trkpt lat="43.58227" lon="6.77304">
        <ele>155.5</ele>
        <time>2025-01-10T10:53:55.000Z</time>
      </trkpt>
      <trkpt lat="43.58224" lon="6.77299">
        <ele>155.6</ele>
        <time>2025-01-10T10:53:54.000Z</time>
      </trkpt>
      <trkpt lat="43.58221" lon="6.77294">
        <ele>155.7</ele>
        <time>2025-01-10T10:53:53.000Z</time>
      </trkpt>
      <trkpt lat="43.58218" lon="6.77289">
        <ele>155.7</ele>
        <time>2025-01-10T10:53:52.000Z</time>
      </trkpt>
      <trkpt lat="43.58216" lon="6.77285">
        <ele>155.8</ele>
        <time>2025-01-10T10:53:51.000Z</time>
      </trkpt>
      <trkpt lat="43.58213" lon="6.77281">
        <ele>155.8</ele>
        <time>2025-01-10T10:53:50.000Z</time>
      </trkpt>
      <trkpt lat="43.58211" lon="6.77277">
        <ele>155.9</ele>
        <time>2025-01-10T10:53:49.000Z</time>
      </trkpt>
      <trkpt lat="43.58207" lon="6.77272">
        <ele>155.9</ele>
        <time>2025-01-10T10:53:48.000Z</time>
      </trkpt>
      <trkpt lat="43.58203" lon="6.7727">
        <ele>155.9</ele>
        <time>2025-01-10T10:53:47.000Z</time>
      </trkpt>
      <trkpt lat="43.58199" lon="6.77267">
        <ele>156</ele>
        <time>2025-01-10T10:53:46.000Z</time>
      </trkpt>
      <trkpt lat="43.58196" lon="6.77266">
        <ele>156</ele>
        <time>2025-01-10T10:53:45.000Z</time>
      </trkpt>
      <trkpt lat="43.58192" lon="6.77264">
        <ele>156</ele>
        <time>2025-01-10T10:53:44.000Z</time>
      </trkpt>
      <trkpt lat="43.58187" lon="6.77261">
        <ele>156.1</ele>
        <time>2025-01-10T10:53:43.000Z</time>
      </trkpt>
      <trkpt lat="43.58183" lon="6.77258">
        <ele>156.1</ele>
        <time>2025-01-10T10:53:42.000Z</time>
      </trkpt>
      <trkpt lat="43.58179" lon="6.77255">
        <ele>156.1</ele>
        <time>2025-01-10T10:53:41.000Z</time>
      </trkpt>
      <trkpt lat="43.58176" lon="6.77253">
        <ele>156.1</ele>
        <time>2025-01-10T10:53:40.000Z</time>
      </trkpt>
      <trkpt lat="43.58173" lon="6.77251">
        <ele>156.1</ele>
        <time>2025-01-10T10:53:39.000Z</time>
      </trkpt>
      <trkpt lat="43.58169" lon="6.77248">
        <ele>156.1</ele>
        <time>2025-01-10T10:53:38.000Z</time>
      </trkpt>
      <trkpt lat="43.58164" lon="6.77245">
        <ele>156.1</ele>
        <time>2025-01-10T10:53:37.000Z</time>
      </trkpt>
      <trkpt lat="43.58162" lon="6.77243">
        <ele>156.1</ele>
        <time>2025-01-10T10:53:36.000Z</time>
      </trkpt>
      <trkpt lat="43.58159" lon="6.77241">
        <ele>156</ele>
        <time>2025-01-10T10:53:35.000Z</time>
      </trkpt>
      <trkpt lat="43.58155" lon="6.77241">
        <ele>156</ele>
        <time>2025-01-10T10:53:34.000Z</time>
      </trkpt>
      <trkpt lat="43.58152" lon="6.77241">
        <ele>155.9</ele>
        <time>2025-01-10T10:53:33.000Z</time>
      </trkpt>
      <trkpt lat="43.58147" lon="6.7724">
        <ele>155.8</ele>
        <time>2025-01-10T10:53:32.000Z</time>
      </trkpt>
      <trkpt lat="43.58144" lon="6.7724">
        <ele>155.7</ele>
        <time>2025-01-10T10:53:31.000Z</time>
      </trkpt>
      <trkpt lat="43.58141" lon="6.7724">
        <ele>155.7</ele>
        <time>2025-01-10T10:53:30.000Z</time>
      </trkpt>
      <trkpt lat="43.58137" lon="6.77241">
        <ele>155.7</ele>
        <time>2025-01-10T10:53:29.000Z</time>
      </trkpt>
      <trkpt lat="43.58134" lon="6.77243">
        <ele>155.6</ele>
        <time>2025-01-10T10:53:28.000Z</time>
      </trkpt>
      <trkpt lat="43.5813" lon="6.77245">
        <ele>155.6</ele>
        <time>2025-01-10T10:53:27.000Z</time>
      </trkpt>
      <trkpt lat="43.58126" lon="6.77246">
        <ele>155.6</ele>
        <time>2025-01-10T10:53:26.000Z</time>
      </trkpt>
      <trkpt lat="43.58124" lon="6.77246">
        <ele>155.6</ele>
        <time>2025-01-10T10:53:25.000Z</time>
      </trkpt>
      <trkpt lat="43.58121" lon="6.77245">
        <ele>155.6</ele>
        <time>2025-01-10T10:53:24.000Z</time>
      </trkpt>
      <trkpt lat="43.58118" lon="6.77245">
        <ele>155.6</ele>
        <time>2025-01-10T10:53:23.000Z</time>
      </trkpt>
      <trkpt lat="43.58115" lon="6.77245">
        <ele>155.6</ele>
        <time>2025-01-10T10:53:22.000Z</time>
      </trkpt>
      <trkpt lat="43.58112" lon="6.77244">
        <ele>155.5</ele>
        <time>2025-01-10T10:53:21.000Z</time>
      </trkpt>
      <trkpt lat="43.58108" lon="6.77242">
        <ele>155.5</ele>
        <time>2025-01-10T10:53:20.000Z</time>
      </trkpt>
      <trkpt lat="43.58105" lon="6.77239">
        <ele>155.4</ele>
        <time>2025-01-10T10:53:19.000Z</time>
      </trkpt>
      <trkpt lat="43.58101" lon="6.77236">
        <ele>155.4</ele>
        <time>2025-01-10T10:53:18.000Z</time>
      </trkpt>
      <trkpt lat="43.58098" lon="6.77232">
        <ele>155.3</ele>
        <time>2025-01-10T10:53:17.000Z</time>
      </trkpt>
      <trkpt lat="43.58095" lon="6.77229">
        <ele>155.3</ele>
        <time>2025-01-10T10:53:16.000Z</time>
      </trkpt>
      <trkpt lat="43.58093" lon="6.77227">
        <ele>155.3</ele>
        <time>2025-01-10T10:53:15.000Z</time>
      </trkpt>
      <trkpt lat="43.5809" lon="6.77224">
        <ele>155.2</ele>
        <time>2025-01-10T10:53:14.000Z</time>
      </trkpt>
      <trkpt lat="43.58087" lon="6.7722">
        <ele>155.2</ele>
        <time>2025-01-10T10:53:13.000Z</time>
      </trkpt>
      <trkpt lat="43.58085" lon="6.77218">
        <ele>155.1</ele>
        <time>2025-01-10T10:53:12.000Z</time>
      </trkpt>
      <trkpt lat="43.58084" lon="6.77218">
        <ele>155.1</ele>
        <time>2025-01-10T10:53:11.000Z</time>
      </trkpt>
      <trkpt lat="43.58084" lon="6.77218">
        <ele>155.1</ele>
        <time>2025-01-10T10:53:10.000Z</time>
      </trkpt>
      <trkpt lat="43.58084" lon="6.77218">
        <ele>155.1</ele>
        <time>2025-01-10T10:53:09.000Z</time>
      </trkpt>
      <trkpt lat="43.58084" lon="6.77218">
        <ele>155.1</ele>
        <time>2025-01-10T10:53:08.000Z</time>
      </trkpt>
      <trkpt lat="43.58084" lon="6.77218">
        <ele>155.1</ele>
        <time>2025-01-10T10:53:07.000Z</time>
      </trkpt>
      <trkpt lat="43.58084" lon="6.77218">
        <ele>155.1</ele>
        <time>2025-01-10T10:53:06.000Z</time>
      </trkpt>
      <trkpt lat="43.58084" lon="6.77218">
        <ele>155.1</ele>
        <time>2025-01-10T10:53:05.000Z</time>
      </trkpt>
      <trkpt lat="43.58084" lon="6.77218">
        <ele>155.1</ele>
        <time>2025-01-10T10:53:04.000Z</time>
      </trkpt>
      <trkpt lat="43.58084" lon="6.77218">
        <ele>155.1</ele>
        <time>2025-01-10T10:53:03.000Z</time>
      </trkpt>
      <trkpt lat="43.58084" lon="6.77218">
        <ele>155.1</ele>
        <time>2025-01-10T10:53:02.000Z</time>
      </trkpt>
      <trkpt lat="43.58084" lon="6.77218">
        <ele>155.1</ele>
        <time>2025-01-10T10:53:01.000Z</time>
      </trkpt>
      <trkpt lat="43.58084" lon="6.77218">
        <ele>155.1</ele>
        <time>2025-01-10T10:53:00.000Z</time>
      </trkpt>
      <trkpt lat="43.58084" lon="6.77218">
        <ele>155.1</ele>
        <time>2025-01-10T10:52:59.000Z</time>
      </trkpt>
      <trkpt lat="43.58084" lon="6.77218">
        <ele>155.1</ele>
        <time>2025-01-10T10:52:58.000Z</time>
      </trkpt>
      <trkpt lat="43.58083" lon="6.77218">
        <ele>155.1</ele>
        <time>2025-01-10T10:52:57.000Z</time>
      </trkpt>
      <trkpt lat="43.58083" lon="6.77218">
        <ele>155.1</ele>
        <time>2025-01-10T10:52:56.000Z</time>
      </trkpt>
      <trkpt lat="43.58082" lon="6.77217">
        <ele>155</ele>
        <time>2025-01-10T10:52:55.000Z</time>
      </trkpt>
      <trkpt lat="43.5808" lon="6.77217">
        <ele>155</ele>
        <time>2025-01-10T10:52:54.000Z</time>
      </trkpt>
      <trkpt lat="43.58079" lon="6.77215">
        <ele>155</ele>
        <time>2025-01-10T10:52:53.000Z</time>
      </trkpt>
      <trkpt lat="43.58077" lon="6.77213">
        <ele>154.9</ele>
        <time>2025-01-10T10:52:52.000Z</time>
      </trkpt>
      <trkpt lat="43.58076" lon="6.77211">
        <ele>154.8</ele>
        <time>2025-01-10T10:52:51.000Z</time>
      </trkpt>
      <trkpt lat="43.58075" lon="6.77208">
        <ele>154.8</ele>
        <time>2025-01-10T10:52:50.000Z</time>
        <extensions>
          <visugpx:TrkExtension xmlns:visugpx="https://www.visugpx.com/editgpx/">
            <visugpx:node>1</visugpx:node>
            </visugpx:TrkExtension>
        </extensions>
      </trkpt>
    </trkseg>
  </trk>
</gpx>